<?xml version="1.0" encoding="UTF-8" standalone="no" ?>
<gpx xmlns="http://www.topografix.com/GPX/1/1" xmlns:xsi="http://www.w3.org/2001/XMLSchema-instance" xsi:schemaLocation="http://www.topografix.com/GPX/1/1 http://www.topografix.com/GPX/1/1/gpx.xsd" version="1.1" creator="VisuGPX - https://www.visugpx.com">
  <metadata>
    <name>parcours chaillevois</name>
    <desc><![CDATA[parcours de 7.720km dans la campagne environnante]]></desc>
  </metadata>
  <trk>
    <name><![CDATA[02/02/2015 14:12]]></name>
    <desc><![CDATA[]]></desc>
    <trkseg>
      <trkpt lat="49.51209" lon="3.52322">
        <ele>155.4</ele>
        <time>2015-02-02T13:12:34.586Z</time>
      </trkpt>
      <trkpt lat="49.51202" lon="3.52314">
        <ele>153.6</ele>
        <time>2015-02-02T13:13:43.210Z</time>
      </trkpt>
      <trkpt lat="49.51201" lon="3.52313">
        <ele>153.7</ele>
        <time>2015-02-02T13:13:43.732Z</time>
      </trkpt>
      <trkpt lat="49.51195" lon="3.52303">
        <ele>152.9</ele>
        <time>2015-02-02T13:13:51.626Z</time>
      </trkpt>
      <trkpt lat="49.51195" lon="3.52303">
        <ele>152.9</ele>
        <time>2015-02-02T13:13:52.634Z</time>
      </trkpt>
      <trkpt lat="49.51191" lon="3.52291">
        <ele>152.7</ele>
        <time>2015-02-02T13:14:00.725Z</time>
      </trkpt>
      <trkpt lat="49.5119" lon="3.52289">
        <ele>152.5</ele>
        <time>2015-02-02T13:14:01.732Z</time>
      </trkpt>
      <trkpt lat="49.51186" lon="3.52277">
        <ele>152.1</ele>
        <time>2015-02-02T13:14:08.307Z</time>
      </trkpt>
      <trkpt lat="49.51185" lon="3.52275">
        <ele>152.2</ele>
        <time>2015-02-02T13:14:08.669Z</time>
      </trkpt>
      <trkpt lat="49.51182" lon="3.52264">
        <ele>152.7</ele>
        <time>2015-02-02T13:14:14.685Z</time>
      </trkpt>
      <trkpt lat="49.51181" lon="3.52262">
        <ele>152.7</ele>
        <time>2015-02-02T13:14:15.697Z</time>
      </trkpt>
      <trkpt lat="49.51178" lon="3.52251">
        <ele>151.5</ele>
        <time>2015-02-02T13:14:23.655Z</time>
      </trkpt>
      <trkpt lat="49.51178" lon="3.52248">
        <ele>151.3</ele>
        <time>2015-02-02T13:14:24.660Z</time>
      </trkpt>
      <trkpt lat="49.51175" lon="3.52235">
        <ele>151</ele>
        <time>2015-02-02T13:14:32.611Z</time>
      </trkpt>
      <trkpt lat="49.51175" lon="3.52234">
        <ele>150.9</ele>
        <time>2015-02-02T13:14:33.614Z</time>
      </trkpt>
      <trkpt lat="49.51174" lon="3.52221">
        <ele>150.6</ele>
        <time>2015-02-02T13:14:39.681Z</time>
      </trkpt>
      <trkpt lat="49.51174" lon="3.52219">
        <ele>150.9</ele>
        <time>2015-02-02T13:14:40.691Z</time>
      </trkpt>
      <trkpt lat="49.51171" lon="3.52207">
        <ele>150.9</ele>
        <time>2015-02-02T13:14:46.621Z</time>
      </trkpt>
      <trkpt lat="49.51171" lon="3.52205">
        <ele>151</ele>
        <time>2015-02-02T13:14:47.635Z</time>
      </trkpt>
      <trkpt lat="49.51168" lon="3.52192">
        <ele>150.7</ele>
        <time>2015-02-02T13:14:55.726Z</time>
      </trkpt>
      <trkpt lat="49.51167" lon="3.52191">
        <ele>150.7</ele>
        <time>2015-02-02T13:14:56.628Z</time>
      </trkpt>
      <trkpt lat="49.51168" lon="3.52178">
        <ele>150.6</ele>
        <time>2015-02-02T13:15:04.614Z</time>
      </trkpt>
      <trkpt lat="49.51168" lon="3.52177">
        <ele>150.6</ele>
        <time>2015-02-02T13:15:05.619Z</time>
      </trkpt>
      <trkpt lat="49.51166" lon="3.52166">
        <ele>150.5</ele>
        <time>2015-02-02T13:15:14.706Z</time>
      </trkpt>
      <trkpt lat="49.51165" lon="3.52164">
        <ele>150.6</ele>
        <time>2015-02-02T13:15:15.716Z</time>
      </trkpt>
      <trkpt lat="49.51163" lon="3.52153">
        <ele>150.5</ele>
        <time>2015-02-02T13:15:21.682Z</time>
      </trkpt>
      <trkpt lat="49.51163" lon="3.52151">
        <ele>150.5</ele>
        <time>2015-02-02T13:15:22.691Z</time>
      </trkpt>
      <trkpt lat="49.51159" lon="3.52138">
        <ele>150.7</ele>
        <time>2015-02-02T13:15:29.133Z</time>
      </trkpt>
      <trkpt lat="49.51158" lon="3.52136">
        <ele>150.7</ele>
        <time>2015-02-02T13:15:29.639Z</time>
      </trkpt>
      <trkpt lat="49.51155" lon="3.52125">
        <ele>151.1</ele>
        <time>2015-02-02T13:15:35.636Z</time>
      </trkpt>
      <trkpt lat="49.51155" lon="3.52123">
        <ele>151.2</ele>
        <time>2015-02-02T13:15:36.650Z</time>
      </trkpt>
      <trkpt lat="49.51151" lon="3.52112">
        <ele>150.6</ele>
        <time>2015-02-02T13:15:43.674Z</time>
      </trkpt>
      <trkpt lat="49.5115" lon="3.52111">
        <ele>150.4</ele>
        <time>2015-02-02T13:15:44.693Z</time>
      </trkpt>
      <trkpt lat="49.51146" lon="3.521">
        <ele>150.7</ele>
        <time>2015-02-02T13:15:53.240Z</time>
      </trkpt>
      <trkpt lat="49.51146" lon="3.52098">
        <ele>150.7</ele>
        <time>2015-02-02T13:15:53.690Z</time>
      </trkpt>
      <trkpt lat="49.51144" lon="3.52087">
        <ele>151</ele>
        <time>2015-02-02T13:15:59.635Z</time>
      </trkpt>
      <trkpt lat="49.51144" lon="3.52085">
        <ele>151</ele>
        <time>2015-02-02T13:16:00.639Z</time>
      </trkpt>
      <trkpt lat="49.51142" lon="3.52072">
        <ele>150.9</ele>
        <time>2015-02-02T13:16:08.474Z</time>
      </trkpt>
      <trkpt lat="49.51141" lon="3.5207">
        <ele>150.7</ele>
        <time>2015-02-02T13:16:08.659Z</time>
      </trkpt>
      <trkpt lat="49.51139" lon="3.52058">
        <ele>150.6</ele>
        <time>2015-02-02T13:16:14.611Z</time>
      </trkpt>
      <trkpt lat="49.51139" lon="3.52056">
        <ele>150.5</ele>
        <time>2015-02-02T13:16:15.611Z</time>
      </trkpt>
      <trkpt lat="49.51138" lon="3.52043">
        <ele>149.7</ele>
        <time>2015-02-02T13:16:21.674Z</time>
      </trkpt>
      <trkpt lat="49.51138" lon="3.52042">
        <ele>149.6</ele>
        <time>2015-02-02T13:16:22.687Z</time>
      </trkpt>
      <trkpt lat="49.51138" lon="3.52038">
        <ele>149.4</ele>
        <time>2015-02-02T13:16:25.704Z</time>
      </trkpt>
      <trkpt lat="49.51138" lon="3.52037">
        <ele>149.1</ele>
        <time>2015-02-02T13:16:26.708Z</time>
      </trkpt>
      <trkpt lat="49.51139" lon="3.52037">
        <ele>149</ele>
        <time>2015-02-02T13:16:28.590Z</time>
      </trkpt>
      <trkpt lat="49.51139" lon="3.52037">
        <ele>148.9</ele>
        <time>2015-02-02T13:16:28.626Z</time>
      </trkpt>
      <trkpt lat="49.5114" lon="3.52023">
        <ele>148.8</ele>
        <time>2015-02-02T13:16:38.656Z</time>
      </trkpt>
      <trkpt lat="49.5114" lon="3.52021">
        <ele>148.8</ele>
        <time>2015-02-02T13:16:39.695Z</time>
      </trkpt>
      <trkpt lat="49.5114" lon="3.5202">
        <ele>148.7</ele>
        <time>2015-02-02T13:16:40.675Z</time>
      </trkpt>
      <trkpt lat="49.5114" lon="3.52019">
        <ele>148.8</ele>
        <time>2015-02-02T13:16:41.687Z</time>
      </trkpt>
      <trkpt lat="49.5114" lon="3.52017">
        <ele>148.9</ele>
        <time>2015-02-02T13:16:42.693Z</time>
      </trkpt>
      <trkpt lat="49.51144" lon="3.52005">
        <ele>149.1</ele>
        <time>2015-02-02T13:16:53.383Z</time>
      </trkpt>
      <trkpt lat="49.51144" lon="3.52004">
        <ele>149.1</ele>
        <time>2015-02-02T13:16:53.689Z</time>
      </trkpt>
      <trkpt lat="49.51149" lon="3.51995">
        <ele>148.4</ele>
        <time>2015-02-02T13:17:00.634Z</time>
      </trkpt>
      <trkpt lat="49.51149" lon="3.51993">
        <ele>148.2</ele>
        <time>2015-02-02T13:17:01.649Z</time>
      </trkpt>
      <trkpt lat="49.51148" lon="3.51981">
        <ele>148.1</ele>
        <time>2015-02-02T13:17:06.664Z</time>
      </trkpt>
      <trkpt lat="49.51148" lon="3.51979">
        <ele>148.1</ele>
        <time>2015-02-02T13:17:07.676Z</time>
      </trkpt>
      <trkpt lat="49.51146" lon="3.51973">
        <ele>148.4</ele>
        <time>2015-02-02T13:17:10.612Z</time>
      </trkpt>
      <trkpt lat="49.51146" lon="3.51971">
        <ele>148.4</ele>
        <time>2015-02-02T13:17:11.615Z</time>
      </trkpt>
      <trkpt lat="49.51146" lon="3.5197">
        <ele>148.6</ele>
        <time>2015-02-02T13:17:12.628Z</time>
      </trkpt>
      <trkpt lat="49.51146" lon="3.51969">
        <ele>148.6</ele>
        <time>2015-02-02T13:17:13.661Z</time>
      </trkpt>
      <trkpt lat="49.51142" lon="3.51956">
        <ele>148.7</ele>
        <time>2015-02-02T13:17:17.691Z</time>
      </trkpt>
      <trkpt lat="49.51142" lon="3.51954">
        <ele>148.7</ele>
        <time>2015-02-02T13:17:18.703Z</time>
      </trkpt>
      <trkpt lat="49.51142" lon="3.51942">
        <ele>149.1</ele>
        <time>2015-02-02T13:17:25.669Z</time>
      </trkpt>
      <trkpt lat="49.51142" lon="3.5194">
        <ele>149.2</ele>
        <time>2015-02-02T13:17:26.664Z</time>
      </trkpt>
      <trkpt lat="49.51143" lon="3.51928">
        <ele>149.4</ele>
        <time>2015-02-02T13:17:32.615Z</time>
      </trkpt>
      <trkpt lat="49.51143" lon="3.51925">
        <ele>149.3</ele>
        <time>2015-02-02T13:17:33.615Z</time>
      </trkpt>
      <trkpt lat="49.51144" lon="3.51919">
        <ele>149</ele>
        <time>2015-02-02T13:17:38.154Z</time>
      </trkpt>
      <trkpt lat="49.51144" lon="3.51918">
        <ele>148.9</ele>
        <time>2015-02-02T13:17:38.650Z</time>
      </trkpt>
      <trkpt lat="49.51144" lon="3.51917">
        <ele>148.9</ele>
        <time>2015-02-02T13:17:39.675Z</time>
      </trkpt>
      <trkpt lat="49.51144" lon="3.51914">
        <ele>148.9</ele>
        <time>2015-02-02T13:17:41.692Z</time>
      </trkpt>
      <trkpt lat="49.51144" lon="3.51912">
        <ele>148.9</ele>
        <time>2015-02-02T13:17:42.694Z</time>
      </trkpt>
      <trkpt lat="49.51144" lon="3.5191">
        <ele>148.9</ele>
        <time>2015-02-02T13:17:43.702Z</time>
      </trkpt>
      <trkpt lat="49.51145" lon="3.51909">
        <ele>148.8</ele>
        <time>2015-02-02T13:17:44.606Z</time>
      </trkpt>
      <trkpt lat="49.51146" lon="3.51903">
        <ele>149</ele>
        <time>2015-02-02T13:17:51.660Z</time>
      </trkpt>
      <trkpt lat="49.51146" lon="3.51893">
        <ele>149.4</ele>
        <time>2015-02-02T13:17:52.660Z</time>
      </trkpt>
      <trkpt lat="49.5115" lon="3.51881">
        <ele>149.6</ele>
        <time>2015-02-02T13:17:58.708Z</time>
      </trkpt>
      <trkpt lat="49.51151" lon="3.51879">
        <ele>149.5</ele>
        <time>2015-02-02T13:17:59.608Z</time>
      </trkpt>
      <trkpt lat="49.51152" lon="3.51866">
        <ele>149.8</ele>
        <time>2015-02-02T13:18:06.726Z</time>
      </trkpt>
      <trkpt lat="49.51153" lon="3.51865">
        <ele>149.9</ele>
        <time>2015-02-02T13:18:07.715Z</time>
      </trkpt>
      <trkpt lat="49.51153" lon="3.51863">
        <ele>149.8</ele>
        <time>2015-02-02T13:18:08.744Z</time>
      </trkpt>
      <trkpt lat="49.51153" lon="3.51862">
        <ele>149.8</ele>
        <time>2015-02-02T13:18:09.633Z</time>
      </trkpt>
      <trkpt lat="49.51154" lon="3.51862">
        <ele>149.8</ele>
        <time>2015-02-02T13:18:11.650Z</time>
      </trkpt>
      <trkpt lat="49.51154" lon="3.51859">
        <ele>149.7</ele>
        <time>2015-02-02T13:18:12.655Z</time>
      </trkpt>
      <trkpt lat="49.51159" lon="3.51848">
        <ele>149.6</ele>
        <time>2015-02-02T13:18:19.720Z</time>
      </trkpt>
      <trkpt lat="49.5116" lon="3.51846">
        <ele>149.7</ele>
        <time>2015-02-02T13:18:20.625Z</time>
      </trkpt>
      <trkpt lat="49.51161" lon="3.5184">
        <ele>150.6</ele>
        <time>2015-02-02T13:18:23.836Z</time>
      </trkpt>
      <trkpt lat="49.51161" lon="3.51838">
        <ele>151</ele>
        <time>2015-02-02T13:18:24.649Z</time>
      </trkpt>
      <trkpt lat="49.51161" lon="3.51836">
        <ele>151.3</ele>
        <time>2015-02-02T13:18:27.691Z</time>
      </trkpt>
      <trkpt lat="49.51163" lon="3.51833">
        <ele>151.6</ele>
        <time>2015-02-02T13:18:28.696Z</time>
      </trkpt>
      <trkpt lat="49.51165" lon="3.51828">
        <ele>151.6</ele>
        <time>2015-02-02T13:18:31.676Z</time>
      </trkpt>
      <trkpt lat="49.51165" lon="3.51826">
        <ele>151.7</ele>
        <time>2015-02-02T13:18:32.671Z</time>
      </trkpt>
      <trkpt lat="49.51166" lon="3.51825">
        <ele>151.8</ele>
        <time>2015-02-02T13:18:33.677Z</time>
      </trkpt>
      <trkpt lat="49.51169" lon="3.51812">
        <ele>152.2</ele>
        <time>2015-02-02T13:18:40.622Z</time>
      </trkpt>
      <trkpt lat="49.5117" lon="3.51811">
        <ele>152.2</ele>
        <time>2015-02-02T13:18:41.626Z</time>
      </trkpt>
      <trkpt lat="49.51171" lon="3.51808">
        <ele>152.2</ele>
        <time>2015-02-02T13:18:43.677Z</time>
      </trkpt>
      <trkpt lat="49.51171" lon="3.51807">
        <ele>152</ele>
        <time>2015-02-02T13:18:44.675Z</time>
      </trkpt>
      <trkpt lat="49.51171" lon="3.51806">
        <ele>152</ele>
        <time>2015-02-02T13:18:46.689Z</time>
      </trkpt>
      <trkpt lat="49.51172" lon="3.51802">
        <ele>152.7</ele>
        <time>2015-02-02T13:18:47.699Z</time>
      </trkpt>
      <trkpt lat="49.51172" lon="3.518">
        <ele>152.6</ele>
        <time>2015-02-02T13:18:48.704Z</time>
      </trkpt>
      <trkpt lat="49.51173" lon="3.51799">
        <ele>152.5</ele>
        <time>2015-02-02T13:18:49.707Z</time>
      </trkpt>
      <trkpt lat="49.51174" lon="3.51799">
        <ele>152.4</ele>
        <time>2015-02-02T13:18:54.635Z</time>
      </trkpt>
      <trkpt lat="49.51174" lon="3.51798">
        <ele>151.3</ele>
        <time>2015-02-02T13:18:55.675Z</time>
      </trkpt>
      <trkpt lat="49.51167" lon="3.51806">
        <ele>148.7</ele>
        <time>2015-02-02T13:19:05.624Z</time>
      </trkpt>
      <trkpt lat="49.51167" lon="3.51807">
        <ele>148.3</ele>
        <time>2015-02-02T13:19:06.636Z</time>
      </trkpt>
      <trkpt lat="49.51161" lon="3.51816">
        <ele>146.7</ele>
        <time>2015-02-02T13:19:16.629Z</time>
      </trkpt>
      <trkpt lat="49.51159" lon="3.51817">
        <ele>146.4</ele>
        <time>2015-02-02T13:19:17.632Z</time>
      </trkpt>
      <trkpt lat="49.51152" lon="3.51825">
        <ele>146.4</ele>
        <time>2015-02-02T13:19:26.673Z</time>
      </trkpt>
      <trkpt lat="49.51152" lon="3.51826">
        <ele>146.3</ele>
        <time>2015-02-02T13:19:27.678Z</time>
      </trkpt>
      <trkpt lat="49.5115" lon="3.51839">
        <ele>146.3</ele>
        <time>2015-02-02T13:19:39.686Z</time>
      </trkpt>
      <trkpt lat="49.5115" lon="3.51842">
        <ele>146.1</ele>
        <time>2015-02-02T13:19:40.690Z</time>
      </trkpt>
      <trkpt lat="49.51148" lon="3.51852">
        <ele>146.2</ele>
        <time>2015-02-02T13:19:48.217Z</time>
      </trkpt>
      <trkpt lat="49.51148" lon="3.51851">
        <ele>146.3</ele>
        <time>2015-02-02T13:19:48.661Z</time>
      </trkpt>
      <trkpt lat="49.51148" lon="3.51851">
        <ele>145.9</ele>
        <time>2015-02-02T13:19:53.701Z</time>
      </trkpt>
      <trkpt lat="49.51149" lon="3.51848">
        <ele>145.6</ele>
        <time>2015-02-02T13:19:54.610Z</time>
      </trkpt>
      <trkpt lat="49.51153" lon="3.51839">
        <ele>144.8</ele>
        <time>2015-02-02T13:20:07.652Z</time>
      </trkpt>
      <trkpt lat="49.51154" lon="3.51838">
        <ele>144.7</ele>
        <time>2015-02-02T13:20:08.655Z</time>
      </trkpt>
      <trkpt lat="49.51161" lon="3.5183">
        <ele>144.3</ele>
        <time>2015-02-02T13:20:16.611Z</time>
      </trkpt>
      <trkpt lat="49.51162" lon="3.51829">
        <ele>144.3</ele>
        <time>2015-02-02T13:20:17.614Z</time>
      </trkpt>
      <trkpt lat="49.5117" lon="3.51825">
        <ele>143.3</ele>
        <time>2015-02-02T13:20:27.676Z</time>
      </trkpt>
      <trkpt lat="49.5117" lon="3.51825">
        <ele>143.3</ele>
        <time>2015-02-02T13:20:28.683Z</time>
      </trkpt>
      <trkpt lat="49.51175" lon="3.51814">
        <ele>142.9</ele>
        <time>2015-02-02T13:20:35.631Z</time>
      </trkpt>
      <trkpt lat="49.51176" lon="3.51813">
        <ele>142.7</ele>
        <time>2015-02-02T13:20:36.630Z</time>
      </trkpt>
      <trkpt lat="49.51181" lon="3.51802">
        <ele>142.3</ele>
        <time>2015-02-02T13:20:44.623Z</time>
      </trkpt>
      <trkpt lat="49.51182" lon="3.51801">
        <ele>142.3</ele>
        <time>2015-02-02T13:20:45.619Z</time>
      </trkpt>
      <trkpt lat="49.51185" lon="3.51789">
        <ele>142.2</ele>
        <time>2015-02-02T13:20:52.688Z</time>
      </trkpt>
      <trkpt lat="49.51186" lon="3.51787">
        <ele>142.2</ele>
        <time>2015-02-02T13:20:53.705Z</time>
      </trkpt>
      <trkpt lat="49.51187" lon="3.51774">
        <ele>142.5</ele>
        <time>2015-02-02T13:20:59.639Z</time>
      </trkpt>
      <trkpt lat="49.51187" lon="3.51772">
        <ele>142.6</ele>
        <time>2015-02-02T13:21:00.658Z</time>
      </trkpt>
      <trkpt lat="49.51188" lon="3.51759">
        <ele>142.3</ele>
        <time>2015-02-02T13:21:07.713Z</time>
      </trkpt>
      <trkpt lat="49.51188" lon="3.51755">
        <ele>142.2</ele>
        <time>2015-02-02T13:21:08.616Z</time>
      </trkpt>
      <trkpt lat="49.51188" lon="3.51743">
        <ele>142.1</ele>
        <time>2015-02-02T13:21:12.617Z</time>
      </trkpt>
      <trkpt lat="49.51188" lon="3.5174">
        <ele>142.1</ele>
        <time>2015-02-02T13:21:13.665Z</time>
      </trkpt>
      <trkpt lat="49.51187" lon="3.51727">
        <ele>142.6</ele>
        <time>2015-02-02T13:21:20.619Z</time>
      </trkpt>
      <trkpt lat="49.51187" lon="3.51725">
        <ele>142.7</ele>
        <time>2015-02-02T13:21:21.619Z</time>
      </trkpt>
      <trkpt lat="49.51186" lon="3.51712">
        <ele>142.9</ele>
        <time>2015-02-02T13:21:29.544Z</time>
      </trkpt>
      <trkpt lat="49.51186" lon="3.51709">
        <ele>142.9</ele>
        <time>2015-02-02T13:21:29.694Z</time>
      </trkpt>
      <trkpt lat="49.51185" lon="3.51697">
        <ele>143.2</ele>
        <time>2015-02-02T13:21:34.719Z</time>
      </trkpt>
      <trkpt lat="49.51185" lon="3.51695">
        <ele>143.3</ele>
        <time>2015-02-02T13:21:35.639Z</time>
      </trkpt>
      <trkpt lat="49.51183" lon="3.51683">
        <ele>143.1</ele>
        <time>2015-02-02T13:21:40.688Z</time>
      </trkpt>
      <trkpt lat="49.51183" lon="3.51681">
        <ele>143.1</ele>
        <time>2015-02-02T13:21:41.701Z</time>
      </trkpt>
      <trkpt lat="49.51183" lon="3.51667">
        <ele>142.7</ele>
        <time>2015-02-02T13:21:47.621Z</time>
      </trkpt>
      <trkpt lat="49.51183" lon="3.51665">
        <ele>142.7</ele>
        <time>2015-02-02T13:21:48.628Z</time>
      </trkpt>
      <trkpt lat="49.51183" lon="3.51652">
        <ele>143</ele>
        <time>2015-02-02T13:21:54.621Z</time>
      </trkpt>
      <trkpt lat="49.51183" lon="3.5165">
        <ele>143.2</ele>
        <time>2015-02-02T13:21:55.723Z</time>
      </trkpt>
      <trkpt lat="49.51181" lon="3.51638">
        <ele>143.6</ele>
        <time>2015-02-02T13:22:02.685Z</time>
      </trkpt>
      <trkpt lat="49.51181" lon="3.51635">
        <ele>143.5</ele>
        <time>2015-02-02T13:22:03.704Z</time>
      </trkpt>
      <trkpt lat="49.51182" lon="3.51623">
        <ele>143.4</ele>
        <time>2015-02-02T13:22:09.684Z</time>
      </trkpt>
      <trkpt lat="49.51182" lon="3.51621">
        <ele>143.6</ele>
        <time>2015-02-02T13:22:10.690Z</time>
      </trkpt>
      <trkpt lat="49.51182" lon="3.51608">
        <ele>144</ele>
        <time>2015-02-02T13:22:16.628Z</time>
      </trkpt>
      <trkpt lat="49.51182" lon="3.51606">
        <ele>143.9</ele>
        <time>2015-02-02T13:22:17.636Z</time>
      </trkpt>
      <trkpt lat="49.51181" lon="3.51593">
        <ele>144.2</ele>
        <time>2015-02-02T13:22:22.698Z</time>
      </trkpt>
      <trkpt lat="49.51182" lon="3.5159">
        <ele>143.9</ele>
        <time>2015-02-02T13:22:23.708Z</time>
      </trkpt>
      <trkpt lat="49.51182" lon="3.51578">
        <ele>143</ele>
        <time>2015-02-02T13:22:27.693Z</time>
      </trkpt>
      <trkpt lat="49.51181" lon="3.51576">
        <ele>142.8</ele>
        <time>2015-02-02T13:22:28.703Z</time>
      </trkpt>
      <trkpt lat="49.51181" lon="3.51563">
        <ele>142.9</ele>
        <time>2015-02-02T13:22:35.640Z</time>
      </trkpt>
      <trkpt lat="49.51182" lon="3.51562">
        <ele>142.9</ele>
        <time>2015-02-02T13:22:36.676Z</time>
      </trkpt>
      <trkpt lat="49.51182" lon="3.51548">
        <ele>142.5</ele>
        <time>2015-02-02T13:22:43.233Z</time>
      </trkpt>
      <trkpt lat="49.51182" lon="3.51545">
        <ele>142.5</ele>
        <time>2015-02-02T13:22:43.721Z</time>
      </trkpt>
      <trkpt lat="49.51182" lon="3.51532">
        <ele>141.9</ele>
        <time>2015-02-02T13:22:50.677Z</time>
      </trkpt>
      <trkpt lat="49.51182" lon="3.5153">
        <ele>141.8</ele>
        <time>2015-02-02T13:22:51.688Z</time>
      </trkpt>
      <trkpt lat="49.51181" lon="3.51516">
        <ele>141.7</ele>
        <time>2015-02-02T13:22:58.629Z</time>
      </trkpt>
      <trkpt lat="49.51181" lon="3.51514">
        <ele>141.6</ele>
        <time>2015-02-02T13:22:59.636Z</time>
      </trkpt>
      <trkpt lat="49.51181" lon="3.51501">
        <ele>141.6</ele>
        <time>2015-02-02T13:23:06.655Z</time>
      </trkpt>
      <trkpt lat="49.51181" lon="3.51499">
        <ele>141.7</ele>
        <time>2015-02-02T13:23:07.673Z</time>
      </trkpt>
      <trkpt lat="49.5118" lon="3.51485">
        <ele>141.9</ele>
        <time>2015-02-02T13:23:14.678Z</time>
      </trkpt>
      <trkpt lat="49.5118" lon="3.51484">
        <ele>141.9</ele>
        <time>2015-02-02T13:23:15.701Z</time>
      </trkpt>
      <trkpt lat="49.5118" lon="3.51471">
        <ele>141.8</ele>
        <time>2015-02-02T13:23:22.632Z</time>
      </trkpt>
      <trkpt lat="49.5118" lon="3.51469">
        <ele>141.7</ele>
        <time>2015-02-02T13:23:23.646Z</time>
      </trkpt>
      <trkpt lat="49.51178" lon="3.51457">
        <ele>142</ele>
        <time>2015-02-02T13:23:32.616Z</time>
      </trkpt>
      <trkpt lat="49.51178" lon="3.51455">
        <ele>142</ele>
        <time>2015-02-02T13:23:33.613Z</time>
      </trkpt>
      <trkpt lat="49.51178" lon="3.51443">
        <ele>142.6</ele>
        <time>2015-02-02T13:23:39.693Z</time>
      </trkpt>
      <trkpt lat="49.51179" lon="3.51441">
        <ele>142.7</ele>
        <time>2015-02-02T13:23:40.697Z</time>
      </trkpt>
      <trkpt lat="49.51178" lon="3.51428">
        <ele>142.7</ele>
        <time>2015-02-02T13:23:48.215Z</time>
      </trkpt>
      <trkpt lat="49.51178" lon="3.51425">
        <ele>142.7</ele>
        <time>2015-02-02T13:23:48.681Z</time>
      </trkpt>
      <trkpt lat="49.51177" lon="3.51412">
        <ele>143.1</ele>
        <time>2015-02-02T13:23:55.676Z</time>
      </trkpt>
      <trkpt lat="49.51177" lon="3.5141">
        <ele>143.3</ele>
        <time>2015-02-02T13:23:56.682Z</time>
      </trkpt>
      <trkpt lat="49.51177" lon="3.51396">
        <ele>143.9</ele>
        <time>2015-02-02T13:24:03.334Z</time>
      </trkpt>
      <trkpt lat="49.51177" lon="3.51395">
        <ele>144.1</ele>
        <time>2015-02-02T13:24:03.624Z</time>
      </trkpt>
      <trkpt lat="49.51178" lon="3.51381">
        <ele>144.9</ele>
        <time>2015-02-02T13:24:10.704Z</time>
      </trkpt>
      <trkpt lat="49.51178" lon="3.5138">
        <ele>145</ele>
        <time>2015-02-02T13:24:11.706Z</time>
      </trkpt>
      <trkpt lat="49.51179" lon="3.51367">
        <ele>145.4</ele>
        <time>2015-02-02T13:24:18.648Z</time>
      </trkpt>
      <trkpt lat="49.51179" lon="3.51367">
        <ele>145.4</ele>
        <time>2015-02-02T13:24:19.688Z</time>
      </trkpt>
      <trkpt lat="49.51179" lon="3.51366">
        <ele>145.5</ele>
        <time>2015-02-02T13:24:20.692Z</time>
      </trkpt>
      <trkpt lat="49.51181" lon="3.51353">
        <ele>145.1</ele>
        <time>2015-02-02T13:24:28.596Z</time>
      </trkpt>
      <trkpt lat="49.51181" lon="3.51351">
        <ele>145.2</ele>
        <time>2015-02-02T13:24:29.719Z</time>
      </trkpt>
      <trkpt lat="49.51184" lon="3.51339">
        <ele>145.1</ele>
        <time>2015-02-02T13:24:36.661Z</time>
      </trkpt>
      <trkpt lat="49.51185" lon="3.51337">
        <ele>145.2</ele>
        <time>2015-02-02T13:24:37.689Z</time>
      </trkpt>
      <trkpt lat="49.51189" lon="3.51325">
        <ele>145.1</ele>
        <time>2015-02-02T13:24:43.721Z</time>
      </trkpt>
      <trkpt lat="49.5119" lon="3.51323">
        <ele>145.2</ele>
        <time>2015-02-02T13:24:44.634Z</time>
      </trkpt>
      <trkpt lat="49.51195" lon="3.51312">
        <ele>145.3</ele>
        <time>2015-02-02T13:24:53.286Z</time>
      </trkpt>
      <trkpt lat="49.51195" lon="3.5131">
        <ele>145.2</ele>
        <time>2015-02-02T13:24:53.640Z</time>
      </trkpt>
      <trkpt lat="49.51198" lon="3.51297">
        <ele>145.4</ele>
        <time>2015-02-02T13:25:03.677Z</time>
      </trkpt>
      <trkpt lat="49.51198" lon="3.51295">
        <ele>145.3</ele>
        <time>2015-02-02T13:25:04.646Z</time>
      </trkpt>
      <trkpt lat="49.51202" lon="3.51288">
        <ele>145.8</ele>
        <time>2015-02-02T13:25:09.695Z</time>
      </trkpt>
      <trkpt lat="49.51202" lon="3.51288">
        <ele>145.9</ele>
        <time>2015-02-02T13:25:10.712Z</time>
      </trkpt>
      <trkpt lat="49.51202" lon="3.51287">
        <ele>145.9</ele>
        <time>2015-02-02T13:25:11.718Z</time>
      </trkpt>
      <trkpt lat="49.51203" lon="3.51286">
        <ele>146</ele>
        <time>2015-02-02T13:25:12.634Z</time>
      </trkpt>
      <trkpt lat="49.51207" lon="3.51277">
        <ele>146.1</ele>
        <time>2015-02-02T13:25:19.689Z</time>
      </trkpt>
      <trkpt lat="49.51208" lon="3.51275">
        <ele>146.1</ele>
        <time>2015-02-02T13:25:20.684Z</time>
      </trkpt>
      <trkpt lat="49.51211" lon="3.51262">
        <ele>146.6</ele>
        <time>2015-02-02T13:25:27.635Z</time>
      </trkpt>
      <trkpt lat="49.51212" lon="3.5126">
        <ele>146.5</ele>
        <time>2015-02-02T13:25:28.637Z</time>
      </trkpt>
      <trkpt lat="49.51216" lon="3.51249">
        <ele>146.7</ele>
        <time>2015-02-02T13:25:34.639Z</time>
      </trkpt>
      <trkpt lat="49.51216" lon="3.51246">
        <ele>146.8</ele>
        <time>2015-02-02T13:25:35.631Z</time>
      </trkpt>
      <trkpt lat="49.51218" lon="3.51234">
        <ele>148.3</ele>
        <time>2015-02-02T13:25:40.706Z</time>
      </trkpt>
      <trkpt lat="49.51219" lon="3.51232">
        <ele>148.3</ele>
        <time>2015-02-02T13:25:41.622Z</time>
      </trkpt>
      <trkpt lat="49.51223" lon="3.5122">
        <ele>147.9</ele>
        <time>2015-02-02T13:25:48.634Z</time>
      </trkpt>
      <trkpt lat="49.51224" lon="3.51219">
        <ele>147.9</ele>
        <time>2015-02-02T13:25:49.680Z</time>
      </trkpt>
      <trkpt lat="49.51229" lon="3.51208">
        <ele>148</ele>
        <time>2015-02-02T13:25:55.679Z</time>
      </trkpt>
      <trkpt lat="49.5123" lon="3.51206">
        <ele>148.1</ele>
        <time>2015-02-02T13:25:56.683Z</time>
      </trkpt>
      <trkpt lat="49.51235" lon="3.51197">
        <ele>148</ele>
        <time>2015-02-02T13:26:02.606Z</time>
      </trkpt>
      <trkpt lat="49.51236" lon="3.51196">
        <ele>147.8</ele>
        <time>2015-02-02T13:26:03.608Z</time>
      </trkpt>
      <trkpt lat="49.51241" lon="3.51185">
        <ele>147.7</ele>
        <time>2015-02-02T13:26:09.672Z</time>
      </trkpt>
      <trkpt lat="49.51242" lon="3.51184">
        <ele>147.7</ele>
        <time>2015-02-02T13:26:10.676Z</time>
      </trkpt>
      <trkpt lat="49.51248" lon="3.51174">
        <ele>149.6</ele>
        <time>2015-02-02T13:26:19.120Z</time>
      </trkpt>
      <trkpt lat="49.51248" lon="3.51173">
        <ele>149.8</ele>
        <time>2015-02-02T13:26:19.685Z</time>
      </trkpt>
      <trkpt lat="49.51253" lon="3.51162">
        <ele>151</ele>
        <time>2015-02-02T13:26:25.708Z</time>
      </trkpt>
      <trkpt lat="49.51254" lon="3.5116">
        <ele>151.3</ele>
        <time>2015-02-02T13:26:26.627Z</time>
      </trkpt>
      <trkpt lat="49.5126" lon="3.51151">
        <ele>151.4</ele>
        <time>2015-02-02T13:26:32.620Z</time>
      </trkpt>
      <trkpt lat="49.51261" lon="3.5115">
        <ele>151.6</ele>
        <time>2015-02-02T13:26:33.613Z</time>
      </trkpt>
      <trkpt lat="49.51269" lon="3.51144">
        <ele>152.8</ele>
        <time>2015-02-02T13:26:39.688Z</time>
      </trkpt>
      <trkpt lat="49.5127" lon="3.51143">
        <ele>153.3</ele>
        <time>2015-02-02T13:26:40.710Z</time>
      </trkpt>
      <trkpt lat="49.51276" lon="3.51134">
        <ele>154.1</ele>
        <time>2015-02-02T13:26:48.202Z</time>
      </trkpt>
      <trkpt lat="49.51277" lon="3.51133">
        <ele>154.1</ele>
        <time>2015-02-02T13:26:48.644Z</time>
      </trkpt>
      <trkpt lat="49.51283" lon="3.51124">
        <ele>154.6</ele>
        <time>2015-02-02T13:26:58.634Z</time>
      </trkpt>
      <trkpt lat="49.51284" lon="3.51123">
        <ele>154.6</ele>
        <time>2015-02-02T13:26:59.625Z</time>
      </trkpt>
      <trkpt lat="49.51291" lon="3.51116">
        <ele>155.1</ele>
        <time>2015-02-02T13:27:08.575Z</time>
      </trkpt>
      <trkpt lat="49.51292" lon="3.51115">
        <ele>155.3</ele>
        <time>2015-02-02T13:27:08.670Z</time>
      </trkpt>
      <trkpt lat="49.51296" lon="3.51107">
        <ele>154.9</ele>
        <time>2015-02-02T13:27:20.669Z</time>
      </trkpt>
      <trkpt lat="49.51296" lon="3.51106">
        <ele>154.8</ele>
        <time>2015-02-02T13:27:21.680Z</time>
      </trkpt>
      <trkpt lat="49.51296" lon="3.51105">
        <ele>154.8</ele>
        <time>2015-02-02T13:27:22.693Z</time>
      </trkpt>
      <trkpt lat="49.51295" lon="3.51103">
        <ele>154.6</ele>
        <time>2015-02-02T13:27:24.616Z</time>
      </trkpt>
      <trkpt lat="49.51295" lon="3.51102">
        <ele>154.5</ele>
        <time>2015-02-02T13:27:25.725Z</time>
      </trkpt>
      <trkpt lat="49.51296" lon="3.511">
        <ele>154.4</ele>
        <time>2015-02-02T13:27:26.617Z</time>
      </trkpt>
      <trkpt lat="49.51296" lon="3.51097">
        <ele>154.3</ele>
        <time>2015-02-02T13:27:28.638Z</time>
      </trkpt>
      <trkpt lat="49.51296" lon="3.51097">
        <ele>154.2</ele>
        <time>2015-02-02T13:27:29.657Z</time>
      </trkpt>
      <trkpt lat="49.51296" lon="3.51096">
        <ele>154.1</ele>
        <time>2015-02-02T13:27:30.667Z</time>
      </trkpt>
      <trkpt lat="49.51295" lon="3.51095">
        <ele>154</ele>
        <time>2015-02-02T13:27:31.701Z</time>
      </trkpt>
      <trkpt lat="49.51291" lon="3.51084">
        <ele>153.7</ele>
        <time>2015-02-02T13:27:38.655Z</time>
      </trkpt>
      <trkpt lat="49.51291" lon="3.51082">
        <ele>153.6</ele>
        <time>2015-02-02T13:27:39.673Z</time>
      </trkpt>
      <trkpt lat="49.51288" lon="3.51076">
        <ele>153.3</ele>
        <time>2015-02-02T13:27:43.704Z</time>
      </trkpt>
      <trkpt lat="49.51288" lon="3.51075">
        <ele>153.3</ele>
        <time>2015-02-02T13:27:44.608Z</time>
      </trkpt>
      <trkpt lat="49.51288" lon="3.51074">
        <ele>153.2</ele>
        <time>2015-02-02T13:27:45.606Z</time>
      </trkpt>
      <trkpt lat="49.51287" lon="3.51061">
        <ele>153.1</ele>
        <time>2015-02-02T13:27:53.383Z</time>
      </trkpt>
      <trkpt lat="49.51286" lon="3.5106">
        <ele>153.1</ele>
        <time>2015-02-02T13:27:53.673Z</time>
      </trkpt>
      <trkpt lat="49.51285" lon="3.51057">
        <ele>153.2</ele>
        <time>2015-02-02T13:27:56.686Z</time>
      </trkpt>
      <trkpt lat="49.51286" lon="3.51056">
        <ele>153.2</ele>
        <time>2015-02-02T13:27:57.692Z</time>
      </trkpt>
      <trkpt lat="49.51286" lon="3.51056">
        <ele>153.2</ele>
        <time>2015-02-02T13:27:58.567Z</time>
      </trkpt>
      <trkpt lat="49.51286" lon="3.51054">
        <ele>153.2</ele>
        <time>2015-02-02T13:27:58.620Z</time>
      </trkpt>
      <trkpt lat="49.51285" lon="3.51042">
        <ele>153.2</ele>
        <time>2015-02-02T13:28:03.680Z</time>
      </trkpt>
      <trkpt lat="49.51285" lon="3.5104">
        <ele>153.1</ele>
        <time>2015-02-02T13:28:04.595Z</time>
      </trkpt>
      <trkpt lat="49.51282" lon="3.51027">
        <ele>152.3</ele>
        <time>2015-02-02T13:28:10.731Z</time>
      </trkpt>
      <trkpt lat="49.51281" lon="3.51025">
        <ele>152.1</ele>
        <time>2015-02-02T13:28:11.611Z</time>
      </trkpt>
      <trkpt lat="49.51277" lon="3.51015">
        <ele>150.5</ele>
        <time>2015-02-02T13:28:17.621Z</time>
      </trkpt>
      <trkpt lat="49.51276" lon="3.51013">
        <ele>150.3</ele>
        <time>2015-02-02T13:28:18.626Z</time>
      </trkpt>
      <trkpt lat="49.51273" lon="3.51002">
        <ele>149.6</ele>
        <time>2015-02-02T13:28:25.704Z</time>
      </trkpt>
      <trkpt lat="49.51272" lon="3.51002">
        <ele>149.4</ele>
        <time>2015-02-02T13:28:26.723Z</time>
      </trkpt>
      <trkpt lat="49.51272" lon="3.51">
        <ele>149.4</ele>
        <time>2015-02-02T13:28:27.627Z</time>
      </trkpt>
      <trkpt lat="49.51275" lon="3.50992">
        <ele>149.2</ele>
        <time>2015-02-02T13:28:32.693Z</time>
      </trkpt>
      <trkpt lat="49.51276" lon="3.50988">
        <ele>150.5</ele>
        <time>2015-02-02T13:28:33.589Z</time>
      </trkpt>
      <trkpt lat="49.51282" lon="3.50979">
        <ele>151.7</ele>
        <time>2015-02-02T13:28:39.649Z</time>
      </trkpt>
      <trkpt lat="49.51283" lon="3.50978">
        <ele>151.7</ele>
        <time>2015-02-02T13:28:40.651Z</time>
      </trkpt>
      <trkpt lat="49.51292" lon="3.50974">
        <ele>151.4</ele>
        <time>2015-02-02T13:28:46.695Z</time>
      </trkpt>
      <trkpt lat="49.51293" lon="3.50974">
        <ele>151.4</ele>
        <time>2015-02-02T13:28:47.602Z</time>
      </trkpt>
      <trkpt lat="49.51301" lon="3.50977">
        <ele>149.4</ele>
        <time>2015-02-02T13:28:54.610Z</time>
      </trkpt>
      <trkpt lat="49.51302" lon="3.50977">
        <ele>149.1</ele>
        <time>2015-02-02T13:28:55.723Z</time>
      </trkpt>
      <trkpt lat="49.51307" lon="3.50979">
        <ele>148.9</ele>
        <time>2015-02-02T13:29:03.693Z</time>
      </trkpt>
      <trkpt lat="49.51307" lon="3.50979">
        <ele>148.8</ele>
        <time>2015-02-02T13:29:04.592Z</time>
      </trkpt>
      <trkpt lat="49.51307" lon="3.5098">
        <ele>148.9</ele>
        <time>2015-02-02T13:29:05.600Z</time>
      </trkpt>
      <trkpt lat="49.51308" lon="3.5098">
        <ele>149</ele>
        <time>2015-02-02T13:29:06.676Z</time>
      </trkpt>
      <trkpt lat="49.51316" lon="3.50985">
        <ele>148.8</ele>
        <time>2015-02-02T13:29:15.617Z</time>
      </trkpt>
      <trkpt lat="49.51318" lon="3.50986">
        <ele>148.6</ele>
        <time>2015-02-02T13:29:16.626Z</time>
      </trkpt>
      <trkpt lat="49.51325" lon="3.50991">
        <ele>148.7</ele>
        <time>2015-02-02T13:29:22.619Z</time>
      </trkpt>
      <trkpt lat="49.51326" lon="3.50992">
        <ele>148.7</ele>
        <time>2015-02-02T13:29:23.616Z</time>
      </trkpt>
      <trkpt lat="49.51335" lon="3.50995">
        <ele>148.8</ele>
        <time>2015-02-02T13:29:31.639Z</time>
      </trkpt>
      <trkpt lat="49.51336" lon="3.50995">
        <ele>148.7</ele>
        <time>2015-02-02T13:29:32.590Z</time>
      </trkpt>
      <trkpt lat="49.51345" lon="3.50993">
        <ele>148.3</ele>
        <time>2015-02-02T13:29:39.604Z</time>
      </trkpt>
      <trkpt lat="49.51346" lon="3.50993">
        <ele>148.3</ele>
        <time>2015-02-02T13:29:40.606Z</time>
      </trkpt>
      <trkpt lat="49.51354" lon="3.50988">
        <ele>148.2</ele>
        <time>2015-02-02T13:29:47.674Z</time>
      </trkpt>
      <trkpt lat="49.51356" lon="3.50986">
        <ele>148.2</ele>
        <time>2015-02-02T13:29:48.682Z</time>
      </trkpt>
      <trkpt lat="49.51363" lon="3.5098">
        <ele>149.1</ele>
        <time>2015-02-02T13:29:56.670Z</time>
      </trkpt>
      <trkpt lat="49.51365" lon="3.50979">
        <ele>149.2</ele>
        <time>2015-02-02T13:29:57.670Z</time>
      </trkpt>
      <trkpt lat="49.51373" lon="3.50974">
        <ele>150.4</ele>
        <time>2015-02-02T13:30:04.098Z</time>
      </trkpt>
      <trkpt lat="49.51374" lon="3.50973">
        <ele>150.8</ele>
        <time>2015-02-02T13:30:04.610Z</time>
      </trkpt>
      <trkpt lat="49.51382" lon="3.50967">
        <ele>151.6</ele>
        <time>2015-02-02T13:30:10.680Z</time>
      </trkpt>
      <trkpt lat="49.51382" lon="3.50966">
        <ele>151.7</ele>
        <time>2015-02-02T13:30:11.696Z</time>
      </trkpt>
      <trkpt lat="49.51389" lon="3.50958">
        <ele>151.9</ele>
        <time>2015-02-02T13:30:19.670Z</time>
      </trkpt>
      <trkpt lat="49.51391" lon="3.50958">
        <ele>151.8</ele>
        <time>2015-02-02T13:30:20.674Z</time>
      </trkpt>
      <trkpt lat="49.51398" lon="3.50952">
        <ele>151.7</ele>
        <time>2015-02-02T13:30:26.671Z</time>
      </trkpt>
      <trkpt lat="49.51399" lon="3.50952">
        <ele>151.7</ele>
        <time>2015-02-02T13:30:27.684Z</time>
      </trkpt>
      <trkpt lat="49.51408" lon="3.50948">
        <ele>151.4</ele>
        <time>2015-02-02T13:30:33.614Z</time>
      </trkpt>
      <trkpt lat="49.51409" lon="3.50948">
        <ele>151.3</ele>
        <time>2015-02-02T13:30:34.628Z</time>
      </trkpt>
      <trkpt lat="49.51417" lon="3.50945">
        <ele>151.7</ele>
        <time>2015-02-02T13:30:41.701Z</time>
      </trkpt>
      <trkpt lat="49.51419" lon="3.50945">
        <ele>151.8</ele>
        <time>2015-02-02T13:30:42.707Z</time>
      </trkpt>
      <trkpt lat="49.51427" lon="3.50943">
        <ele>152.4</ele>
        <time>2015-02-02T13:30:48.640Z</time>
      </trkpt>
      <trkpt lat="49.51429" lon="3.50943">
        <ele>152.5</ele>
        <time>2015-02-02T13:30:49.665Z</time>
      </trkpt>
      <trkpt lat="49.51437" lon="3.50941">
        <ele>152.6</ele>
        <time>2015-02-02T13:30:55.666Z</time>
      </trkpt>
      <trkpt lat="49.51438" lon="3.5094">
        <ele>152.6</ele>
        <time>2015-02-02T13:30:56.668Z</time>
      </trkpt>
      <trkpt lat="49.51445" lon="3.50936">
        <ele>152.8</ele>
        <time>2015-02-02T13:31:07.668Z</time>
      </trkpt>
      <trkpt lat="49.51446" lon="3.50935">
        <ele>153</ele>
        <time>2015-02-02T13:31:08.662Z</time>
      </trkpt>
      <trkpt lat="49.51454" lon="3.50929">
        <ele>153.2</ele>
        <time>2015-02-02T13:31:16.615Z</time>
      </trkpt>
      <trkpt lat="49.51454" lon="3.50929">
        <ele>153.3</ele>
        <time>2015-02-02T13:31:17.617Z</time>
      </trkpt>
      <trkpt lat="49.51463" lon="3.50924">
        <ele>153.7</ele>
        <time>2015-02-02T13:31:26.613Z</time>
      </trkpt>
      <trkpt lat="49.51464" lon="3.50924">
        <ele>153.8</ele>
        <time>2015-02-02T13:31:27.617Z</time>
      </trkpt>
      <trkpt lat="49.51473" lon="3.50923">
        <ele>154.1</ele>
        <time>2015-02-02T13:31:34.685Z</time>
      </trkpt>
      <trkpt lat="49.51473" lon="3.50923">
        <ele>154.2</ele>
        <time>2015-02-02T13:31:35.698Z</time>
      </trkpt>
      <trkpt lat="49.51482" lon="3.50921">
        <ele>154.2</ele>
        <time>2015-02-02T13:31:43.662Z</time>
      </trkpt>
      <trkpt lat="49.51483" lon="3.50922">
        <ele>154.2</ele>
        <time>2015-02-02T13:31:44.659Z</time>
      </trkpt>
      <trkpt lat="49.5149" lon="3.50926">
        <ele>154.6</ele>
        <time>2015-02-02T13:31:48.696Z</time>
      </trkpt>
      <trkpt lat="49.51492" lon="3.50927">
        <ele>154.5</ele>
        <time>2015-02-02T13:31:49.707Z</time>
      </trkpt>
      <trkpt lat="49.515" lon="3.50931">
        <ele>154.5</ele>
        <time>2015-02-02T13:31:56.684Z</time>
      </trkpt>
      <trkpt lat="49.51501" lon="3.50932">
        <ele>154.6</ele>
        <time>2015-02-02T13:31:57.696Z</time>
      </trkpt>
      <trkpt lat="49.51509" lon="3.50936">
        <ele>155</ele>
        <time>2015-02-02T13:32:03.676Z</time>
      </trkpt>
      <trkpt lat="49.5151" lon="3.50938">
        <ele>155</ele>
        <time>2015-02-02T13:32:04.681Z</time>
      </trkpt>
      <trkpt lat="49.51517" lon="3.5094">
        <ele>155.3</ele>
        <time>2015-02-02T13:32:10.633Z</time>
      </trkpt>
      <trkpt lat="49.51517" lon="3.5094">
        <ele>155.3</ele>
        <time>2015-02-02T13:32:11.637Z</time>
      </trkpt>
      <trkpt lat="49.51517" lon="3.5094">
        <ele>155.4</ele>
        <time>2015-02-02T13:32:12.643Z</time>
      </trkpt>
      <trkpt lat="49.51526" lon="3.50942">
        <ele>155.1</ele>
        <time>2015-02-02T13:32:20.615Z</time>
      </trkpt>
      <trkpt lat="49.51527" lon="3.50942">
        <ele>155</ele>
        <time>2015-02-02T13:32:21.620Z</time>
      </trkpt>
      <trkpt lat="49.51535" lon="3.50942">
        <ele>154.8</ele>
        <time>2015-02-02T13:32:27.660Z</time>
      </trkpt>
      <trkpt lat="49.51537" lon="3.50943">
        <ele>154.8</ele>
        <time>2015-02-02T13:32:28.668Z</time>
      </trkpt>
      <trkpt lat="49.51544" lon="3.50941">
        <ele>153.9</ele>
        <time>2015-02-02T13:32:39.639Z</time>
      </trkpt>
      <trkpt lat="49.51546" lon="3.50941">
        <ele>153.9</ele>
        <time>2015-02-02T13:32:40.646Z</time>
      </trkpt>
      <trkpt lat="49.51553" lon="3.50937">
        <ele>154.5</ele>
        <time>2015-02-02T13:32:48.605Z</time>
      </trkpt>
      <trkpt lat="49.51555" lon="3.50936">
        <ele>154.3</ele>
        <time>2015-02-02T13:32:49.649Z</time>
      </trkpt>
      <trkpt lat="49.51563" lon="3.50931">
        <ele>155</ele>
        <time>2015-02-02T13:32:57.621Z</time>
      </trkpt>
      <trkpt lat="49.51564" lon="3.50929">
        <ele>154.9</ele>
        <time>2015-02-02T13:32:58.604Z</time>
      </trkpt>
      <trkpt lat="49.51571" lon="3.5092">
        <ele>153.4</ele>
        <time>2015-02-02T13:33:05.613Z</time>
      </trkpt>
      <trkpt lat="49.51571" lon="3.50918">
        <ele>153.5</ele>
        <time>2015-02-02T13:33:06.615Z</time>
      </trkpt>
      <trkpt lat="49.51572" lon="3.50915">
        <ele>153.6</ele>
        <time>2015-02-02T13:33:09.669Z</time>
      </trkpt>
      <trkpt lat="49.51573" lon="3.50915">
        <ele>153.7</ele>
        <time>2015-02-02T13:33:10.679Z</time>
      </trkpt>
      <trkpt lat="49.51573" lon="3.50915">
        <ele>154</ele>
        <time>2015-02-02T13:33:14.617Z</time>
      </trkpt>
      <trkpt lat="49.51575" lon="3.50917">
        <ele>153.8</ele>
        <time>2015-02-02T13:33:15.624Z</time>
      </trkpt>
      <trkpt lat="49.51582" lon="3.50922">
        <ele>152.6</ele>
        <time>2015-02-02T13:33:24.621Z</time>
      </trkpt>
      <trkpt lat="49.51583" lon="3.50922">
        <ele>152.5</ele>
        <time>2015-02-02T13:33:25.653Z</time>
      </trkpt>
      <trkpt lat="49.51591" lon="3.50926">
        <ele>152.2</ele>
        <time>2015-02-02T13:33:32.677Z</time>
      </trkpt>
      <trkpt lat="49.51592" lon="3.50926">
        <ele>151.8</ele>
        <time>2015-02-02T13:33:33.682Z</time>
      </trkpt>
      <trkpt lat="49.51599" lon="3.5093">
        <ele>151.6</ele>
        <time>2015-02-02T13:33:38.630Z</time>
      </trkpt>
      <trkpt lat="49.51601" lon="3.5093">
        <ele>151.7</ele>
        <time>2015-02-02T13:33:39.637Z</time>
      </trkpt>
      <trkpt lat="49.5161" lon="3.50932">
        <ele>151</ele>
        <time>2015-02-02T13:33:45.693Z</time>
      </trkpt>
      <trkpt lat="49.51611" lon="3.50932">
        <ele>150.8</ele>
        <time>2015-02-02T13:33:46.700Z</time>
      </trkpt>
      <trkpt lat="49.51618" lon="3.50931">
        <ele>149</ele>
        <time>2015-02-02T13:33:49.663Z</time>
      </trkpt>
      <trkpt lat="49.5162" lon="3.5093">
        <ele>148.3</ele>
        <time>2015-02-02T13:33:50.668Z</time>
      </trkpt>
      <trkpt lat="49.51628" lon="3.50925">
        <ele>148.4</ele>
        <time>2015-02-02T13:33:58.803Z</time>
      </trkpt>
      <trkpt lat="49.51629" lon="3.50924">
        <ele>148.5</ele>
        <time>2015-02-02T13:33:59.639Z</time>
      </trkpt>
      <trkpt lat="49.51635" lon="3.50917">
        <ele>148.7</ele>
        <time>2015-02-02T13:34:08.860Z</time>
      </trkpt>
      <trkpt lat="49.51636" lon="3.50916">
        <ele>148.7</ele>
        <time>2015-02-02T13:34:09.615Z</time>
      </trkpt>
      <trkpt lat="49.51644" lon="3.50912">
        <ele>147.5</ele>
        <time>2015-02-02T13:34:18.923Z</time>
      </trkpt>
      <trkpt lat="49.51645" lon="3.50911">
        <ele>147.4</ele>
        <time>2015-02-02T13:34:19.696Z</time>
      </trkpt>
      <trkpt lat="49.51654" lon="3.50909">
        <ele>143.9</ele>
        <time>2015-02-02T13:34:24.623Z</time>
      </trkpt>
      <trkpt lat="49.51656" lon="3.50908">
        <ele>143.4</ele>
        <time>2015-02-02T13:34:25.661Z</time>
      </trkpt>
      <trkpt lat="49.51664" lon="3.50905">
        <ele>142.2</ele>
        <time>2015-02-02T13:34:34.073Z</time>
      </trkpt>
      <trkpt lat="49.51665" lon="3.50905">
        <ele>142.3</ele>
        <time>2015-02-02T13:34:34.628Z</time>
      </trkpt>
      <trkpt lat="49.51674" lon="3.50903">
        <ele>141</ele>
        <time>2015-02-02T13:34:40.665Z</time>
      </trkpt>
      <trkpt lat="49.51675" lon="3.50902">
        <ele>141.1</ele>
        <time>2015-02-02T13:34:41.677Z</time>
      </trkpt>
      <trkpt lat="49.51683" lon="3.50901">
        <ele>140.1</ele>
        <time>2015-02-02T13:34:48.252Z</time>
      </trkpt>
      <trkpt lat="49.51684" lon="3.509">
        <ele>140</ele>
        <time>2015-02-02T13:34:48.626Z</time>
      </trkpt>
      <trkpt lat="49.51692" lon="3.509">
        <ele>139.6</ele>
        <time>2015-02-02T13:34:54.684Z</time>
      </trkpt>
      <trkpt lat="49.51694" lon="3.509">
        <ele>139.5</ele>
        <time>2015-02-02T13:34:55.695Z</time>
      </trkpt>
      <trkpt lat="49.51702" lon="3.50898">
        <ele>139.3</ele>
        <time>2015-02-02T13:35:01.675Z</time>
      </trkpt>
      <trkpt lat="49.51704" lon="3.50897">
        <ele>139</ele>
        <time>2015-02-02T13:35:02.675Z</time>
      </trkpt>
      <trkpt lat="49.51711" lon="3.50895">
        <ele>138.6</ele>
        <time>2015-02-02T13:35:08.688Z</time>
      </trkpt>
      <trkpt lat="49.51712" lon="3.50895">
        <ele>138.6</ele>
        <time>2015-02-02T13:35:09.642Z</time>
      </trkpt>
      <trkpt lat="49.5172" lon="3.50891">
        <ele>138.5</ele>
        <time>2015-02-02T13:35:15.654Z</time>
      </trkpt>
      <trkpt lat="49.51721" lon="3.5089">
        <ele>138.3</ele>
        <time>2015-02-02T13:35:16.660Z</time>
      </trkpt>
      <trkpt lat="49.51728" lon="3.50885">
        <ele>138</ele>
        <time>2015-02-02T13:35:22.607Z</time>
      </trkpt>
      <trkpt lat="49.5173" lon="3.50884">
        <ele>138</ele>
        <time>2015-02-02T13:35:23.605Z</time>
      </trkpt>
      <trkpt lat="49.51738" lon="3.50881">
        <ele>138</ele>
        <time>2015-02-02T13:35:31.695Z</time>
      </trkpt>
      <trkpt lat="49.51739" lon="3.50881">
        <ele>138</ele>
        <time>2015-02-02T13:35:32.600Z</time>
      </trkpt>
      <trkpt lat="49.51747" lon="3.50877">
        <ele>137.5</ele>
        <time>2015-02-02T13:35:41.607Z</time>
      </trkpt>
      <trkpt lat="49.51748" lon="3.50876">
        <ele>137.3</ele>
        <time>2015-02-02T13:35:42.613Z</time>
      </trkpt>
      <trkpt lat="49.51755" lon="3.50871">
        <ele>137.4</ele>
        <time>2015-02-02T13:35:53.295Z</time>
      </trkpt>
      <trkpt lat="49.51756" lon="3.5087">
        <ele>137.5</ele>
        <time>2015-02-02T13:35:53.627Z</time>
      </trkpt>
      <trkpt lat="49.51764" lon="3.50864">
        <ele>137.6</ele>
        <time>2015-02-02T13:36:00.679Z</time>
      </trkpt>
      <trkpt lat="49.51765" lon="3.50863">
        <ele>137.6</ele>
        <time>2015-02-02T13:36:01.702Z</time>
      </trkpt>
      <trkpt lat="49.5177" lon="3.50853">
        <ele>137.9</ele>
        <time>2015-02-02T13:36:09.671Z</time>
      </trkpt>
      <trkpt lat="49.5177" lon="3.5085">
        <ele>138</ele>
        <time>2015-02-02T13:36:10.675Z</time>
      </trkpt>
      <trkpt lat="49.51774" lon="3.50838">
        <ele>137.4</ele>
        <time>2015-02-02T13:36:18.630Z</time>
      </trkpt>
      <trkpt lat="49.51774" lon="3.50838">
        <ele>137.3</ele>
        <time>2015-02-02T13:36:19.655Z</time>
      </trkpt>
      <trkpt lat="49.51778" lon="3.50828">
        <ele>137</ele>
        <time>2015-02-02T13:36:28.492Z</time>
      </trkpt>
      <trkpt lat="49.51778" lon="3.50828">
        <ele>137</ele>
        <time>2015-02-02T13:36:28.608Z</time>
      </trkpt>
      <trkpt lat="49.51778" lon="3.50827">
        <ele>136.9</ele>
        <time>2015-02-02T13:36:30.634Z</time>
      </trkpt>
      <trkpt lat="49.51778" lon="3.50825">
        <ele>137</ele>
        <time>2015-02-02T13:36:31.677Z</time>
      </trkpt>
      <trkpt lat="49.5178" lon="3.50814">
        <ele>137.1</ele>
        <time>2015-02-02T13:36:37.637Z</time>
      </trkpt>
      <trkpt lat="49.5178" lon="3.50811">
        <ele>137</ele>
        <time>2015-02-02T13:36:38.639Z</time>
      </trkpt>
      <trkpt lat="49.5178" lon="3.50798">
        <ele>136.1</ele>
        <time>2015-02-02T13:36:45.668Z</time>
      </trkpt>
      <trkpt lat="49.5178" lon="3.50797">
        <ele>136</ele>
        <time>2015-02-02T13:36:46.671Z</time>
      </trkpt>
      <trkpt lat="49.51781" lon="3.50783">
        <ele>135.1</ele>
        <time>2015-02-02T13:36:55.651Z</time>
      </trkpt>
      <trkpt lat="49.51781" lon="3.50782">
        <ele>135</ele>
        <time>2015-02-02T13:36:56.651Z</time>
      </trkpt>
      <trkpt lat="49.51781" lon="3.50768">
        <ele>134.2</ele>
        <time>2015-02-02T13:37:03.696Z</time>
      </trkpt>
      <trkpt lat="49.51782" lon="3.50766">
        <ele>134.3</ele>
        <time>2015-02-02T13:37:04.604Z</time>
      </trkpt>
      <trkpt lat="49.51784" lon="3.50753">
        <ele>134.2</ele>
        <time>2015-02-02T13:37:11.682Z</time>
      </trkpt>
      <trkpt lat="49.51785" lon="3.50752">
        <ele>134</ele>
        <time>2015-02-02T13:37:12.690Z</time>
      </trkpt>
      <trkpt lat="49.51788" lon="3.5074">
        <ele>134.7</ele>
        <time>2015-02-02T13:37:20.682Z</time>
      </trkpt>
      <trkpt lat="49.51788" lon="3.50737">
        <ele>134.3</ele>
        <time>2015-02-02T13:37:21.627Z</time>
      </trkpt>
      <trkpt lat="49.5179" lon="3.50724">
        <ele>133.7</ele>
        <time>2015-02-02T13:37:29.602Z</time>
      </trkpt>
      <trkpt lat="49.51791" lon="3.50723">
        <ele>133.7</ele>
        <time>2015-02-02T13:37:30.622Z</time>
      </trkpt>
      <trkpt lat="49.51795" lon="3.50712">
        <ele>134.2</ele>
        <time>2015-02-02T13:37:38.403Z</time>
      </trkpt>
      <trkpt lat="49.51796" lon="3.5071">
        <ele>134.3</ele>
        <time>2015-02-02T13:37:39.408Z</time>
      </trkpt>
      <trkpt lat="49.51798" lon="3.50698">
        <ele>133.8</ele>
        <time>2015-02-02T13:37:44.391Z</time>
      </trkpt>
      <trkpt lat="49.51799" lon="3.50696">
        <ele>133.6</ele>
        <time>2015-02-02T13:37:45.529Z</time>
      </trkpt>
      <trkpt lat="49.51801" lon="3.50684">
        <ele>133.1</ele>
        <time>2015-02-02T13:37:50.331Z</time>
      </trkpt>
      <trkpt lat="49.51802" lon="3.50682">
        <ele>133.1</ele>
        <time>2015-02-02T13:37:50.378Z</time>
      </trkpt>
      <trkpt lat="49.51804" lon="3.50669">
        <ele>133.8</ele>
        <time>2015-02-02T13:37:58.458Z</time>
      </trkpt>
      <trkpt lat="49.51805" lon="3.50668">
        <ele>133.8</ele>
        <time>2015-02-02T13:37:59.445Z</time>
      </trkpt>
      <trkpt lat="49.51808" lon="3.50656">
        <ele>134.8</ele>
        <time>2015-02-02T13:38:08.394Z</time>
      </trkpt>
      <trkpt lat="49.51808" lon="3.50654">
        <ele>134.9</ele>
        <time>2015-02-02T13:38:09.410Z</time>
      </trkpt>
      <trkpt lat="49.51812" lon="3.50643">
        <ele>135.8</ele>
        <time>2015-02-02T13:38:17.364Z</time>
      </trkpt>
      <trkpt lat="49.51812" lon="3.50641">
        <ele>135.7</ele>
        <time>2015-02-02T13:38:18.371Z</time>
      </trkpt>
      <trkpt lat="49.51813" lon="3.50627">
        <ele>135.3</ele>
        <time>2015-02-02T13:38:25.358Z</time>
      </trkpt>
      <trkpt lat="49.51814" lon="3.50625">
        <ele>135.3</ele>
        <time>2015-02-02T13:38:26.385Z</time>
      </trkpt>
      <trkpt lat="49.51814" lon="3.50611">
        <ele>135.3</ele>
        <time>2015-02-02T13:38:34.322Z</time>
      </trkpt>
      <trkpt lat="49.51813" lon="3.50609">
        <ele>135.3</ele>
        <time>2015-02-02T13:38:35.331Z</time>
      </trkpt>
      <trkpt lat="49.51816" lon="3.50598">
        <ele>135.1</ele>
        <time>2015-02-02T13:38:40.412Z</time>
      </trkpt>
      <trkpt lat="49.51817" lon="3.50596">
        <ele>135.1</ele>
        <time>2015-02-02T13:38:41.427Z</time>
      </trkpt>
      <trkpt lat="49.51822" lon="3.50586">
        <ele>135</ele>
        <time>2015-02-02T13:38:48.934Z</time>
      </trkpt>
      <trkpt lat="49.51822" lon="3.50585">
        <ele>135</ele>
        <time>2015-02-02T13:38:49.435Z</time>
      </trkpt>
      <trkpt lat="49.51825" lon="3.50576">
        <ele>135.3</ele>
        <time>2015-02-02T13:38:57.390Z</time>
      </trkpt>
      <trkpt lat="49.51825" lon="3.50576">
        <ele>135.4</ele>
        <time>2015-02-02T13:38:58.392Z</time>
      </trkpt>
      <trkpt lat="49.51825" lon="3.50576">
        <ele>135.4</ele>
        <time>2015-02-02T13:38:58.991Z</time>
      </trkpt>
      <trkpt lat="49.51825" lon="3.50575">
        <ele>135.6</ele>
        <time>2015-02-02T13:38:59.400Z</time>
      </trkpt>
      <trkpt lat="49.51824" lon="3.50573">
        <ele>135.9</ele>
        <time>2015-02-02T13:39:04.170Z</time>
      </trkpt>
      <trkpt lat="49.51824" lon="3.50573">
        <ele>136</ele>
        <time>2015-02-02T13:39:04.330Z</time>
      </trkpt>
      <trkpt lat="49.51825" lon="3.50573">
        <ele>136.2</ele>
        <time>2015-02-02T13:39:05.336Z</time>
      </trkpt>
      <trkpt lat="49.51826" lon="3.50571">
        <ele>136.3</ele>
        <time>2015-02-02T13:39:09.352Z</time>
      </trkpt>
      <trkpt lat="49.51826" lon="3.50571">
        <ele>136.4</ele>
        <time>2015-02-02T13:39:10.373Z</time>
      </trkpt>
      <trkpt lat="49.51826" lon="3.5057">
        <ele>136.5</ele>
        <time>2015-02-02T13:39:17.327Z</time>
      </trkpt>
      <trkpt lat="49.51828" lon="3.50569">
        <ele>135.5</ele>
        <time>2015-02-02T13:39:18.338Z</time>
      </trkpt>
      <trkpt lat="49.51831" lon="3.50571">
        <ele>135.3</ele>
        <time>2015-02-02T13:39:27.421Z</time>
      </trkpt>
      <trkpt lat="49.5183" lon="3.5057">
        <ele>135.4</ele>
        <time>2015-02-02T13:39:28.425Z</time>
      </trkpt>
      <trkpt lat="49.5183" lon="3.50569">
        <ele>135.4</ele>
        <time>2015-02-02T13:39:41.402Z</time>
      </trkpt>
      <trkpt lat="49.51825" lon="3.5057">
        <ele>136.3</ele>
        <time>2015-02-02T13:39:42.404Z</time>
      </trkpt>
      <trkpt lat="49.51824" lon="3.50569">
        <ele>136.6</ele>
        <time>2015-02-02T13:39:45.421Z</time>
      </trkpt>
      <trkpt lat="49.51824" lon="3.50569">
        <ele>136.6</ele>
        <time>2015-02-02T13:39:46.328Z</time>
      </trkpt>
      <trkpt lat="49.51824" lon="3.50569">
        <ele>136.6</ele>
        <time>2015-02-02T13:39:47.325Z</time>
      </trkpt>
      <trkpt lat="49.51824" lon="3.50569">
        <ele>136.5</ele>
        <time>2015-02-02T13:39:48.329Z</time>
      </trkpt>
      <trkpt lat="49.51824" lon="3.50569">
        <ele>136.5</ele>
        <time>2015-02-02T13:39:49.334Z</time>
      </trkpt>
      <trkpt lat="49.51824" lon="3.50569">
        <ele>136.3</ele>
        <time>2015-02-02T13:39:54.732Z</time>
      </trkpt>
      <trkpt lat="49.51824" lon="3.50568">
        <ele>136.5</ele>
        <time>2015-02-02T13:39:55.390Z</time>
      </trkpt>
      <trkpt lat="49.51825" lon="3.50569">
        <ele>136.5</ele>
        <time>2015-02-02T13:40:01.341Z</time>
      </trkpt>
      <trkpt lat="49.51825" lon="3.50569">
        <ele>136.5</ele>
        <time>2015-02-02T13:40:02.386Z</time>
      </trkpt>
      <trkpt lat="49.51824" lon="3.50569">
        <ele>136.6</ele>
        <time>2015-02-02T13:40:03.383Z</time>
      </trkpt>
      <trkpt lat="49.51825" lon="3.50568">
        <ele>136.4</ele>
        <time>2015-02-02T13:40:04.388Z</time>
      </trkpt>
      <trkpt lat="49.51825" lon="3.50568">
        <ele>136.4</ele>
        <time>2015-02-02T13:40:04.958Z</time>
      </trkpt>
      <trkpt lat="49.51826" lon="3.50568">
        <ele>136.2</ele>
        <time>2015-02-02T13:40:05.395Z</time>
      </trkpt>
      <trkpt lat="49.51826" lon="3.50569">
        <ele>136</ele>
        <time>2015-02-02T13:40:06.413Z</time>
      </trkpt>
      <trkpt lat="49.51824" lon="3.50566">
        <ele>137.5</ele>
        <time>2015-02-02T13:40:13.357Z</time>
      </trkpt>
      <trkpt lat="49.51824" lon="3.50565">
        <ele>137.6</ele>
        <time>2015-02-02T13:40:14.365Z</time>
      </trkpt>
      <trkpt lat="49.51824" lon="3.50565">
        <ele>137.6</ele>
        <time>2015-02-02T13:40:15.333Z</time>
      </trkpt>
      <trkpt lat="49.51823" lon="3.50565">
        <ele>137.8</ele>
        <time>2015-02-02T13:40:15.369Z</time>
      </trkpt>
      <trkpt lat="49.51823" lon="3.50567">
        <ele>137.6</ele>
        <time>2015-02-02T13:40:18.405Z</time>
      </trkpt>
      <trkpt lat="49.51823" lon="3.50567">
        <ele>137.6</ele>
        <time>2015-02-02T13:40:19.411Z</time>
      </trkpt>
      <trkpt lat="49.51823" lon="3.50567">
        <ele>137.6</ele>
        <time>2015-02-02T13:40:28.386Z</time>
      </trkpt>
      <trkpt lat="49.51823" lon="3.50565">
        <ele>137.8</ele>
        <time>2015-02-02T13:40:29.390Z</time>
      </trkpt>
      <trkpt lat="49.51824" lon="3.50563">
        <ele>138.2</ele>
        <time>2015-02-02T13:40:33.416Z</time>
      </trkpt>
      <trkpt lat="49.51825" lon="3.50563">
        <ele>137.8</ele>
        <time>2015-02-02T13:40:34.326Z</time>
      </trkpt>
      <trkpt lat="49.51827" lon="3.50562">
        <ele>137.6</ele>
        <time>2015-02-02T13:40:35.323Z</time>
      </trkpt>
      <trkpt lat="49.51823" lon="3.50566">
        <ele>138.9</ele>
        <time>2015-02-02T13:40:54.341Z</time>
      </trkpt>
      <trkpt lat="49.51823" lon="3.50566">
        <ele>138.9</ele>
        <time>2015-02-02T13:40:55.351Z</time>
      </trkpt>
      <trkpt lat="49.51823" lon="3.50567">
        <ele>138.7</ele>
        <time>2015-02-02T13:40:59.475Z</time>
      </trkpt>
      <trkpt lat="49.51822" lon="3.50567">
        <ele>138.5</ele>
        <time>2015-02-02T13:41:00.407Z</time>
      </trkpt>
      <trkpt lat="49.51821" lon="3.50567">
        <ele>138.2</ele>
        <time>2015-02-02T13:41:02.427Z</time>
      </trkpt>
      <trkpt lat="49.51821" lon="3.50567">
        <ele>138.1</ele>
        <time>2015-02-02T13:41:03.319Z</time>
      </trkpt>
      <trkpt lat="49.51821" lon="3.50567">
        <ele>138.2</ele>
        <time>2015-02-02T13:41:05.325Z</time>
      </trkpt>
      <trkpt lat="49.51821" lon="3.50567">
        <ele>138.2</ele>
        <time>2015-02-02T13:41:06.328Z</time>
      </trkpt>
      <trkpt lat="49.51823" lon="3.50569">
        <ele>138.3</ele>
        <time>2015-02-02T13:41:14.856Z</time>
      </trkpt>
      <trkpt lat="49.51823" lon="3.50569">
        <ele>138.3</ele>
        <time>2015-02-02T13:41:15.413Z</time>
      </trkpt>
      <trkpt lat="49.51823" lon="3.50569">
        <ele>138.6</ele>
        <time>2015-02-02T13:41:16.426Z</time>
      </trkpt>
      <trkpt lat="49.51824" lon="3.50568">
        <ele>138.7</ele>
        <time>2015-02-02T13:41:21.388Z</time>
      </trkpt>
      <trkpt lat="49.51824" lon="3.50568">
        <ele>138.6</ele>
        <time>2015-02-02T13:41:22.398Z</time>
      </trkpt>
      <trkpt lat="49.51824" lon="3.50567">
        <ele>138.4</ele>
        <time>2015-02-02T13:41:23.407Z</time>
      </trkpt>
      <trkpt lat="49.51823" lon="3.50555">
        <ele>138.5</ele>
        <time>2015-02-02T13:41:31.365Z</time>
      </trkpt>
      <trkpt lat="49.51822" lon="3.50553">
        <ele>138.5</ele>
        <time>2015-02-02T13:41:32.431Z</time>
      </trkpt>
      <trkpt lat="49.51821" lon="3.5054">
        <ele>138.4</ele>
        <time>2015-02-02T13:41:37.433Z</time>
      </trkpt>
      <trkpt lat="49.51821" lon="3.50537">
        <ele>138.3</ele>
        <time>2015-02-02T13:41:38.446Z</time>
      </trkpt>
      <trkpt lat="49.51819" lon="3.50524">
        <ele>138</ele>
        <time>2015-02-02T13:41:46.387Z</time>
      </trkpt>
      <trkpt lat="49.51819" lon="3.50523">
        <ele>137.9</ele>
        <time>2015-02-02T13:41:47.398Z</time>
      </trkpt>
      <trkpt lat="49.51812" lon="3.50514">
        <ele>138.2</ele>
        <time>2015-02-02T13:41:55.626Z</time>
      </trkpt>
      <trkpt lat="49.51811" lon="3.50513">
        <ele>138.3</ele>
        <time>2015-02-02T13:41:56.403Z</time>
      </trkpt>
      <trkpt lat="49.51806" lon="3.50503">
        <ele>138.6</ele>
        <time>2015-02-02T13:42:07.375Z</time>
      </trkpt>
      <trkpt lat="49.51806" lon="3.50502">
        <ele>138.7</ele>
        <time>2015-02-02T13:42:08.388Z</time>
      </trkpt>
      <trkpt lat="49.51806" lon="3.50502">
        <ele>139.2</ele>
        <time>2015-02-02T13:42:11.347Z</time>
      </trkpt>
      <trkpt lat="49.51806" lon="3.50501">
        <ele>139.3</ele>
        <time>2015-02-02T13:42:12.353Z</time>
      </trkpt>
      <trkpt lat="49.51806" lon="3.50501">
        <ele>139.2</ele>
        <time>2015-02-02T13:42:13.351Z</time>
      </trkpt>
      <trkpt lat="49.51806" lon="3.50488">
        <ele>139.1</ele>
        <time>2015-02-02T13:42:23.355Z</time>
      </trkpt>
      <trkpt lat="49.51806" lon="3.50487">
        <ele>139.1</ele>
        <time>2015-02-02T13:42:24.359Z</time>
      </trkpt>
      <trkpt lat="49.51811" lon="3.50477">
        <ele>138.8</ele>
        <time>2015-02-02T13:42:31.419Z</time>
      </trkpt>
      <trkpt lat="49.51812" lon="3.50475">
        <ele>138.8</ele>
        <time>2015-02-02T13:42:32.436Z</time>
      </trkpt>
      <trkpt lat="49.51818" lon="3.50467">
        <ele>139</ele>
        <time>2015-02-02T13:42:37.388Z</time>
      </trkpt>
      <trkpt lat="49.5182" lon="3.50464">
        <ele>139</ele>
        <time>2015-02-02T13:42:38.429Z</time>
      </trkpt>
      <trkpt lat="49.5182" lon="3.50451">
        <ele>139.3</ele>
        <time>2015-02-02T13:42:45.339Z</time>
      </trkpt>
      <trkpt lat="49.51821" lon="3.5045">
        <ele>139.4</ele>
        <time>2015-02-02T13:42:46.362Z</time>
      </trkpt>
      <trkpt lat="49.51826" lon="3.5044">
        <ele>139.2</ele>
        <time>2015-02-02T13:42:54.439Z</time>
      </trkpt>
      <trkpt lat="49.51827" lon="3.50439">
        <ele>139.3</ele>
        <time>2015-02-02T13:42:55.354Z</time>
      </trkpt>
      <trkpt lat="49.51833" lon="3.5043">
        <ele>139.4</ele>
        <time>2015-02-02T13:43:00.366Z</time>
      </trkpt>
      <trkpt lat="49.51834" lon="3.50428">
        <ele>139.5</ele>
        <time>2015-02-02T13:43:01.380Z</time>
      </trkpt>
      <trkpt lat="49.51835" lon="3.50415">
        <ele>139.9</ele>
        <time>2015-02-02T13:43:08.405Z</time>
      </trkpt>
      <trkpt lat="49.51835" lon="3.50413">
        <ele>139.9</ele>
        <time>2015-02-02T13:43:09.406Z</time>
      </trkpt>
      <trkpt lat="49.51836" lon="3.50401">
        <ele>141.9</ele>
        <time>2015-02-02T13:43:16.363Z</time>
      </trkpt>
      <trkpt lat="49.51836" lon="3.50399">
        <ele>142.3</ele>
        <time>2015-02-02T13:43:17.363Z</time>
      </trkpt>
      <trkpt lat="49.5184" lon="3.50387">
        <ele>143.6</ele>
        <time>2015-02-02T13:43:26.409Z</time>
      </trkpt>
      <trkpt lat="49.51841" lon="3.50387">
        <ele>143.7</ele>
        <time>2015-02-02T13:43:27.404Z</time>
      </trkpt>
      <trkpt lat="49.51845" lon="3.50383">
        <ele>144.2</ele>
        <time>2015-02-02T13:43:34.520Z</time>
      </trkpt>
      <trkpt lat="49.51845" lon="3.50382">
        <ele>144.2</ele>
        <time>2015-02-02T13:43:35.383Z</time>
      </trkpt>
      <trkpt lat="49.51846" lon="3.50381">
        <ele>144.2</ele>
        <time>2015-02-02T13:43:36.380Z</time>
      </trkpt>
      <trkpt lat="49.51849" lon="3.5037">
        <ele>144.8</ele>
        <time>2015-02-02T13:43:46.357Z</time>
      </trkpt>
      <trkpt lat="49.51849" lon="3.50369">
        <ele>145</ele>
        <time>2015-02-02T13:43:47.363Z</time>
      </trkpt>
      <trkpt lat="49.51852" lon="3.50357">
        <ele>145.8</ele>
        <time>2015-02-02T13:43:59.023Z</time>
      </trkpt>
      <trkpt lat="49.51853" lon="3.50356">
        <ele>145.8</ele>
        <time>2015-02-02T13:43:59.400Z</time>
      </trkpt>
      <trkpt lat="49.51858" lon="3.5035">
        <ele>146</ele>
        <time>2015-02-02T13:44:05.450Z</time>
      </trkpt>
      <trkpt lat="49.51859" lon="3.5035">
        <ele>146</ele>
        <time>2015-02-02T13:44:06.358Z</time>
      </trkpt>
      <trkpt lat="49.51859" lon="3.5035">
        <ele>146.1</ele>
        <time>2015-02-02T13:44:07.361Z</time>
      </trkpt>
      <trkpt lat="49.51858" lon="3.50349">
        <ele>145.8</ele>
        <time>2015-02-02T13:44:12.407Z</time>
      </trkpt>
      <trkpt lat="49.51859" lon="3.50349">
        <ele>145.8</ele>
        <time>2015-02-02T13:44:13.418Z</time>
      </trkpt>
      <trkpt lat="49.51859" lon="3.50349">
        <ele>145.8</ele>
        <time>2015-02-02T13:44:14.272Z</time>
      </trkpt>
      <trkpt lat="49.51859" lon="3.50348">
        <ele>145.7</ele>
        <time>2015-02-02T13:44:14.429Z</time>
      </trkpt>
      <trkpt lat="49.51864" lon="3.50337">
        <ele>146</ele>
        <time>2015-02-02T13:44:22.421Z</time>
      </trkpt>
      <trkpt lat="49.51863" lon="3.50335">
        <ele>146.1</ele>
        <time>2015-02-02T13:44:23.427Z</time>
      </trkpt>
      <trkpt lat="49.51863" lon="3.50321">
        <ele>145.8</ele>
        <time>2015-02-02T13:44:32.406Z</time>
      </trkpt>
      <trkpt lat="49.51864" lon="3.50321">
        <ele>145.9</ele>
        <time>2015-02-02T13:44:33.410Z</time>
      </trkpt>
      <trkpt lat="49.51864" lon="3.5032">
        <ele>146</ele>
        <time>2015-02-02T13:44:34.413Z</time>
      </trkpt>
      <trkpt lat="49.51865" lon="3.50318">
        <ele>146.3</ele>
        <time>2015-02-02T13:44:39.393Z</time>
      </trkpt>
      <trkpt lat="49.51868" lon="3.50312">
        <ele>146.9</ele>
        <time>2015-02-02T13:44:40.402Z</time>
      </trkpt>
      <trkpt lat="49.51874" lon="3.50301">
        <ele>147.1</ele>
        <time>2015-02-02T13:44:47.355Z</time>
      </trkpt>
      <trkpt lat="49.51874" lon="3.503">
        <ele>147.2</ele>
        <time>2015-02-02T13:44:48.353Z</time>
      </trkpt>
      <trkpt lat="49.51878" lon="3.50288">
        <ele>147.5</ele>
        <time>2015-02-02T13:44:56.434Z</time>
      </trkpt>
      <trkpt lat="49.51878" lon="3.50287">
        <ele>147.5</ele>
        <time>2015-02-02T13:44:57.351Z</time>
      </trkpt>
      <trkpt lat="49.5188" lon="3.50281">
        <ele>147.2</ele>
        <time>2015-02-02T13:45:04.331Z</time>
      </trkpt>
      <trkpt lat="49.5188" lon="3.5028">
        <ele>147.1</ele>
        <time>2015-02-02T13:45:05.340Z</time>
      </trkpt>
      <trkpt lat="49.51881" lon="3.5028">
        <ele>147.1</ele>
        <time>2015-02-02T13:45:06.345Z</time>
      </trkpt>
      <trkpt lat="49.51882" lon="3.50277">
        <ele>147.2</ele>
        <time>2015-02-02T13:45:07.353Z</time>
      </trkpt>
      <trkpt lat="49.51888" lon="3.50268">
        <ele>148.3</ele>
        <time>2015-02-02T13:45:15.411Z</time>
      </trkpt>
      <trkpt lat="49.51888" lon="3.50264">
        <ele>148.3</ele>
        <time>2015-02-02T13:45:16.420Z</time>
      </trkpt>
      <trkpt lat="49.51892" lon="3.5026">
        <ele>148.4</ele>
        <time>2015-02-02T13:45:19.572Z</time>
      </trkpt>
      <trkpt lat="49.51892" lon="3.50258">
        <ele>148.4</ele>
        <time>2015-02-02T13:45:20.380Z</time>
      </trkpt>
      <trkpt lat="49.51893" lon="3.50257">
        <ele>148.4</ele>
        <time>2015-02-02T13:45:21.379Z</time>
      </trkpt>
      <trkpt lat="49.51893" lon="3.50243">
        <ele>148.1</ele>
        <time>2015-02-02T13:45:28.338Z</time>
      </trkpt>
      <trkpt lat="49.51893" lon="3.50242">
        <ele>148.1</ele>
        <time>2015-02-02T13:45:29.351Z</time>
      </trkpt>
      <trkpt lat="49.51893" lon="3.50231">
        <ele>148</ele>
        <time>2015-02-02T13:45:39.336Z</time>
      </trkpt>
      <trkpt lat="49.51893" lon="3.50228">
        <ele>147.9</ele>
        <time>2015-02-02T13:45:40.340Z</time>
      </trkpt>
      <trkpt lat="49.51894" lon="3.50216">
        <ele>148.2</ele>
        <time>2015-02-02T13:45:50.435Z</time>
      </trkpt>
      <trkpt lat="49.51894" lon="3.50214">
        <ele>148.2</ele>
        <time>2015-02-02T13:45:51.342Z</time>
      </trkpt>
      <trkpt lat="49.51891" lon="3.50202">
        <ele>148.1</ele>
        <time>2015-02-02T13:46:05.347Z</time>
      </trkpt>
      <trkpt lat="49.51891" lon="3.50201">
        <ele>148.1</ele>
        <time>2015-02-02T13:46:06.366Z</time>
      </trkpt>
      <trkpt lat="49.51888" lon="3.50188">
        <ele>149.5</ele>
        <time>2015-02-02T13:46:19.395Z</time>
      </trkpt>
      <trkpt lat="49.51888" lon="3.50187">
        <ele>149.5</ele>
        <time>2015-02-02T13:46:20.377Z</time>
      </trkpt>
      <trkpt lat="49.51891" lon="3.50177">
        <ele>150.1</ele>
        <time>2015-02-02T13:46:25.414Z</time>
      </trkpt>
      <trkpt lat="49.51891" lon="3.50174">
        <ele>150.1</ele>
        <time>2015-02-02T13:46:26.428Z</time>
      </trkpt>
      <trkpt lat="49.51891" lon="3.50163">
        <ele>151.1</ele>
        <time>2015-02-02T13:46:34.810Z</time>
      </trkpt>
      <trkpt lat="49.51891" lon="3.50162">
        <ele>151.2</ele>
        <time>2015-02-02T13:46:35.424Z</time>
      </trkpt>
      <trkpt lat="49.51892" lon="3.5016">
        <ele>151.3</ele>
        <time>2015-02-02T13:46:39.389Z</time>
      </trkpt>
      <trkpt lat="49.51891" lon="3.5016">
        <ele>151.4</ele>
        <time>2015-02-02T13:46:40.396Z</time>
      </trkpt>
      <trkpt lat="49.51887" lon="3.50148">
        <ele>153.1</ele>
        <time>2015-02-02T13:46:49.374Z</time>
      </trkpt>
      <trkpt lat="49.51887" lon="3.50147">
        <ele>153.2</ele>
        <time>2015-02-02T13:46:50.387Z</time>
      </trkpt>
      <trkpt lat="49.5189" lon="3.50138">
        <ele>153.4</ele>
        <time>2015-02-02T13:46:54.613Z</time>
      </trkpt>
      <trkpt lat="49.51891" lon="3.50137">
        <ele>153.5</ele>
        <time>2015-02-02T13:46:55.350Z</time>
      </trkpt>
      <trkpt lat="49.51893" lon="3.50137">
        <ele>153.5</ele>
        <time>2015-02-02T13:46:56.462Z</time>
      </trkpt>
      <trkpt lat="49.519" lon="3.50129">
        <ele>153.6</ele>
        <time>2015-02-02T13:47:04.662Z</time>
      </trkpt>
      <trkpt lat="49.519" lon="3.50127">
        <ele>153.5</ele>
        <time>2015-02-02T13:47:05.426Z</time>
      </trkpt>
      <trkpt lat="49.51905" lon="3.50116">
        <ele>153.5</ele>
        <time>2015-02-02T13:47:09.935Z</time>
      </trkpt>
      <trkpt lat="49.51906" lon="3.50114">
        <ele>153.6</ele>
        <time>2015-02-02T13:47:10.383Z</time>
      </trkpt>
      <trkpt lat="49.51912" lon="3.50107">
        <ele>155.6</ele>
        <time>2015-02-02T13:47:22.404Z</time>
      </trkpt>
      <trkpt lat="49.51913" lon="3.50105">
        <ele>155.8</ele>
        <time>2015-02-02T13:47:23.414Z</time>
      </trkpt>
      <trkpt lat="49.51918" lon="3.50094">
        <ele>156.8</ele>
        <time>2015-02-02T13:47:32.401Z</time>
      </trkpt>
      <trkpt lat="49.51919" lon="3.50092">
        <ele>157</ele>
        <time>2015-02-02T13:47:33.401Z</time>
      </trkpt>
      <trkpt lat="49.51925" lon="3.50083">
        <ele>158.7</ele>
        <time>2015-02-02T13:47:43.954Z</time>
      </trkpt>
      <trkpt lat="49.51927" lon="3.50082">
        <ele>158.8</ele>
        <time>2015-02-02T13:47:44.407Z</time>
      </trkpt>
      <trkpt lat="49.51934" lon="3.50076">
        <ele>159.7</ele>
        <time>2015-02-02T13:47:51.366Z</time>
      </trkpt>
      <trkpt lat="49.51935" lon="3.50075">
        <ele>159.8</ele>
        <time>2015-02-02T13:47:52.372Z</time>
      </trkpt>
      <trkpt lat="49.51941" lon="3.50069">
        <ele>160</ele>
        <time>2015-02-02T13:47:59.161Z</time>
      </trkpt>
      <trkpt lat="49.51941" lon="3.50068">
        <ele>160.2</ele>
        <time>2015-02-02T13:47:59.330Z</time>
      </trkpt>
      <trkpt lat="49.5194" lon="3.50067">
        <ele>160.1</ele>
        <time>2015-02-02T13:48:00.331Z</time>
      </trkpt>
      <trkpt lat="49.51943" lon="3.50055">
        <ele>161</ele>
        <time>2015-02-02T13:48:08.414Z</time>
      </trkpt>
      <trkpt lat="49.51943" lon="3.50053">
        <ele>161.1</ele>
        <time>2015-02-02T13:48:09.325Z</time>
      </trkpt>
      <trkpt lat="49.51937" lon="3.50052">
        <ele>173</ele>
        <time>2015-02-02T13:48:44.417Z</time>
      </trkpt>
      <trkpt lat="49.51937" lon="3.50052">
        <ele>173.4</ele>
        <time>2015-02-02T13:48:45.420Z</time>
      </trkpt>
      <trkpt lat="49.51937" lon="3.50051">
        <ele>173.9</ele>
        <time>2015-02-02T13:48:54.401Z</time>
      </trkpt>
      <trkpt lat="49.5194" lon="3.50046">
        <ele>175.5</ele>
        <time>2015-02-02T13:48:55.370Z</time>
      </trkpt>
      <trkpt lat="49.5194" lon="3.50038">
        <ele>178.5</ele>
        <time>2015-02-02T13:49:05.351Z</time>
      </trkpt>
      <trkpt lat="49.5194" lon="3.50037">
        <ele>178.6</ele>
        <time>2015-02-02T13:49:06.359Z</time>
      </trkpt>
      <trkpt lat="49.5194" lon="3.50037">
        <ele>178.9</ele>
        <time>2015-02-02T13:49:08.393Z</time>
      </trkpt>
      <trkpt lat="49.51938" lon="3.50036">
        <ele>179.4</ele>
        <time>2015-02-02T13:49:09.387Z</time>
      </trkpt>
      <trkpt lat="49.51938" lon="3.50036">
        <ele>179.4</ele>
        <time>2015-02-02T13:49:09.708Z</time>
      </trkpt>
      <trkpt lat="49.51938" lon="3.50036">
        <ele>179.7</ele>
        <time>2015-02-02T13:49:10.403Z</time>
      </trkpt>
      <trkpt lat="49.51938" lon="3.50037">
        <ele>179.8</ele>
        <time>2015-02-02T13:49:11.428Z</time>
      </trkpt>
      <trkpt lat="49.51941" lon="3.50034">
        <ele>180.6</ele>
        <time>2015-02-02T13:49:18.370Z</time>
      </trkpt>
      <trkpt lat="49.51941" lon="3.50034">
        <ele>180.8</ele>
        <time>2015-02-02T13:49:19.373Z</time>
      </trkpt>
      <trkpt lat="49.51941" lon="3.50034">
        <ele>180.8</ele>
        <time>2015-02-02T13:49:20.076Z</time>
      </trkpt>
      <trkpt lat="49.5194" lon="3.50034">
        <ele>180.8</ele>
        <time>2015-02-02T13:49:20.397Z</time>
      </trkpt>
      <trkpt lat="49.51933" lon="3.50033">
        <ele>180.8</ele>
        <time>2015-02-02T13:49:25.425Z</time>
      </trkpt>
      <trkpt lat="49.51933" lon="3.50034">
        <ele>180.9</ele>
        <time>2015-02-02T13:49:26.441Z</time>
      </trkpt>
      <trkpt lat="49.51931" lon="3.50034">
        <ele>180.9</ele>
        <time>2015-02-02T13:49:40.394Z</time>
      </trkpt>
      <trkpt lat="49.51928" lon="3.50036">
        <ele>183</ele>
        <time>2015-02-02T13:49:41.402Z</time>
      </trkpt>
      <trkpt lat="49.51928" lon="3.50036">
        <ele>183.3</ele>
        <time>2015-02-02T13:49:43.925Z</time>
      </trkpt>
      <trkpt lat="49.51928" lon="3.50036">
        <ele>183.5</ele>
        <time>2015-02-02T13:49:44.455Z</time>
      </trkpt>
      <trkpt lat="49.51928" lon="3.50037">
        <ele>183.8</ele>
        <time>2015-02-02T13:49:45.430Z</time>
      </trkpt>
      <trkpt lat="49.51927" lon="3.50036">
        <ele>184.1</ele>
        <time>2015-02-02T13:49:46.349Z</time>
      </trkpt>
      <trkpt lat="49.51924" lon="3.50038">
        <ele>184.5</ele>
        <time>2015-02-02T13:49:50.394Z</time>
      </trkpt>
      <trkpt lat="49.51925" lon="3.50038">
        <ele>184.6</ele>
        <time>2015-02-02T13:49:51.395Z</time>
      </trkpt>
      <trkpt lat="49.51925" lon="3.50038">
        <ele>184.7</ele>
        <time>2015-02-02T13:49:52.402Z</time>
      </trkpt>
      <trkpt lat="49.51926" lon="3.50038">
        <ele>185</ele>
        <time>2015-02-02T13:49:53.420Z</time>
      </trkpt>
      <trkpt lat="49.51926" lon="3.50039">
        <ele>185.2</ele>
        <time>2015-02-02T13:49:54.425Z</time>
      </trkpt>
      <trkpt lat="49.51927" lon="3.50039">
        <ele>185.4</ele>
        <time>2015-02-02T13:49:55.431Z</time>
      </trkpt>
      <trkpt lat="49.51928" lon="3.50039">
        <ele>185.4</ele>
        <time>2015-02-02T13:49:56.436Z</time>
      </trkpt>
      <trkpt lat="49.51928" lon="3.50039">
        <ele>185.4</ele>
        <time>2015-02-02T13:49:57.346Z</time>
      </trkpt>
      <trkpt lat="49.51928" lon="3.50039">
        <ele>185.5</ele>
        <time>2015-02-02T13:49:58.350Z</time>
      </trkpt>
      <trkpt lat="49.51926" lon="3.5004">
        <ele>185.9</ele>
        <time>2015-02-02T13:50:03.420Z</time>
      </trkpt>
      <trkpt lat="49.51926" lon="3.50039">
        <ele>186.3</ele>
        <time>2015-02-02T13:50:04.338Z</time>
      </trkpt>
      <trkpt lat="49.51926" lon="3.50039">
        <ele>186.6</ele>
        <time>2015-02-02T13:50:05.368Z</time>
      </trkpt>
      <trkpt lat="49.5193" lon="3.50036">
        <ele>190.5</ele>
        <time>2015-02-02T13:50:26.401Z</time>
      </trkpt>
      <trkpt lat="49.51929" lon="3.50036">
        <ele>190.7</ele>
        <time>2015-02-02T13:50:27.404Z</time>
      </trkpt>
      <trkpt lat="49.51928" lon="3.50035">
        <ele>191.4</ele>
        <time>2015-02-02T13:50:31.440Z</time>
      </trkpt>
      <trkpt lat="49.51927" lon="3.50035">
        <ele>192.5</ele>
        <time>2015-02-02T13:50:32.454Z</time>
      </trkpt>
      <trkpt lat="49.51926" lon="3.50035">
        <ele>193</ele>
        <time>2015-02-02T13:50:34.342Z</time>
      </trkpt>
      <trkpt lat="49.51926" lon="3.50035">
        <ele>193.3</ele>
        <time>2015-02-02T13:50:35.346Z</time>
      </trkpt>
      <trkpt lat="49.51926" lon="3.50035">
        <ele>193.5</ele>
        <time>2015-02-02T13:50:37.357Z</time>
      </trkpt>
      <trkpt lat="49.51926" lon="3.50035">
        <ele>194.1</ele>
        <time>2015-02-02T13:50:38.390Z</time>
      </trkpt>
      <trkpt lat="49.51926" lon="3.50035">
        <ele>194.3</ele>
        <time>2015-02-02T13:50:39.398Z</time>
      </trkpt>
      <trkpt lat="49.51926" lon="3.50035">
        <ele>194.5</ele>
        <time>2015-02-02T13:50:40.405Z</time>
      </trkpt>
      <trkpt lat="49.51929" lon="3.50037">
        <ele>194.5</ele>
        <time>2015-02-02T13:50:50.391Z</time>
      </trkpt>
      <trkpt lat="49.51929" lon="3.50037">
        <ele>194.7</ele>
        <time>2015-02-02T13:50:51.393Z</time>
      </trkpt>
      <trkpt lat="49.51929" lon="3.50037">
        <ele>194.8</ele>
        <time>2015-02-02T13:50:52.400Z</time>
      </trkpt>
      <trkpt lat="49.51929" lon="3.50037">
        <ele>194.9</ele>
        <time>2015-02-02T13:50:53.419Z</time>
      </trkpt>
      <trkpt lat="49.51929" lon="3.50037">
        <ele>195</ele>
        <time>2015-02-02T13:50:54.434Z</time>
      </trkpt>
      <trkpt lat="49.51929" lon="3.50038">
        <ele>195.3</ele>
        <time>2015-02-02T13:50:55.362Z</time>
      </trkpt>
      <trkpt lat="49.51929" lon="3.50038">
        <ele>195.5</ele>
        <time>2015-02-02T13:50:58.383Z</time>
      </trkpt>
      <trkpt lat="49.51928" lon="3.50039">
        <ele>196.1</ele>
        <time>2015-02-02T13:50:59.394Z</time>
      </trkpt>
      <trkpt lat="49.51933" lon="3.50042">
        <ele>197.7</ele>
        <time>2015-02-02T13:51:11.416Z</time>
      </trkpt>
      <trkpt lat="49.51933" lon="3.50041">
        <ele>197.7</ele>
        <time>2015-02-02T13:51:12.426Z</time>
      </trkpt>
      <trkpt lat="49.51933" lon="3.5004">
        <ele>197.8</ele>
        <time>2015-02-02T13:51:13.345Z</time>
      </trkpt>
      <trkpt lat="49.51933" lon="3.50041">
        <ele>197.9</ele>
        <time>2015-02-02T13:51:15.393Z</time>
      </trkpt>
      <trkpt lat="49.51933" lon="3.50041">
        <ele>197.9</ele>
        <time>2015-02-02T13:51:16.401Z</time>
      </trkpt>
      <trkpt lat="49.51933" lon="3.50041">
        <ele>197.7</ele>
        <time>2015-02-02T13:51:17.410Z</time>
      </trkpt>
      <trkpt lat="49.51932" lon="3.50041">
        <ele>198.2</ele>
        <time>2015-02-02T13:51:29.416Z</time>
      </trkpt>
      <trkpt lat="49.51932" lon="3.5004">
        <ele>198.3</ele>
        <time>2015-02-02T13:51:30.421Z</time>
      </trkpt>
      <trkpt lat="49.51932" lon="3.5004">
        <ele>198.3</ele>
        <time>2015-02-02T13:51:31.431Z</time>
      </trkpt>
      <trkpt lat="49.5194" lon="3.50038">
        <ele>199.9</ele>
        <time>2015-02-02T13:51:54.400Z</time>
      </trkpt>
      <trkpt lat="49.51941" lon="3.50039">
        <ele>199.7</ele>
        <time>2015-02-02T13:51:55.408Z</time>
      </trkpt>
      <trkpt lat="49.51944" lon="3.50039">
        <ele>199.8</ele>
        <time>2015-02-02T13:52:02.402Z</time>
      </trkpt>
      <trkpt lat="49.51943" lon="3.50038">
        <ele>199.6</ele>
        <time>2015-02-02T13:52:03.401Z</time>
      </trkpt>
      <trkpt lat="49.51942" lon="3.50038">
        <ele>199.5</ele>
        <time>2015-02-02T13:52:08.362Z</time>
      </trkpt>
      <trkpt lat="49.51939" lon="3.50039">
        <ele>199.3</ele>
        <time>2015-02-02T13:52:09.368Z</time>
      </trkpt>
      <trkpt lat="49.51939" lon="3.50028">
        <ele>199.6</ele>
        <time>2015-02-02T13:52:39.386Z</time>
      </trkpt>
      <trkpt lat="49.51941" lon="3.50025">
        <ele>199.7</ele>
        <time>2015-02-02T13:52:40.396Z</time>
      </trkpt>
      <trkpt lat="49.51942" lon="3.50019">
        <ele>200.2</ele>
        <time>2015-02-02T13:52:56.370Z</time>
      </trkpt>
      <trkpt lat="49.51942" lon="3.50019">
        <ele>200.2</ele>
        <time>2015-02-02T13:52:57.400Z</time>
      </trkpt>
      <trkpt lat="49.51942" lon="3.50019">
        <ele>200.3</ele>
        <time>2015-02-02T13:52:58.392Z</time>
      </trkpt>
      <trkpt lat="49.51937" lon="3.50022">
        <ele>201.6</ele>
        <time>2015-02-02T13:53:08.369Z</time>
      </trkpt>
      <trkpt lat="49.51936" lon="3.50023">
        <ele>202</ele>
        <time>2015-02-02T13:53:09.374Z</time>
      </trkpt>
      <trkpt lat="49.51936" lon="3.50024">
        <ele>202.7</ele>
        <time>2015-02-02T13:53:15.436Z</time>
      </trkpt>
      <trkpt lat="49.51935" lon="3.50023">
        <ele>203.6</ele>
        <time>2015-02-02T13:53:16.347Z</time>
      </trkpt>
      <trkpt lat="49.5193" lon="3.50023">
        <ele>203.1</ele>
        <time>2015-02-02T13:53:24.345Z</time>
      </trkpt>
      <trkpt lat="49.51931" lon="3.50022">
        <ele>203.1</ele>
        <time>2015-02-02T13:53:25.346Z</time>
      </trkpt>
      <trkpt lat="49.51931" lon="3.50022">
        <ele>203.1</ele>
        <time>2015-02-02T13:53:41.393Z</time>
      </trkpt>
      <trkpt lat="49.51936" lon="3.5002">
        <ele>203.3</ele>
        <time>2015-02-02T13:53:42.399Z</time>
      </trkpt>
      <trkpt lat="49.51939" lon="3.50022">
        <ele>203.2</ele>
        <time>2015-02-02T13:53:46.326Z</time>
      </trkpt>
      <trkpt lat="49.51939" lon="3.50022">
        <ele>203</ele>
        <time>2015-02-02T13:53:47.341Z</time>
      </trkpt>
      <trkpt lat="49.51938" lon="3.50023">
        <ele>203</ele>
        <time>2015-02-02T13:53:48.350Z</time>
      </trkpt>
      <trkpt lat="49.51942" lon="3.50022">
        <ele>197.9</ele>
        <time>2015-02-02T13:54:22.411Z</time>
      </trkpt>
      <trkpt lat="49.51941" lon="3.50021">
        <ele>197.9</ele>
        <time>2015-02-02T13:54:23.330Z</time>
      </trkpt>
      <trkpt lat="49.51941" lon="3.50021">
        <ele>198</ele>
        <time>2015-02-02T13:54:24.332Z</time>
      </trkpt>
      <trkpt lat="49.51941" lon="3.50022">
        <ele>198</ele>
        <time>2015-02-02T13:54:25.343Z</time>
      </trkpt>
      <trkpt lat="49.51941" lon="3.50022">
        <ele>198</ele>
        <time>2015-02-02T13:54:26.367Z</time>
      </trkpt>
      <trkpt lat="49.51941" lon="3.50022">
        <ele>198.1</ele>
        <time>2015-02-02T13:54:27.379Z</time>
      </trkpt>
      <trkpt lat="49.51941" lon="3.50021">
        <ele>198</ele>
        <time>2015-02-02T13:54:28.383Z</time>
      </trkpt>
      <trkpt lat="49.51942" lon="3.50014">
        <ele>197.5</ele>
        <time>2015-02-02T13:54:36.359Z</time>
      </trkpt>
      <trkpt lat="49.51942" lon="3.50013">
        <ele>197.5</ele>
        <time>2015-02-02T13:54:37.365Z</time>
      </trkpt>
      <trkpt lat="49.51943" lon="3.50013">
        <ele>197.5</ele>
        <time>2015-02-02T13:54:38.380Z</time>
      </trkpt>
      <trkpt lat="49.51949" lon="3.50006">
        <ele>197</ele>
        <time>2015-02-02T13:54:47.338Z</time>
      </trkpt>
      <trkpt lat="49.5195" lon="3.50004">
        <ele>197</ele>
        <time>2015-02-02T13:54:48.338Z</time>
      </trkpt>
      <trkpt lat="49.51952" lon="3.49998">
        <ele>196.8</ele>
        <time>2015-02-02T13:54:52.377Z</time>
      </trkpt>
      <trkpt lat="49.51952" lon="3.49998">
        <ele>196.7</ele>
        <time>2015-02-02T13:54:53.388Z</time>
      </trkpt>
      <trkpt lat="49.51952" lon="3.49997">
        <ele>196.6</ele>
        <time>2015-02-02T13:54:54.392Z</time>
      </trkpt>
      <trkpt lat="49.51953" lon="3.49996">
        <ele>196.4</ele>
        <time>2015-02-02T13:54:55.401Z</time>
      </trkpt>
      <trkpt lat="49.5196" lon="3.49993">
        <ele>196.2</ele>
        <time>2015-02-02T13:55:00.346Z</time>
      </trkpt>
      <trkpt lat="49.51961" lon="3.49992">
        <ele>196.3</ele>
        <time>2015-02-02T13:55:01.346Z</time>
      </trkpt>
      <trkpt lat="49.51961" lon="3.4999">
        <ele>196.2</ele>
        <time>2015-02-02T13:55:03.378Z</time>
      </trkpt>
      <trkpt lat="49.51961" lon="3.49989">
        <ele>196.1</ele>
        <time>2015-02-02T13:55:04.398Z</time>
      </trkpt>
      <trkpt lat="49.51968" lon="3.4998">
        <ele>196.2</ele>
        <time>2015-02-02T13:55:13.330Z</time>
      </trkpt>
      <trkpt lat="49.5197" lon="3.49981">
        <ele>196.1</ele>
        <time>2015-02-02T13:55:14.349Z</time>
      </trkpt>
      <trkpt lat="49.51977" lon="3.49975">
        <ele>195.5</ele>
        <time>2015-02-02T13:55:18.375Z</time>
      </trkpt>
      <trkpt lat="49.51977" lon="3.49971">
        <ele>195.1</ele>
        <time>2015-02-02T13:55:19.391Z</time>
      </trkpt>
      <trkpt lat="49.5198" lon="3.49965">
        <ele>195.2</ele>
        <time>2015-02-02T13:55:22.332Z</time>
      </trkpt>
      <trkpt lat="49.5198" lon="3.49964">
        <ele>195.2</ele>
        <time>2015-02-02T13:55:23.327Z</time>
      </trkpt>
      <trkpt lat="49.51981" lon="3.49963">
        <ele>195.3</ele>
        <time>2015-02-02T13:55:24.794Z</time>
      </trkpt>
      <trkpt lat="49.5198" lon="3.49963">
        <ele>195.3</ele>
        <time>2015-02-02T13:55:25.343Z</time>
      </trkpt>
      <trkpt lat="49.51981" lon="3.4995">
        <ele>195.1</ele>
        <time>2015-02-02T13:55:41.331Z</time>
      </trkpt>
      <trkpt lat="49.51982" lon="3.49949">
        <ele>195.2</ele>
        <time>2015-02-02T13:55:42.331Z</time>
      </trkpt>
      <trkpt lat="49.51988" lon="3.49945">
        <ele>195.2</ele>
        <time>2015-02-02T13:55:47.376Z</time>
      </trkpt>
      <trkpt lat="49.51989" lon="3.49945">
        <ele>195.2</ele>
        <time>2015-02-02T13:55:48.383Z</time>
      </trkpt>
      <trkpt lat="49.51989" lon="3.49944">
        <ele>195.3</ele>
        <time>2015-02-02T13:55:53.327Z</time>
      </trkpt>
      <trkpt lat="49.51991" lon="3.49938">
        <ele>195.8</ele>
        <time>2015-02-02T13:55:54.328Z</time>
      </trkpt>
      <trkpt lat="49.51992" lon="3.49926">
        <ele>195.1</ele>
        <time>2015-02-02T13:55:58.369Z</time>
      </trkpt>
      <trkpt lat="49.51993" lon="3.49924">
        <ele>195</ele>
        <time>2015-02-02T13:55:59.390Z</time>
      </trkpt>
      <trkpt lat="49.51999" lon="3.49913">
        <ele>195.2</ele>
        <time>2015-02-02T13:56:08.361Z</time>
      </trkpt>
      <trkpt lat="49.51999" lon="3.49913">
        <ele>195.2</ele>
        <time>2015-02-02T13:56:09.360Z</time>
      </trkpt>
      <trkpt lat="49.52005" lon="3.49904">
        <ele>195.1</ele>
        <time>2015-02-02T13:56:15.331Z</time>
      </trkpt>
      <trkpt lat="49.52006" lon="3.49901">
        <ele>195.1</ele>
        <time>2015-02-02T13:56:16.332Z</time>
      </trkpt>
      <trkpt lat="49.52008" lon="3.499">
        <ele>195.2</ele>
        <time>2015-02-02T13:56:17.342Z</time>
      </trkpt>
      <trkpt lat="49.52009" lon="3.49898">
        <ele>195.1</ele>
        <time>2015-02-02T13:56:18.346Z</time>
      </trkpt>
      <trkpt lat="49.52016" lon="3.49889">
        <ele>195.4</ele>
        <time>2015-02-02T13:56:23.388Z</time>
      </trkpt>
      <trkpt lat="49.52018" lon="3.49887">
        <ele>195.6</ele>
        <time>2015-02-02T13:56:24.392Z</time>
      </trkpt>
      <trkpt lat="49.52023" lon="3.49875">
        <ele>195.6</ele>
        <time>2015-02-02T13:56:30.331Z</time>
      </trkpt>
      <trkpt lat="49.52024" lon="3.49872">
        <ele>195.4</ele>
        <time>2015-02-02T13:56:31.336Z</time>
      </trkpt>
      <trkpt lat="49.52027" lon="3.49868">
        <ele>195.3</ele>
        <time>2015-02-02T13:56:35.177Z</time>
      </trkpt>
      <trkpt lat="49.52027" lon="3.49868">
        <ele>195.4</ele>
        <time>2015-02-02T13:56:35.385Z</time>
      </trkpt>
      <trkpt lat="49.52027" lon="3.49868">
        <ele>195.4</ele>
        <time>2015-02-02T13:56:36.391Z</time>
      </trkpt>
      <trkpt lat="49.52032" lon="3.4986">
        <ele>195.7</ele>
        <time>2015-02-02T13:56:43.351Z</time>
      </trkpt>
      <trkpt lat="49.52035" lon="3.49858">
        <ele>196</ele>
        <time>2015-02-02T13:56:45.380Z</time>
      </trkpt>
      <trkpt lat="49.52036" lon="3.49858">
        <ele>196.1</ele>
        <time>2015-02-02T13:56:46.387Z</time>
      </trkpt>
      <trkpt lat="49.52036" lon="3.49857">
        <ele>196.2</ele>
        <time>2015-02-02T13:56:47.395Z</time>
      </trkpt>
      <trkpt lat="49.5204" lon="3.49844">
        <ele>196.9</ele>
        <time>2015-02-02T13:56:53.980Z</time>
      </trkpt>
      <trkpt lat="49.52041" lon="3.49842">
        <ele>196.9</ele>
        <time>2015-02-02T13:56:54.359Z</time>
      </trkpt>
      <trkpt lat="49.52046" lon="3.49832">
        <ele>196.7</ele>
        <time>2015-02-02T13:57:02.406Z</time>
      </trkpt>
      <trkpt lat="49.52047" lon="3.49831">
        <ele>196.7</ele>
        <time>2015-02-02T13:57:03.412Z</time>
      </trkpt>
      <trkpt lat="49.52055" lon="3.49825">
        <ele>197.1</ele>
        <time>2015-02-02T13:57:09.367Z</time>
      </trkpt>
      <trkpt lat="49.52057" lon="3.49822">
        <ele>197.5</ele>
        <time>2015-02-02T13:57:10.385Z</time>
      </trkpt>
      <trkpt lat="49.52059" lon="3.49809">
        <ele>197.9</ele>
        <time>2015-02-02T13:57:15.314Z</time>
      </trkpt>
      <trkpt lat="49.52058" lon="3.49807">
        <ele>197.7</ele>
        <time>2015-02-02T13:57:16.326Z</time>
      </trkpt>
      <trkpt lat="49.52062" lon="3.49797">
        <ele>196.8</ele>
        <time>2015-02-02T13:57:21.392Z</time>
      </trkpt>
      <trkpt lat="49.52063" lon="3.49795">
        <ele>196.6</ele>
        <time>2015-02-02T13:57:22.396Z</time>
      </trkpt>
      <trkpt lat="49.52068" lon="3.49786">
        <ele>195.9</ele>
        <time>2015-02-02T13:57:26.365Z</time>
      </trkpt>
      <trkpt lat="49.52069" lon="3.49784">
        <ele>196.1</ele>
        <time>2015-02-02T13:57:27.363Z</time>
      </trkpt>
      <trkpt lat="49.52071" lon="3.49771">
        <ele>195.5</ele>
        <time>2015-02-02T13:57:33.408Z</time>
      </trkpt>
      <trkpt lat="49.52071" lon="3.49769">
        <ele>195.3</ele>
        <time>2015-02-02T13:57:34.320Z</time>
      </trkpt>
      <trkpt lat="49.52071" lon="3.49762">
        <ele>195.1</ele>
        <time>2015-02-02T13:57:38.915Z</time>
      </trkpt>
      <trkpt lat="49.52072" lon="3.49761">
        <ele>195.2</ele>
        <time>2015-02-02T13:57:39.361Z</time>
      </trkpt>
      <trkpt lat="49.52072" lon="3.49761">
        <ele>195.2</ele>
        <time>2015-02-02T13:57:40.372Z</time>
      </trkpt>
      <trkpt lat="49.52074" lon="3.49761">
        <ele>195.2</ele>
        <time>2015-02-02T13:57:41.383Z</time>
      </trkpt>
      <trkpt lat="49.52078" lon="3.49755">
        <ele>195</ele>
        <time>2015-02-02T13:57:45.330Z</time>
      </trkpt>
      <trkpt lat="49.52078" lon="3.49755">
        <ele>194.8</ele>
        <time>2015-02-02T13:57:46.334Z</time>
      </trkpt>
      <trkpt lat="49.52079" lon="3.49755">
        <ele>194.6</ele>
        <time>2015-02-02T13:57:47.333Z</time>
      </trkpt>
      <trkpt lat="49.52081" lon="3.49755">
        <ele>194.3</ele>
        <time>2015-02-02T13:57:49.347Z</time>
      </trkpt>
      <trkpt lat="49.52081" lon="3.49755">
        <ele>194.2</ele>
        <time>2015-02-02T13:57:50.366Z</time>
      </trkpt>
      <trkpt lat="49.52082" lon="3.49754">
        <ele>194.2</ele>
        <time>2015-02-02T13:57:51.374Z</time>
      </trkpt>
      <trkpt lat="49.52085" lon="3.49742">
        <ele>194.9</ele>
        <time>2015-02-02T13:58:04.530Z</time>
      </trkpt>
      <trkpt lat="49.52085" lon="3.49741">
        <ele>195</ele>
        <time>2015-02-02T13:58:05.404Z</time>
      </trkpt>
      <trkpt lat="49.52092" lon="3.49732">
        <ele>196.5</ele>
        <time>2015-02-02T13:58:15.328Z</time>
      </trkpt>
      <trkpt lat="49.52092" lon="3.49731">
        <ele>196.7</ele>
        <time>2015-02-02T13:58:16.337Z</time>
      </trkpt>
      <trkpt lat="49.52092" lon="3.49731">
        <ele>196.7</ele>
        <time>2015-02-02T13:58:17.351Z</time>
      </trkpt>
      <trkpt lat="49.52093" lon="3.4973">
        <ele>196.8</ele>
        <time>2015-02-02T13:58:19.904Z</time>
      </trkpt>
      <trkpt lat="49.52094" lon="3.49727">
        <ele>197</ele>
        <time>2015-02-02T13:58:20.367Z</time>
      </trkpt>
      <trkpt lat="49.52096" lon="3.49715">
        <ele>197.7</ele>
        <time>2015-02-02T13:58:30.352Z</time>
      </trkpt>
      <trkpt lat="49.52097" lon="3.49713">
        <ele>197.8</ele>
        <time>2015-02-02T13:58:31.358Z</time>
      </trkpt>
      <trkpt lat="49.52098" lon="3.497">
        <ele>198.8</ele>
        <time>2015-02-02T13:58:40.331Z</time>
      </trkpt>
      <trkpt lat="49.52099" lon="3.49699">
        <ele>198.8</ele>
        <time>2015-02-02T13:58:41.337Z</time>
      </trkpt>
      <trkpt lat="49.52107" lon="3.49693">
        <ele>200.4</ele>
        <time>2015-02-02T13:58:49.415Z</time>
      </trkpt>
      <trkpt lat="49.52107" lon="3.49692">
        <ele>200.6</ele>
        <time>2015-02-02T13:58:50.416Z</time>
      </trkpt>
      <trkpt lat="49.52114" lon="3.49685">
        <ele>201</ele>
        <time>2015-02-02T13:58:57.365Z</time>
      </trkpt>
      <trkpt lat="49.52114" lon="3.49684">
        <ele>200.9</ele>
        <time>2015-02-02T13:58:58.370Z</time>
      </trkpt>
      <trkpt lat="49.52119" lon="3.49673">
        <ele>201.2</ele>
        <time>2015-02-02T13:59:05.336Z</time>
      </trkpt>
      <trkpt lat="49.52119" lon="3.49671">
        <ele>201.1</ele>
        <time>2015-02-02T13:59:06.342Z</time>
      </trkpt>
      <trkpt lat="49.52122" lon="3.49659">
        <ele>200.5</ele>
        <time>2015-02-02T13:59:13.338Z</time>
      </trkpt>
      <trkpt lat="49.52122" lon="3.49658">
        <ele>200.4</ele>
        <time>2015-02-02T13:59:14.367Z</time>
      </trkpt>
      <trkpt lat="49.52127" lon="3.49647">
        <ele>200.1</ele>
        <time>2015-02-02T13:59:21.410Z</time>
      </trkpt>
      <trkpt lat="49.52127" lon="3.49646">
        <ele>199.7</ele>
        <time>2015-02-02T13:59:22.416Z</time>
      </trkpt>
      <trkpt lat="49.52133" lon="3.49635">
        <ele>198.8</ele>
        <time>2015-02-02T13:59:30.382Z</time>
      </trkpt>
      <trkpt lat="49.52133" lon="3.49634">
        <ele>198.9</ele>
        <time>2015-02-02T13:59:31.391Z</time>
      </trkpt>
      <trkpt lat="49.52136" lon="3.49622">
        <ele>199.9</ele>
        <time>2015-02-02T13:59:38.916Z</time>
      </trkpt>
      <trkpt lat="49.52137" lon="3.4962">
        <ele>199.8</ele>
        <time>2015-02-02T13:59:39.357Z</time>
      </trkpt>
      <trkpt lat="49.52145" lon="3.49618">
        <ele>200.1</ele>
        <time>2015-02-02T13:59:49.373Z</time>
      </trkpt>
      <trkpt lat="49.52144" lon="3.49618">
        <ele>200.1</ele>
        <time>2015-02-02T13:59:50.378Z</time>
      </trkpt>
      <trkpt lat="49.52145" lon="3.49618">
        <ele>200.1</ele>
        <time>2015-02-02T13:59:51.378Z</time>
      </trkpt>
      <trkpt lat="49.52153" lon="3.49621">
        <ele>201.9</ele>
        <time>2015-02-02T14:00:02.427Z</time>
      </trkpt>
      <trkpt lat="49.52153" lon="3.49622">
        <ele>202.1</ele>
        <time>2015-02-02T14:00:03.332Z</time>
      </trkpt>
      <trkpt lat="49.52153" lon="3.49625">
        <ele>202.5</ele>
        <time>2015-02-02T14:00:06.347Z</time>
      </trkpt>
      <trkpt lat="49.52154" lon="3.49625">
        <ele>202.7</ele>
        <time>2015-02-02T14:00:07.362Z</time>
      </trkpt>
      <trkpt lat="49.52154" lon="3.49625">
        <ele>202.9</ele>
        <time>2015-02-02T14:00:08.377Z</time>
      </trkpt>
      <trkpt lat="49.52162" lon="3.49632">
        <ele>203.4</ele>
        <time>2015-02-02T14:00:17.349Z</time>
      </trkpt>
      <trkpt lat="49.52164" lon="3.49632">
        <ele>203.6</ele>
        <time>2015-02-02T14:00:18.358Z</time>
      </trkpt>
      <trkpt lat="49.52172" lon="3.49634">
        <ele>203.9</ele>
        <time>2015-02-02T14:00:24.200Z</time>
      </trkpt>
      <trkpt lat="49.52173" lon="3.49635">
        <ele>203.9</ele>
        <time>2015-02-02T14:00:24.410Z</time>
      </trkpt>
      <trkpt lat="49.5218" lon="3.49641">
        <ele>203.8</ele>
        <time>2015-02-02T14:00:32.411Z</time>
      </trkpt>
      <trkpt lat="49.52181" lon="3.49641">
        <ele>203.9</ele>
        <time>2015-02-02T14:00:33.410Z</time>
      </trkpt>
      <trkpt lat="49.52188" lon="3.49649">
        <ele>204.7</ele>
        <time>2015-02-02T14:00:40.386Z</time>
      </trkpt>
      <trkpt lat="49.52189" lon="3.4965">
        <ele>205</ele>
        <time>2015-02-02T14:00:41.447Z</time>
      </trkpt>
      <trkpt lat="49.5219" lon="3.4965">
        <ele>205.1</ele>
        <time>2015-02-02T14:00:42.416Z</time>
      </trkpt>
      <trkpt lat="49.5219" lon="3.4965">
        <ele>205.2</ele>
        <time>2015-02-02T14:00:43.421Z</time>
      </trkpt>
      <trkpt lat="49.5219" lon="3.49651">
        <ele>205.5</ele>
        <time>2015-02-02T14:00:46.341Z</time>
      </trkpt>
      <trkpt lat="49.5219" lon="3.49653">
        <ele>205.7</ele>
        <time>2015-02-02T14:00:47.339Z</time>
      </trkpt>
      <trkpt lat="49.52196" lon="3.49662">
        <ele>207.1</ele>
        <time>2015-02-02T14:01:00.337Z</time>
      </trkpt>
      <trkpt lat="49.52197" lon="3.49662">
        <ele>207.4</ele>
        <time>2015-02-02T14:01:01.347Z</time>
      </trkpt>
      <trkpt lat="49.52205" lon="3.49667">
        <ele>208.5</ele>
        <time>2015-02-02T14:01:11.401Z</time>
      </trkpt>
      <trkpt lat="49.52206" lon="3.49669">
        <ele>208.6</ele>
        <time>2015-02-02T14:01:12.415Z</time>
      </trkpt>
      <trkpt lat="49.52213" lon="3.49676">
        <ele>209</ele>
        <time>2015-02-02T14:01:18.340Z</time>
      </trkpt>
      <trkpt lat="49.52214" lon="3.49677">
        <ele>208.9</ele>
        <time>2015-02-02T14:01:19.347Z</time>
      </trkpt>
      <trkpt lat="49.52221" lon="3.49684">
        <ele>207.8</ele>
        <time>2015-02-02T14:01:27.338Z</time>
      </trkpt>
      <trkpt lat="49.52223" lon="3.49685">
        <ele>208</ele>
        <time>2015-02-02T14:01:28.339Z</time>
      </trkpt>
      <trkpt lat="49.52231" lon="3.49692">
        <ele>207.5</ele>
        <time>2015-02-02T14:01:35.215Z</time>
      </trkpt>
      <trkpt lat="49.52232" lon="3.49693">
        <ele>207.6</ele>
        <time>2015-02-02T14:01:35.331Z</time>
      </trkpt>
      <trkpt lat="49.52238" lon="3.49701">
        <ele>207.7</ele>
        <time>2015-02-02T14:01:41.381Z</time>
      </trkpt>
      <trkpt lat="49.52239" lon="3.49701">
        <ele>207.8</ele>
        <time>2015-02-02T14:01:42.387Z</time>
      </trkpt>
      <trkpt lat="49.52239" lon="3.49702">
        <ele>207.8</ele>
        <time>2015-02-02T14:01:43.397Z</time>
      </trkpt>
      <trkpt lat="49.52239" lon="3.49702">
        <ele>207.8</ele>
        <time>2015-02-02T14:01:43.942Z</time>
      </trkpt>
      <trkpt lat="49.5224" lon="3.49703">
        <ele>208.1</ele>
        <time>2015-02-02T14:01:44.405Z</time>
      </trkpt>
      <trkpt lat="49.52243" lon="3.49714">
        <ele>209</ele>
        <time>2015-02-02T14:01:51.382Z</time>
      </trkpt>
      <trkpt lat="49.52244" lon="3.49715">
        <ele>209</ele>
        <time>2015-02-02T14:01:52.384Z</time>
      </trkpt>
      <trkpt lat="49.52249" lon="3.49726">
        <ele>209.9</ele>
        <time>2015-02-02T14:02:04.469Z</time>
      </trkpt>
      <trkpt lat="49.5225" lon="3.49727">
        <ele>209.4</ele>
        <time>2015-02-02T14:02:05.400Z</time>
      </trkpt>
      <trkpt lat="49.5225" lon="3.4973">
        <ele>209.5</ele>
        <time>2015-02-02T14:02:07.412Z</time>
      </trkpt>
      <trkpt lat="49.5225" lon="3.49731">
        <ele>209.5</ele>
        <time>2015-02-02T14:02:08.416Z</time>
      </trkpt>
      <trkpt lat="49.5225" lon="3.49733">
        <ele>209.4</ele>
        <time>2015-02-02T14:02:09.338Z</time>
      </trkpt>
      <trkpt lat="49.5225" lon="3.49734">
        <ele>209.5</ele>
        <time>2015-02-02T14:02:10.435Z</time>
      </trkpt>
      <trkpt lat="49.5225" lon="3.49735">
        <ele>209.4</ele>
        <time>2015-02-02T14:02:11.344Z</time>
      </trkpt>
      <trkpt lat="49.52251" lon="3.49735">
        <ele>209.3</ele>
        <time>2015-02-02T14:02:12.340Z</time>
      </trkpt>
      <trkpt lat="49.52254" lon="3.49742">
        <ele>209.5</ele>
        <time>2015-02-02T14:02:19.679Z</time>
      </trkpt>
      <trkpt lat="49.52254" lon="3.49742">
        <ele>209.7</ele>
        <time>2015-02-02T14:02:20.434Z</time>
      </trkpt>
      <trkpt lat="49.52254" lon="3.49743">
        <ele>209.9</ele>
        <time>2015-02-02T14:02:21.338Z</time>
      </trkpt>
      <trkpt lat="49.52255" lon="3.49744">
        <ele>210</ele>
        <time>2015-02-02T14:02:22.347Z</time>
      </trkpt>
      <trkpt lat="49.52258" lon="3.49756">
        <ele>210.5</ele>
        <time>2015-02-02T14:02:31.420Z</time>
      </trkpt>
      <trkpt lat="49.52259" lon="3.49758">
        <ele>210.6</ele>
        <time>2015-02-02T14:02:32.431Z</time>
      </trkpt>
      <trkpt lat="49.52264" lon="3.49769">
        <ele>211.5</ele>
        <time>2015-02-02T14:02:39.371Z</time>
      </trkpt>
      <trkpt lat="49.52265" lon="3.49771">
        <ele>211.6</ele>
        <time>2015-02-02T14:02:40.382Z</time>
      </trkpt>
      <trkpt lat="49.52266" lon="3.49776">
        <ele>211.9</ele>
        <time>2015-02-02T14:02:44.408Z</time>
      </trkpt>
      <trkpt lat="49.52266" lon="3.49776">
        <ele>212</ele>
        <time>2015-02-02T14:02:45.413Z</time>
      </trkpt>
      <trkpt lat="49.52267" lon="3.49776">
        <ele>212.2</ele>
        <time>2015-02-02T14:02:46.423Z</time>
      </trkpt>
      <trkpt lat="49.52268" lon="3.49776">
        <ele>212.3</ele>
        <time>2015-02-02T14:02:47.429Z</time>
      </trkpt>
      <trkpt lat="49.52268" lon="3.49776">
        <ele>212.4</ele>
        <time>2015-02-02T14:02:48.949Z</time>
      </trkpt>
      <trkpt lat="49.52268" lon="3.49776">
        <ele>212.6</ele>
        <time>2015-02-02T14:02:49.340Z</time>
      </trkpt>
      <trkpt lat="49.52269" lon="3.49777">
        <ele>212.7</ele>
        <time>2015-02-02T14:02:50.379Z</time>
      </trkpt>
      <trkpt lat="49.52273" lon="3.49787">
        <ele>213.1</ele>
        <time>2015-02-02T14:02:59.061Z</time>
      </trkpt>
      <trkpt lat="49.52274" lon="3.49789">
        <ele>212.9</ele>
        <time>2015-02-02T14:02:59.339Z</time>
      </trkpt>
      <trkpt lat="49.52278" lon="3.498">
        <ele>212.1</ele>
        <time>2015-02-02T14:03:05.330Z</time>
      </trkpt>
      <trkpt lat="49.5228" lon="3.49801">
        <ele>212.1</ele>
        <time>2015-02-02T14:03:06.330Z</time>
      </trkpt>
      <trkpt lat="49.52288" lon="3.49804">
        <ele>212.1</ele>
        <time>2015-02-02T14:03:12.394Z</time>
      </trkpt>
      <trkpt lat="49.52289" lon="3.49804">
        <ele>212.1</ele>
        <time>2015-02-02T14:03:13.407Z</time>
      </trkpt>
      <trkpt lat="49.52296" lon="3.49812">
        <ele>212.3</ele>
        <time>2015-02-02T14:03:19.458Z</time>
      </trkpt>
      <trkpt lat="49.52296" lon="3.49813">
        <ele>212.5</ele>
        <time>2015-02-02T14:03:20.372Z</time>
      </trkpt>
      <trkpt lat="49.52303" lon="3.49817">
        <ele>213.1</ele>
        <time>2015-02-02T14:03:25.406Z</time>
      </trkpt>
      <trkpt lat="49.52305" lon="3.49818">
        <ele>213.1</ele>
        <time>2015-02-02T14:03:26.419Z</time>
      </trkpt>
      <trkpt lat="49.5231" lon="3.49829">
        <ele>212.8</ele>
        <time>2015-02-02T14:03:34.699Z</time>
      </trkpt>
      <trkpt lat="49.5231" lon="3.49831">
        <ele>212.8</ele>
        <time>2015-02-02T14:03:35.332Z</time>
      </trkpt>
      <trkpt lat="49.52314" lon="3.49844">
        <ele>212.5</ele>
        <time>2015-02-02T14:03:45.363Z</time>
      </trkpt>
      <trkpt lat="49.52314" lon="3.49845">
        <ele>212.5</ele>
        <time>2015-02-02T14:03:46.369Z</time>
      </trkpt>
      <trkpt lat="49.52321" lon="3.49853">
        <ele>212.8</ele>
        <time>2015-02-02T14:03:51.406Z</time>
      </trkpt>
      <trkpt lat="49.52322" lon="3.49854">
        <ele>212.9</ele>
        <time>2015-02-02T14:03:52.416Z</time>
      </trkpt>
      <trkpt lat="49.52325" lon="3.49866">
        <ele>212.9</ele>
        <time>2015-02-02T14:04:04.018Z</time>
      </trkpt>
      <trkpt lat="49.52326" lon="3.49867">
        <ele>212.9</ele>
        <time>2015-02-02T14:04:04.322Z</time>
      </trkpt>
      <trkpt lat="49.52331" lon="3.49879">
        <ele>212.8</ele>
        <time>2015-02-02T14:04:11.383Z</time>
      </trkpt>
      <trkpt lat="49.52332" lon="3.4988">
        <ele>212.8</ele>
        <time>2015-02-02T14:04:12.386Z</time>
      </trkpt>
      <trkpt lat="49.52338" lon="3.49888">
        <ele>213.1</ele>
        <time>2015-02-02T14:04:19.350Z</time>
      </trkpt>
      <trkpt lat="49.52339" lon="3.49889">
        <ele>213.1</ele>
        <time>2015-02-02T14:04:20.366Z</time>
      </trkpt>
      <trkpt lat="49.52341" lon="3.49891">
        <ele>213.3</ele>
        <time>2015-02-02T14:04:22.368Z</time>
      </trkpt>
      <trkpt lat="49.52342" lon="3.49892">
        <ele>213.5</ele>
        <time>2015-02-02T14:04:23.375Z</time>
      </trkpt>
      <trkpt lat="49.52342" lon="3.49894">
        <ele>213.7</ele>
        <time>2015-02-02T14:04:24.384Z</time>
      </trkpt>
      <trkpt lat="49.52343" lon="3.49896">
        <ele>213.9</ele>
        <time>2015-02-02T14:04:25.397Z</time>
      </trkpt>
      <trkpt lat="49.52344" lon="3.49899">
        <ele>214</ele>
        <time>2015-02-02T14:04:27.406Z</time>
      </trkpt>
      <trkpt lat="49.52344" lon="3.49901">
        <ele>214</ele>
        <time>2015-02-02T14:04:28.412Z</time>
      </trkpt>
      <trkpt lat="49.52344" lon="3.49901">
        <ele>214</ele>
        <time>2015-02-02T14:04:29.242Z</time>
      </trkpt>
      <trkpt lat="49.52344" lon="3.49902">
        <ele>214</ele>
        <time>2015-02-02T14:04:29.419Z</time>
      </trkpt>
      <trkpt lat="49.52348" lon="3.49912">
        <ele>214.4</ele>
        <time>2015-02-02T14:04:35.323Z</time>
      </trkpt>
      <trkpt lat="49.52349" lon="3.49914">
        <ele>214.5</ele>
        <time>2015-02-02T14:04:36.330Z</time>
      </trkpt>
      <trkpt lat="49.52356" lon="3.49923">
        <ele>214.6</ele>
        <time>2015-02-02T14:04:42.412Z</time>
      </trkpt>
      <trkpt lat="49.52358" lon="3.49924">
        <ele>214.5</ele>
        <time>2015-02-02T14:04:43.416Z</time>
      </trkpt>
      <trkpt lat="49.52363" lon="3.49934">
        <ele>214.9</ele>
        <time>2015-02-02T14:04:51.376Z</time>
      </trkpt>
      <trkpt lat="49.52364" lon="3.49935">
        <ele>214.8</ele>
        <time>2015-02-02T14:04:52.376Z</time>
      </trkpt>
      <trkpt lat="49.52367" lon="3.49945">
        <ele>214.2</ele>
        <time>2015-02-02T14:04:59.023Z</time>
      </trkpt>
      <trkpt lat="49.52369" lon="3.49947">
        <ele>214.1</ele>
        <time>2015-02-02T14:04:59.334Z</time>
      </trkpt>
      <trkpt lat="49.52373" lon="3.49958">
        <ele>211.6</ele>
        <time>2015-02-02T14:05:05.311Z</time>
      </trkpt>
      <trkpt lat="49.52374" lon="3.4996">
        <ele>211.5</ele>
        <time>2015-02-02T14:05:06.324Z</time>
      </trkpt>
      <trkpt lat="49.52377" lon="3.49973">
        <ele>210.3</ele>
        <time>2015-02-02T14:05:14.135Z</time>
      </trkpt>
      <trkpt lat="49.52377" lon="3.49975">
        <ele>210.3</ele>
        <time>2015-02-02T14:05:14.428Z</time>
      </trkpt>
      <trkpt lat="49.52381" lon="3.49986">
        <ele>210.8</ele>
        <time>2015-02-02T14:05:22.413Z</time>
      </trkpt>
      <trkpt lat="49.52381" lon="3.49987">
        <ele>210.9</ele>
        <time>2015-02-02T14:05:23.415Z</time>
      </trkpt>
      <trkpt lat="49.52386" lon="3.49998">
        <ele>211.7</ele>
        <time>2015-02-02T14:05:29.348Z</time>
      </trkpt>
      <trkpt lat="49.52387" lon="3.5">
        <ele>211.9</ele>
        <time>2015-02-02T14:05:30.361Z</time>
      </trkpt>
      <trkpt lat="49.52394" lon="3.50007">
        <ele>212.5</ele>
        <time>2015-02-02T14:05:38.910Z</time>
      </trkpt>
      <trkpt lat="49.52395" lon="3.50008">
        <ele>212.5</ele>
        <time>2015-02-02T14:05:39.393Z</time>
      </trkpt>
      <trkpt lat="49.52401" lon="3.50017">
        <ele>213.4</ele>
        <time>2015-02-02T14:05:49.191Z</time>
      </trkpt>
      <trkpt lat="49.52401" lon="3.50019">
        <ele>213.3</ele>
        <time>2015-02-02T14:05:49.374Z</time>
      </trkpt>
      <trkpt lat="49.52408" lon="3.50027">
        <ele>213</ele>
        <time>2015-02-02T14:05:56.414Z</time>
      </trkpt>
      <trkpt lat="49.5241" lon="3.50028">
        <ele>213.1</ele>
        <time>2015-02-02T14:05:57.419Z</time>
      </trkpt>
      <trkpt lat="49.52417" lon="3.50033">
        <ele>213.7</ele>
        <time>2015-02-02T14:06:03.415Z</time>
      </trkpt>
      <trkpt lat="49.52418" lon="3.50035">
        <ele>213.7</ele>
        <time>2015-02-02T14:06:04.422Z</time>
      </trkpt>
      <trkpt lat="49.52425" lon="3.50042">
        <ele>213.8</ele>
        <time>2015-02-02T14:06:10.397Z</time>
      </trkpt>
      <trkpt lat="49.52426" lon="3.50043">
        <ele>213.8</ele>
        <time>2015-02-02T14:06:11.406Z</time>
      </trkpt>
      <trkpt lat="49.52429" lon="3.50054">
        <ele>214</ele>
        <time>2015-02-02T14:06:20.387Z</time>
      </trkpt>
      <trkpt lat="49.5243" lon="3.50056">
        <ele>214</ele>
        <time>2015-02-02T14:06:21.396Z</time>
      </trkpt>
      <trkpt lat="49.52436" lon="3.50063">
        <ele>214.5</ele>
        <time>2015-02-02T14:06:27.347Z</time>
      </trkpt>
      <trkpt lat="49.52437" lon="3.50064">
        <ele>214.6</ele>
        <time>2015-02-02T14:06:28.347Z</time>
      </trkpt>
      <trkpt lat="49.52444" lon="3.50071">
        <ele>214.9</ele>
        <time>2015-02-02T14:06:36.339Z</time>
      </trkpt>
      <trkpt lat="49.52446" lon="3.50072">
        <ele>214.9</ele>
        <time>2015-02-02T14:06:37.363Z</time>
      </trkpt>
      <trkpt lat="49.52454" lon="3.50074">
        <ele>215</ele>
        <time>2015-02-02T14:06:44.446Z</time>
      </trkpt>
      <trkpt lat="49.52456" lon="3.50076">
        <ele>215</ele>
        <time>2015-02-02T14:06:45.348Z</time>
      </trkpt>
      <trkpt lat="49.52462" lon="3.50083">
        <ele>215</ele>
        <time>2015-02-02T14:06:52.398Z</time>
      </trkpt>
      <trkpt lat="49.52463" lon="3.50085">
        <ele>214.7</ele>
        <time>2015-02-02T14:06:53.413Z</time>
      </trkpt>
      <trkpt lat="49.5247" lon="3.50093">
        <ele>214.6</ele>
        <time>2015-02-02T14:07:00.420Z</time>
      </trkpt>
      <trkpt lat="49.52471" lon="3.50094">
        <ele>214.4</ele>
        <time>2015-02-02T14:07:01.424Z</time>
      </trkpt>
      <trkpt lat="49.52479" lon="3.501">
        <ele>213.5</ele>
        <time>2015-02-02T14:07:08.388Z</time>
      </trkpt>
      <trkpt lat="49.5248" lon="3.50101">
        <ele>213.4</ele>
        <time>2015-02-02T14:07:09.393Z</time>
      </trkpt>
      <trkpt lat="49.52486" lon="3.50109">
        <ele>213</ele>
        <time>2015-02-02T14:07:17.363Z</time>
      </trkpt>
      <trkpt lat="49.52487" lon="3.50111">
        <ele>212.9</ele>
        <time>2015-02-02T14:07:18.365Z</time>
      </trkpt>
      <trkpt lat="49.52494" lon="3.50118">
        <ele>213</ele>
        <time>2015-02-02T14:07:27.351Z</time>
      </trkpt>
      <trkpt lat="49.52495" lon="3.50119">
        <ele>212.8</ele>
        <time>2015-02-02T14:07:28.348Z</time>
      </trkpt>
      <trkpt lat="49.52501" lon="3.50125">
        <ele>212.3</ele>
        <time>2015-02-02T14:07:35.362Z</time>
      </trkpt>
      <trkpt lat="49.52502" lon="3.50126">
        <ele>212.2</ele>
        <time>2015-02-02T14:07:36.363Z</time>
      </trkpt>
      <trkpt lat="49.5251" lon="3.50131">
        <ele>212.3</ele>
        <time>2015-02-02T14:07:44.030Z</time>
      </trkpt>
      <trkpt lat="49.52511" lon="3.50131">
        <ele>212.4</ele>
        <time>2015-02-02T14:07:44.436Z</time>
      </trkpt>
      <trkpt lat="49.52518" lon="3.50135">
        <ele>212.1</ele>
        <time>2015-02-02T14:07:50.389Z</time>
      </trkpt>
      <trkpt lat="49.5252" lon="3.50136">
        <ele>212.1</ele>
        <time>2015-02-02T14:07:51.391Z</time>
      </trkpt>
      <trkpt lat="49.52527" lon="3.50143">
        <ele>211.9</ele>
        <time>2015-02-02T14:07:57.355Z</time>
      </trkpt>
      <trkpt lat="49.52529" lon="3.50144">
        <ele>211.9</ele>
        <time>2015-02-02T14:07:58.344Z</time>
      </trkpt>
      <trkpt lat="49.52536" lon="3.5015">
        <ele>212</ele>
        <time>2015-02-02T14:08:05.332Z</time>
      </trkpt>
      <trkpt lat="49.52537" lon="3.50151">
        <ele>212</ele>
        <time>2015-02-02T14:08:06.333Z</time>
      </trkpt>
      <trkpt lat="49.52544" lon="3.50158">
        <ele>212</ele>
        <time>2015-02-02T14:08:12.408Z</time>
      </trkpt>
      <trkpt lat="49.52545" lon="3.5016">
        <ele>212.1</ele>
        <time>2015-02-02T14:08:13.417Z</time>
      </trkpt>
      <trkpt lat="49.52552" lon="3.50167">
        <ele>212.4</ele>
        <time>2015-02-02T14:08:20.381Z</time>
      </trkpt>
      <trkpt lat="49.52553" lon="3.50168">
        <ele>212.3</ele>
        <time>2015-02-02T14:08:21.391Z</time>
      </trkpt>
      <trkpt lat="49.52558" lon="3.50178">
        <ele>212.8</ele>
        <time>2015-02-02T14:08:28.347Z</time>
      </trkpt>
      <trkpt lat="49.52559" lon="3.50179">
        <ele>212.7</ele>
        <time>2015-02-02T14:08:29.346Z</time>
      </trkpt>
      <trkpt lat="49.52565" lon="3.50189">
        <ele>213</ele>
        <time>2015-02-02T14:08:36.408Z</time>
      </trkpt>
      <trkpt lat="49.52566" lon="3.5019">
        <ele>213.1</ele>
        <time>2015-02-02T14:08:37.412Z</time>
      </trkpt>
      <trkpt lat="49.52573" lon="3.50198">
        <ele>213.2</ele>
        <time>2015-02-02T14:08:44.390Z</time>
      </trkpt>
      <trkpt lat="49.52574" lon="3.502">
        <ele>213.1</ele>
        <time>2015-02-02T14:08:45.394Z</time>
      </trkpt>
      <trkpt lat="49.5258" lon="3.5021">
        <ele>214</ele>
        <time>2015-02-02T14:08:54.031Z</time>
      </trkpt>
      <trkpt lat="49.5258" lon="3.50212">
        <ele>214.2</ele>
        <time>2015-02-02T14:08:54.358Z</time>
      </trkpt>
      <trkpt lat="49.52585" lon="3.50221">
        <ele>214.9</ele>
        <time>2015-02-02T14:09:00.334Z</time>
      </trkpt>
      <trkpt lat="49.52586" lon="3.50222">
        <ele>215.1</ele>
        <time>2015-02-02T14:09:01.338Z</time>
      </trkpt>
      <trkpt lat="49.52592" lon="3.50232">
        <ele>215.9</ele>
        <time>2015-02-02T14:09:07.337Z</time>
      </trkpt>
      <trkpt lat="49.52593" lon="3.50234">
        <ele>215.9</ele>
        <time>2015-02-02T14:09:08.376Z</time>
      </trkpt>
      <trkpt lat="49.52599" lon="3.50242">
        <ele>216.3</ele>
        <time>2015-02-02T14:09:14.458Z</time>
      </trkpt>
      <trkpt lat="49.526" lon="3.50244">
        <ele>216.5</ele>
        <time>2015-02-02T14:09:15.405Z</time>
      </trkpt>
      <trkpt lat="49.52605" lon="3.50254">
        <ele>217.7</ele>
        <time>2015-02-02T14:09:22.379Z</time>
      </trkpt>
      <trkpt lat="49.52606" lon="3.50255">
        <ele>217.8</ele>
        <time>2015-02-02T14:09:23.390Z</time>
      </trkpt>
      <trkpt lat="49.52611" lon="3.50265">
        <ele>218.3</ele>
        <time>2015-02-02T14:09:29.553Z</time>
      </trkpt>
      <trkpt lat="49.52611" lon="3.50267">
        <ele>218.6</ele>
        <time>2015-02-02T14:09:30.335Z</time>
      </trkpt>
      <trkpt lat="49.52615" lon="3.50277">
        <ele>219.8</ele>
        <time>2015-02-02T14:09:37.434Z</time>
      </trkpt>
      <trkpt lat="49.52616" lon="3.50279">
        <ele>219.9</ele>
        <time>2015-02-02T14:09:38.436Z</time>
      </trkpt>
      <trkpt lat="49.5262" lon="3.50291">
        <ele>219.4</ele>
        <time>2015-02-02T14:09:45.395Z</time>
      </trkpt>
      <trkpt lat="49.52621" lon="3.50292">
        <ele>219.5</ele>
        <time>2015-02-02T14:09:46.411Z</time>
      </trkpt>
      <trkpt lat="49.52626" lon="3.50303">
        <ele>219.7</ele>
        <time>2015-02-02T14:09:54.090Z</time>
      </trkpt>
      <trkpt lat="49.52627" lon="3.50304">
        <ele>219.9</ele>
        <time>2015-02-02T14:09:54.362Z</time>
      </trkpt>
      <trkpt lat="49.52632" lon="3.50314">
        <ele>219.2</ele>
        <time>2015-02-02T14:10:00.403Z</time>
      </trkpt>
      <trkpt lat="49.52632" lon="3.50316">
        <ele>219.2</ele>
        <time>2015-02-02T14:10:01.410Z</time>
      </trkpt>
      <trkpt lat="49.52638" lon="3.50326">
        <ele>219.2</ele>
        <time>2015-02-02T14:10:08.391Z</time>
      </trkpt>
      <trkpt lat="49.52639" lon="3.50328">
        <ele>219.1</ele>
        <time>2015-02-02T14:10:09.383Z</time>
      </trkpt>
      <trkpt lat="49.52644" lon="3.50338">
        <ele>218.8</ele>
        <time>2015-02-02T14:10:18.348Z</time>
      </trkpt>
      <trkpt lat="49.52645" lon="3.50338">
        <ele>218.6</ele>
        <time>2015-02-02T14:10:19.347Z</time>
      </trkpt>
      <trkpt lat="49.52651" lon="3.50347">
        <ele>217.8</ele>
        <time>2015-02-02T14:10:25.411Z</time>
      </trkpt>
      <trkpt lat="49.52652" lon="3.50348">
        <ele>217.8</ele>
        <time>2015-02-02T14:10:26.422Z</time>
      </trkpt>
      <trkpt lat="49.52657" lon="3.50358">
        <ele>217.9</ele>
        <time>2015-02-02T14:10:32.402Z</time>
      </trkpt>
      <trkpt lat="49.52658" lon="3.50359">
        <ele>218</ele>
        <time>2015-02-02T14:10:33.398Z</time>
      </trkpt>
      <trkpt lat="49.52663" lon="3.50369">
        <ele>218</ele>
        <time>2015-02-02T14:10:39.432Z</time>
      </trkpt>
      <trkpt lat="49.52664" lon="3.5037">
        <ele>218</ele>
        <time>2015-02-02T14:10:40.344Z</time>
      </trkpt>
      <trkpt lat="49.52668" lon="3.50381">
        <ele>218.5</ele>
        <time>2015-02-02T14:10:46.397Z</time>
      </trkpt>
      <trkpt lat="49.52669" lon="3.50382">
        <ele>218.4</ele>
        <time>2015-02-02T14:10:47.398Z</time>
      </trkpt>
      <trkpt lat="49.52674" lon="3.50392">
        <ele>218.6</ele>
        <time>2015-02-02T14:10:54.031Z</time>
      </trkpt>
      <trkpt lat="49.52675" lon="3.50393">
        <ele>218.6</ele>
        <time>2015-02-02T14:10:54.350Z</time>
      </trkpt>
      <trkpt lat="49.52679" lon="3.50404">
        <ele>219.1</ele>
        <time>2015-02-02T14:11:00.415Z</time>
      </trkpt>
      <trkpt lat="49.5268" lon="3.50405">
        <ele>219.3</ele>
        <time>2015-02-02T14:11:01.420Z</time>
      </trkpt>
      <trkpt lat="49.52685" lon="3.50415">
        <ele>219.7</ele>
        <time>2015-02-02T14:11:07.376Z</time>
      </trkpt>
      <trkpt lat="49.52686" lon="3.50416">
        <ele>219.7</ele>
        <time>2015-02-02T14:11:08.377Z</time>
      </trkpt>
      <trkpt lat="49.5269" lon="3.50426">
        <ele>219.7</ele>
        <time>2015-02-02T14:11:14.409Z</time>
      </trkpt>
      <trkpt lat="49.52691" lon="3.50428">
        <ele>219.7</ele>
        <time>2015-02-02T14:11:15.419Z</time>
      </trkpt>
      <trkpt lat="49.52696" lon="3.50438">
        <ele>219.6</ele>
        <time>2015-02-02T14:11:21.382Z</time>
      </trkpt>
      <trkpt lat="49.52696" lon="3.50439">
        <ele>219.6</ele>
        <time>2015-02-02T14:11:22.386Z</time>
      </trkpt>
      <trkpt lat="49.52701" lon="3.50451">
        <ele>220.3</ele>
        <time>2015-02-02T14:11:29.675Z</time>
      </trkpt>
      <trkpt lat="49.52702" lon="3.50452">
        <ele>220.3</ele>
        <time>2015-02-02T14:11:30.334Z</time>
      </trkpt>
      <trkpt lat="49.52706" lon="3.50463">
        <ele>221</ele>
        <time>2015-02-02T14:11:37.392Z</time>
      </trkpt>
      <trkpt lat="49.52707" lon="3.50465">
        <ele>221.2</ele>
        <time>2015-02-02T14:11:38.400Z</time>
      </trkpt>
      <trkpt lat="49.52711" lon="3.50475">
        <ele>222.1</ele>
        <time>2015-02-02T14:11:44.375Z</time>
      </trkpt>
      <trkpt lat="49.52712" lon="3.50477">
        <ele>222.2</ele>
        <time>2015-02-02T14:11:45.382Z</time>
      </trkpt>
      <trkpt lat="49.52716" lon="3.50489">
        <ele>222.4</ele>
        <time>2015-02-02T14:11:52.432Z</time>
      </trkpt>
      <trkpt lat="49.52717" lon="3.5049">
        <ele>222.6</ele>
        <time>2015-02-02T14:11:53.339Z</time>
      </trkpt>
      <trkpt lat="49.52722" lon="3.50502">
        <ele>223.8</ele>
        <time>2015-02-02T14:12:01.418Z</time>
      </trkpt>
      <trkpt lat="49.52722" lon="3.50503">
        <ele>223.8</ele>
        <time>2015-02-02T14:12:02.427Z</time>
      </trkpt>
      <trkpt lat="49.52728" lon="3.50514">
        <ele>224</ele>
        <time>2015-02-02T14:12:10.387Z</time>
      </trkpt>
      <trkpt lat="49.52728" lon="3.50515">
        <ele>224</ele>
        <time>2015-02-02T14:12:11.391Z</time>
      </trkpt>
      <trkpt lat="49.52733" lon="3.50526">
        <ele>224.2</ele>
        <time>2015-02-02T14:12:17.344Z</time>
      </trkpt>
      <trkpt lat="49.52733" lon="3.50528">
        <ele>224.4</ele>
        <time>2015-02-02T14:12:18.357Z</time>
      </trkpt>
      <trkpt lat="49.52738" lon="3.50538">
        <ele>224.8</ele>
        <time>2015-02-02T14:12:24.415Z</time>
      </trkpt>
      <trkpt lat="49.52738" lon="3.5054">
        <ele>224.9</ele>
        <time>2015-02-02T14:12:25.424Z</time>
      </trkpt>
      <trkpt lat="49.52744" lon="3.5055">
        <ele>224.5</ele>
        <time>2015-02-02T14:12:32.722Z</time>
      </trkpt>
      <trkpt lat="49.52745" lon="3.50552">
        <ele>224.5</ele>
        <time>2015-02-02T14:12:33.334Z</time>
      </trkpt>
      <trkpt lat="49.52749" lon="3.50562">
        <ele>224.7</ele>
        <time>2015-02-02T14:12:39.393Z</time>
      </trkpt>
      <trkpt lat="49.52749" lon="3.50564">
        <ele>224.9</ele>
        <time>2015-02-02T14:12:40.394Z</time>
      </trkpt>
      <trkpt lat="49.52754" lon="3.50576">
        <ele>226</ele>
        <time>2015-02-02T14:12:47.348Z</time>
      </trkpt>
      <trkpt lat="49.52755" lon="3.50578">
        <ele>226</ele>
        <time>2015-02-02T14:12:48.350Z</time>
      </trkpt>
      <trkpt lat="49.5276" lon="3.50589">
        <ele>225.7</ele>
        <time>2015-02-02T14:12:56.392Z</time>
      </trkpt>
      <trkpt lat="49.52761" lon="3.5059">
        <ele>225.6</ele>
        <time>2015-02-02T14:12:57.409Z</time>
      </trkpt>
      <trkpt lat="49.52766" lon="3.506">
        <ele>225.6</ele>
        <time>2015-02-02T14:13:05.360Z</time>
      </trkpt>
      <trkpt lat="49.52767" lon="3.50602">
        <ele>225.5</ele>
        <time>2015-02-02T14:13:06.367Z</time>
      </trkpt>
      <trkpt lat="49.52772" lon="3.50611">
        <ele>225.9</ele>
        <time>2015-02-02T14:13:13.459Z</time>
      </trkpt>
      <trkpt lat="49.52772" lon="3.50612">
        <ele>225.9</ele>
        <time>2015-02-02T14:13:14.434Z</time>
      </trkpt>
      <trkpt lat="49.52778" lon="3.50622">
        <ele>225.3</ele>
        <time>2015-02-02T14:13:21.386Z</time>
      </trkpt>
      <trkpt lat="49.52778" lon="3.50624">
        <ele>225.2</ele>
        <time>2015-02-02T14:13:22.390Z</time>
      </trkpt>
      <trkpt lat="49.52784" lon="3.50634">
        <ele>224.5</ele>
        <time>2015-02-02T14:13:30.349Z</time>
      </trkpt>
      <trkpt lat="49.52785" lon="3.50636">
        <ele>224.4</ele>
        <time>2015-02-02T14:13:31.356Z</time>
      </trkpt>
      <trkpt lat="49.52789" lon="3.50646">
        <ele>224.6</ele>
        <time>2015-02-02T14:13:37.353Z</time>
      </trkpt>
      <trkpt lat="49.52789" lon="3.50648">
        <ele>224.7</ele>
        <time>2015-02-02T14:13:38.377Z</time>
      </trkpt>
      <trkpt lat="49.52793" lon="3.50658">
        <ele>225.3</ele>
        <time>2015-02-02T14:13:44.409Z</time>
      </trkpt>
      <trkpt lat="49.52794" lon="3.50659">
        <ele>225.3</ele>
        <time>2015-02-02T14:13:45.419Z</time>
      </trkpt>
      <trkpt lat="49.528" lon="3.50668">
        <ele>224.3</ele>
        <time>2015-02-02T14:13:52.401Z</time>
      </trkpt>
      <trkpt lat="49.528" lon="3.50669">
        <ele>224.3</ele>
        <time>2015-02-02T14:13:53.399Z</time>
      </trkpt>
      <trkpt lat="49.52806" lon="3.50678">
        <ele>224.3</ele>
        <time>2015-02-02T14:13:59.338Z</time>
      </trkpt>
      <trkpt lat="49.52807" lon="3.5068">
        <ele>224.4</ele>
        <time>2015-02-02T14:14:00.344Z</time>
      </trkpt>
      <trkpt lat="49.52812" lon="3.50691">
        <ele>224.7</ele>
        <time>2015-02-02T14:14:07.364Z</time>
      </trkpt>
      <trkpt lat="49.52813" lon="3.50692">
        <ele>224.8</ele>
        <time>2015-02-02T14:14:08.394Z</time>
      </trkpt>
      <trkpt lat="49.52818" lon="3.50703">
        <ele>225.8</ele>
        <time>2015-02-02T14:14:16.351Z</time>
      </trkpt>
      <trkpt lat="49.52819" lon="3.50705">
        <ele>225.8</ele>
        <time>2015-02-02T14:14:17.353Z</time>
      </trkpt>
      <trkpt lat="49.52824" lon="3.50714">
        <ele>225.6</ele>
        <time>2015-02-02T14:14:24.428Z</time>
      </trkpt>
      <trkpt lat="49.52825" lon="3.50715">
        <ele>225.6</ele>
        <time>2015-02-02T14:14:25.346Z</time>
      </trkpt>
      <trkpt lat="49.52831" lon="3.50723">
        <ele>225.5</ele>
        <time>2015-02-02T14:14:31.425Z</time>
      </trkpt>
      <trkpt lat="49.52832" lon="3.50725">
        <ele>225.6</ele>
        <time>2015-02-02T14:14:32.435Z</time>
      </trkpt>
      <trkpt lat="49.52837" lon="3.50734">
        <ele>226.2</ele>
        <time>2015-02-02T14:14:39.396Z</time>
      </trkpt>
      <trkpt lat="49.52838" lon="3.50735">
        <ele>226.2</ele>
        <time>2015-02-02T14:14:40.409Z</time>
      </trkpt>
      <trkpt lat="49.52844" lon="3.50745">
        <ele>226.6</ele>
        <time>2015-02-02T14:14:47.358Z</time>
      </trkpt>
      <trkpt lat="49.52845" lon="3.50747">
        <ele>226.7</ele>
        <time>2015-02-02T14:14:48.363Z</time>
      </trkpt>
      <trkpt lat="49.5285" lon="3.50757">
        <ele>227</ele>
        <time>2015-02-02T14:14:54.426Z</time>
      </trkpt>
      <trkpt lat="49.5285" lon="3.50758">
        <ele>226.9</ele>
        <time>2015-02-02T14:14:55.440Z</time>
      </trkpt>
      <trkpt lat="49.52857" lon="3.50766">
        <ele>227.2</ele>
        <time>2015-02-02T14:15:02.424Z</time>
      </trkpt>
      <trkpt lat="49.52858" lon="3.50767">
        <ele>227.3</ele>
        <time>2015-02-02T14:15:03.419Z</time>
      </trkpt>
      <trkpt lat="49.52863" lon="3.50777">
        <ele>227.7</ele>
        <time>2015-02-02T14:15:10.397Z</time>
      </trkpt>
      <trkpt lat="49.52864" lon="3.50779">
        <ele>227.6</ele>
        <time>2015-02-02T14:15:11.402Z</time>
      </trkpt>
      <trkpt lat="49.5287" lon="3.50789">
        <ele>227.3</ele>
        <time>2015-02-02T14:15:18.352Z</time>
      </trkpt>
      <trkpt lat="49.52871" lon="3.5079">
        <ele>227.3</ele>
        <time>2015-02-02T14:15:19.349Z</time>
      </trkpt>
      <trkpt lat="49.52876" lon="3.508">
        <ele>227.4</ele>
        <time>2015-02-02T14:15:26.397Z</time>
      </trkpt>
      <trkpt lat="49.52877" lon="3.50802">
        <ele>227.4</ele>
        <time>2015-02-02T14:15:27.395Z</time>
      </trkpt>
      <trkpt lat="49.52883" lon="3.50812">
        <ele>227.4</ele>
        <time>2015-02-02T14:15:34.658Z</time>
      </trkpt>
      <trkpt lat="49.52884" lon="3.50814">
        <ele>227.4</ele>
        <time>2015-02-02T14:15:35.361Z</time>
      </trkpt>
      <trkpt lat="49.52889" lon="3.50825">
        <ele>227.9</ele>
        <time>2015-02-02T14:15:42.422Z</time>
      </trkpt>
      <trkpt lat="49.52889" lon="3.50826">
        <ele>228.1</ele>
        <time>2015-02-02T14:15:43.427Z</time>
      </trkpt>
      <trkpt lat="49.52894" lon="3.50837">
        <ele>228.3</ele>
        <time>2015-02-02T14:15:50.403Z</time>
      </trkpt>
      <trkpt lat="49.52895" lon="3.50838">
        <ele>228.2</ele>
        <time>2015-02-02T14:15:51.407Z</time>
      </trkpt>
      <trkpt lat="49.52899" lon="3.50849">
        <ele>228.4</ele>
        <time>2015-02-02T14:15:57.356Z</time>
      </trkpt>
      <trkpt lat="49.529" lon="3.50851">
        <ele>228.5</ele>
        <time>2015-02-02T14:15:58.355Z</time>
      </trkpt>
      <trkpt lat="49.52903" lon="3.50862">
        <ele>229.3</ele>
        <time>2015-02-02T14:16:04.342Z</time>
      </trkpt>
      <trkpt lat="49.52904" lon="3.50864">
        <ele>229.5</ele>
        <time>2015-02-02T14:16:05.344Z</time>
      </trkpt>
      <trkpt lat="49.52907" lon="3.50876">
        <ele>230.5</ele>
        <time>2015-02-02T14:16:11.405Z</time>
      </trkpt>
      <trkpt lat="49.52907" lon="3.50878">
        <ele>230.5</ele>
        <time>2015-02-02T14:16:12.413Z</time>
      </trkpt>
      <trkpt lat="49.52912" lon="3.50889">
        <ele>230.2</ele>
        <time>2015-02-02T14:16:20.393Z</time>
      </trkpt>
      <trkpt lat="49.52912" lon="3.50891">
        <ele>230.1</ele>
        <time>2015-02-02T14:16:21.403Z</time>
      </trkpt>
      <trkpt lat="49.52916" lon="3.50901">
        <ele>229.2</ele>
        <time>2015-02-02T14:16:29.192Z</time>
      </trkpt>
      <trkpt lat="49.52917" lon="3.50903">
        <ele>229.3</ele>
        <time>2015-02-02T14:16:29.362Z</time>
      </trkpt>
      <trkpt lat="49.5292" lon="3.50915">
        <ele>229.8</ele>
        <time>2015-02-02T14:16:36.340Z</time>
      </trkpt>
      <trkpt lat="49.5292" lon="3.50916">
        <ele>230</ele>
        <time>2015-02-02T14:16:37.370Z</time>
      </trkpt>
      <trkpt lat="49.52924" lon="3.50928">
        <ele>230.2</ele>
        <time>2015-02-02T14:16:45.417Z</time>
      </trkpt>
      <trkpt lat="49.52924" lon="3.5093">
        <ele>230.3</ele>
        <time>2015-02-02T14:16:46.422Z</time>
      </trkpt>
      <trkpt lat="49.52925" lon="3.5094">
        <ele>230</ele>
        <time>2015-02-02T14:16:54.027Z</time>
      </trkpt>
      <trkpt lat="49.52928" lon="3.50944">
        <ele>230.1</ele>
        <time>2015-02-02T14:16:56.428Z</time>
      </trkpt>
      <trkpt lat="49.52935" lon="3.50954">
        <ele>229.8</ele>
        <time>2015-02-02T14:17:04.358Z</time>
      </trkpt>
      <trkpt lat="49.52936" lon="3.50956">
        <ele>229.9</ele>
        <time>2015-02-02T14:17:04.416Z</time>
      </trkpt>
      <trkpt lat="49.52942" lon="3.50964">
        <ele>230.3</ele>
        <time>2015-02-02T14:17:10.390Z</time>
      </trkpt>
      <trkpt lat="49.52943" lon="3.50965">
        <ele>230.3</ele>
        <time>2015-02-02T14:17:11.396Z</time>
      </trkpt>
      <trkpt lat="49.52948" lon="3.50974">
        <ele>230.5</ele>
        <time>2015-02-02T14:17:18.358Z</time>
      </trkpt>
      <trkpt lat="49.52948" lon="3.50976">
        <ele>230.4</ele>
        <time>2015-02-02T14:17:19.366Z</time>
      </trkpt>
      <trkpt lat="49.52956" lon="3.50982">
        <ele>230.4</ele>
        <time>2015-02-02T14:17:27.410Z</time>
      </trkpt>
      <trkpt lat="49.52957" lon="3.50983">
        <ele>230.5</ele>
        <time>2015-02-02T14:17:28.417Z</time>
      </trkpt>
      <trkpt lat="49.52963" lon="3.50991">
        <ele>230.9</ele>
        <time>2015-02-02T14:17:35.330Z</time>
      </trkpt>
      <trkpt lat="49.52965" lon="3.50992">
        <ele>230.9</ele>
        <time>2015-02-02T14:17:36.335Z</time>
      </trkpt>
      <trkpt lat="49.52969" lon="3.51003">
        <ele>231.6</ele>
        <time>2015-02-02T14:17:41.384Z</time>
      </trkpt>
      <trkpt lat="49.52971" lon="3.51004">
        <ele>231.6</ele>
        <time>2015-02-02T14:17:42.390Z</time>
      </trkpt>
      <trkpt lat="49.52978" lon="3.51012">
        <ele>232</ele>
        <time>2015-02-02T14:17:49.349Z</time>
      </trkpt>
      <trkpt lat="49.52979" lon="3.51013">
        <ele>232.1</ele>
        <time>2015-02-02T14:17:50.379Z</time>
      </trkpt>
      <trkpt lat="49.52987" lon="3.51011">
        <ele>231.9</ele>
        <time>2015-02-02T14:17:56.430Z</time>
      </trkpt>
      <trkpt lat="49.52989" lon="3.51012">
        <ele>231.9</ele>
        <time>2015-02-02T14:17:57.339Z</time>
      </trkpt>
      <trkpt lat="49.52995" lon="3.51021">
        <ele>230.7</ele>
        <time>2015-02-02T14:18:04.558Z</time>
      </trkpt>
      <trkpt lat="49.52996" lon="3.51023">
        <ele>230.5</ele>
        <time>2015-02-02T14:18:05.305Z</time>
      </trkpt>
      <trkpt lat="49.53002" lon="3.51031">
        <ele>230.3</ele>
        <time>2015-02-02T14:18:11.384Z</time>
      </trkpt>
      <trkpt lat="49.53003" lon="3.51031">
        <ele>230.2</ele>
        <time>2015-02-02T14:18:12.394Z</time>
      </trkpt>
      <trkpt lat="49.53011" lon="3.51036">
        <ele>230</ele>
        <time>2015-02-02T14:18:19.358Z</time>
      </trkpt>
      <trkpt lat="49.53012" lon="3.51037">
        <ele>230</ele>
        <time>2015-02-02T14:18:20.371Z</time>
      </trkpt>
      <trkpt lat="49.5302" lon="3.51042">
        <ele>229.4</ele>
        <time>2015-02-02T14:18:27.374Z</time>
      </trkpt>
      <trkpt lat="49.53021" lon="3.51044">
        <ele>228.8</ele>
        <time>2015-02-02T14:18:28.376Z</time>
      </trkpt>
      <trkpt lat="49.5303" lon="3.5104">
        <ele>227.6</ele>
        <time>2015-02-02T14:18:36.378Z</time>
      </trkpt>
      <trkpt lat="49.53031" lon="3.5104">
        <ele>227.5</ele>
        <time>2015-02-02T14:18:37.371Z</time>
      </trkpt>
      <trkpt lat="49.53038" lon="3.51034">
        <ele>228.6</ele>
        <time>2015-02-02T14:18:49.115Z</time>
      </trkpt>
      <trkpt lat="49.53039" lon="3.51033">
        <ele>228.5</ele>
        <time>2015-02-02T14:18:49.366Z</time>
      </trkpt>
      <trkpt lat="49.53042" lon="3.5103">
        <ele>228.3</ele>
        <time>2015-02-02T14:18:54.131Z</time>
      </trkpt>
      <trkpt lat="49.53042" lon="3.5103">
        <ele>228.3</ele>
        <time>2015-02-02T14:18:54.427Z</time>
      </trkpt>
      <trkpt lat="49.53041" lon="3.5103">
        <ele>228.6</ele>
        <time>2015-02-02T14:19:52.367Z</time>
      </trkpt>
      <trkpt lat="49.5304" lon="3.51031">
        <ele>231.4</ele>
        <time>2015-02-02T14:19:53.371Z</time>
      </trkpt>
      <trkpt lat="49.53041" lon="3.51031">
        <ele>232.3</ele>
        <time>2015-02-02T14:20:01.457Z</time>
      </trkpt>
      <trkpt lat="49.53041" lon="3.51031">
        <ele>232.3</ele>
        <time>2015-02-02T14:20:02.474Z</time>
      </trkpt>
      <trkpt lat="49.5304" lon="3.51032">
        <ele>232.4</ele>
        <time>2015-02-02T14:20:40.371Z</time>
      </trkpt>
      <trkpt lat="49.53043" lon="3.5103">
        <ele>231.4</ele>
        <time>2015-02-02T14:20:41.376Z</time>
      </trkpt>
      <trkpt lat="49.53044" lon="3.51028">
        <ele>231.5</ele>
        <time>2015-02-02T14:20:44.418Z</time>
      </trkpt>
      <trkpt lat="49.53044" lon="3.51027">
        <ele>231.1</ele>
        <time>2015-02-02T14:20:45.424Z</time>
      </trkpt>
      <trkpt lat="49.53044" lon="3.51026">
        <ele>230.7</ele>
        <time>2015-02-02T14:21:09.419Z</time>
      </trkpt>
      <trkpt lat="49.53042" lon="3.5103">
        <ele>232.1</ele>
        <time>2015-02-02T14:21:10.425Z</time>
      </trkpt>
      <trkpt lat="49.53042" lon="3.5103">
        <ele>232.1</ele>
        <time>2015-02-02T14:21:12.511Z</time>
      </trkpt>
      <trkpt lat="49.53042" lon="3.5103">
        <ele>232.2</ele>
        <time>2015-02-02T14:21:13.356Z</time>
      </trkpt>
      <trkpt lat="49.53042" lon="3.5103">
        <ele>232.2</ele>
        <time>2015-02-02T14:21:35.399Z</time>
      </trkpt>
      <trkpt lat="49.53041" lon="3.51028">
        <ele>232.3</ele>
        <time>2015-02-02T14:21:36.389Z</time>
      </trkpt>
      <trkpt lat="49.5304" lon="3.51028">
        <ele>232.3</ele>
        <time>2015-02-02T14:21:37.392Z</time>
      </trkpt>
      <trkpt lat="49.53041" lon="3.51029">
        <ele>232.2</ele>
        <time>2015-02-02T14:21:48.442Z</time>
      </trkpt>
      <trkpt lat="49.53042" lon="3.51029">
        <ele>232</ele>
        <time>2015-02-02T14:21:49.355Z</time>
      </trkpt>
      <trkpt lat="49.53043" lon="3.51027">
        <ele>231.4</ele>
        <time>2015-02-02T14:21:51.365Z</time>
      </trkpt>
      <trkpt lat="49.53044" lon="3.51027">
        <ele>231.4</ele>
        <time>2015-02-02T14:21:52.368Z</time>
      </trkpt>
      <trkpt lat="49.53044" lon="3.51027">
        <ele>231.5</ele>
        <time>2015-02-02T14:21:53.378Z</time>
      </trkpt>
      <trkpt lat="49.53045" lon="3.51027">
        <ele>231.4</ele>
        <time>2015-02-02T14:21:54.387Z</time>
      </trkpt>
      <trkpt lat="49.53045" lon="3.51027">
        <ele>231.4</ele>
        <time>2015-02-02T14:21:55.397Z</time>
      </trkpt>
      <trkpt lat="49.53045" lon="3.51027">
        <ele>231.2</ele>
        <time>2015-02-02T14:21:56.420Z</time>
      </trkpt>
      <trkpt lat="49.53041" lon="3.51024">
        <ele>230.5</ele>
        <time>2015-02-02T14:23:22.420Z</time>
      </trkpt>
      <trkpt lat="49.53041" lon="3.51024">
        <ele>230.6</ele>
        <time>2015-02-02T14:23:23.424Z</time>
      </trkpt>
      <trkpt lat="49.53041" lon="3.51024">
        <ele>230.8</ele>
        <time>2015-02-02T14:23:34.430Z</time>
      </trkpt>
      <trkpt lat="49.53041" lon="3.51024">
        <ele>230.7</ele>
        <time>2015-02-02T14:23:35.436Z</time>
      </trkpt>
      <trkpt lat="49.5304" lon="3.51021">
        <ele>230.8</ele>
        <time>2015-02-02T14:24:09.418Z</time>
      </trkpt>
      <trkpt lat="49.53039" lon="3.51021">
        <ele>230.8</ele>
        <time>2015-02-02T14:24:10.425Z</time>
      </trkpt>
      <trkpt lat="49.53039" lon="3.51021">
        <ele>230.9</ele>
        <time>2015-02-02T14:24:11.437Z</time>
      </trkpt>
      <trkpt lat="49.53036" lon="3.5102">
        <ele>231.8</ele>
        <time>2015-02-02T14:25:11.385Z</time>
      </trkpt>
      <trkpt lat="49.53036" lon="3.51021">
        <ele>231.9</ele>
        <time>2015-02-02T14:25:12.391Z</time>
      </trkpt>
      <trkpt lat="49.53035" lon="3.51021">
        <ele>232</ele>
        <time>2015-02-02T14:25:13.411Z</time>
      </trkpt>
      <trkpt lat="49.53034" lon="3.51021">
        <ele>232</ele>
        <time>2015-02-02T14:25:15.330Z</time>
      </trkpt>
      <trkpt lat="49.53034" lon="3.51021">
        <ele>232</ele>
        <time>2015-02-02T14:25:16.362Z</time>
      </trkpt>
      <trkpt lat="49.53034" lon="3.51021">
        <ele>231.9</ele>
        <time>2015-02-02T14:25:21.408Z</time>
      </trkpt>
      <trkpt lat="49.53035" lon="3.51021">
        <ele>232</ele>
        <time>2015-02-02T14:25:22.422Z</time>
      </trkpt>
      <trkpt lat="49.53036" lon="3.51021">
        <ele>232.1</ele>
        <time>2015-02-02T14:25:23.338Z</time>
      </trkpt>
      <trkpt lat="49.53036" lon="3.51021">
        <ele>232.2</ele>
        <time>2015-02-02T14:25:24.347Z</time>
      </trkpt>
      <trkpt lat="49.53036" lon="3.51021">
        <ele>232.3</ele>
        <time>2015-02-02T14:25:34.331Z</time>
      </trkpt>
      <trkpt lat="49.53036" lon="3.51019">
        <ele>233</ele>
        <time>2015-02-02T14:25:35.341Z</time>
      </trkpt>
      <trkpt lat="49.53036" lon="3.51018">
        <ele>233</ele>
        <time>2015-02-02T14:25:36.366Z</time>
      </trkpt>
      <trkpt lat="49.53036" lon="3.51018">
        <ele>233</ele>
        <time>2015-02-02T14:25:37.372Z</time>
      </trkpt>
      <trkpt lat="49.53036" lon="3.51018">
        <ele>232.9</ele>
        <time>2015-02-02T14:25:43.420Z</time>
      </trkpt>
      <trkpt lat="49.53037" lon="3.51018">
        <ele>232.6</ele>
        <time>2015-02-02T14:25:44.431Z</time>
      </trkpt>
      <trkpt lat="49.53037" lon="3.51018">
        <ele>232.6</ele>
        <time>2015-02-02T14:25:45.335Z</time>
      </trkpt>
      <trkpt lat="49.53037" lon="3.51018">
        <ele>232.7</ele>
        <time>2015-02-02T14:25:46.344Z</time>
      </trkpt>
      <trkpt lat="49.53037" lon="3.51018">
        <ele>232.6</ele>
        <time>2015-02-02T14:25:49.366Z</time>
      </trkpt>
      <trkpt lat="49.53037" lon="3.5102">
        <ele>232.4</ele>
        <time>2015-02-02T14:25:50.375Z</time>
      </trkpt>
      <trkpt lat="49.53037" lon="3.51022">
        <ele>232.3</ele>
        <time>2015-02-02T14:25:52.387Z</time>
      </trkpt>
      <trkpt lat="49.53038" lon="3.51023">
        <ele>232.2</ele>
        <time>2015-02-02T14:25:53.395Z</time>
      </trkpt>
      <trkpt lat="49.53037" lon="3.51023">
        <ele>232.3</ele>
        <time>2015-02-02T14:25:55.416Z</time>
      </trkpt>
      <trkpt lat="49.53037" lon="3.51023">
        <ele>232.3</ele>
        <time>2015-02-02T14:25:56.429Z</time>
      </trkpt>
      <trkpt lat="49.53031" lon="3.51029">
        <ele>231.7</ele>
        <time>2015-02-02T14:26:08.452Z</time>
      </trkpt>
      <trkpt lat="49.53032" lon="3.51029">
        <ele>231.6</ele>
        <time>2015-02-02T14:26:09.352Z</time>
      </trkpt>
      <trkpt lat="49.53032" lon="3.51029">
        <ele>231.7</ele>
        <time>2015-02-02T14:26:10.348Z</time>
      </trkpt>
      <trkpt lat="49.53039" lon="3.51027">
        <ele>231.4</ele>
        <time>2015-02-02T14:26:19.429Z</time>
      </trkpt>
      <trkpt lat="49.53039" lon="3.51027">
        <ele>231.3</ele>
        <time>2015-02-02T14:26:20.438Z</time>
      </trkpt>
      <trkpt lat="49.53039" lon="3.51027">
        <ele>231.2</ele>
        <time>2015-02-02T14:26:21.407Z</time>
      </trkpt>
      <trkpt lat="49.5304" lon="3.51027">
        <ele>231.2</ele>
        <time>2015-02-02T14:26:22.340Z</time>
      </trkpt>
      <trkpt lat="49.53043" lon="3.51026">
        <ele>231.1</ele>
        <time>2015-02-02T14:26:26.376Z</time>
      </trkpt>
      <trkpt lat="49.53043" lon="3.51026">
        <ele>231</ele>
        <time>2015-02-02T14:26:27.377Z</time>
      </trkpt>
      <trkpt lat="49.53043" lon="3.51026">
        <ele>231</ele>
        <time>2015-02-02T14:26:28.389Z</time>
      </trkpt>
      <trkpt lat="49.53043" lon="3.51026">
        <ele>231</ele>
        <time>2015-02-02T14:26:29.391Z</time>
      </trkpt>
      <trkpt lat="49.53044" lon="3.51026">
        <ele>230.9</ele>
        <time>2015-02-02T14:26:30.396Z</time>
      </trkpt>
      <trkpt lat="49.53045" lon="3.51026">
        <ele>230.8</ele>
        <time>2015-02-02T14:26:31.418Z</time>
      </trkpt>
      <trkpt lat="49.53046" lon="3.51026">
        <ele>230.8</ele>
        <time>2015-02-02T14:26:32.429Z</time>
      </trkpt>
      <trkpt lat="49.53054" lon="3.51024">
        <ele>230.6</ele>
        <time>2015-02-02T14:26:36.351Z</time>
      </trkpt>
      <trkpt lat="49.53055" lon="3.51023">
        <ele>230.7</ele>
        <time>2015-02-02T14:26:37.358Z</time>
      </trkpt>
      <trkpt lat="49.53058" lon="3.51022">
        <ele>230.8</ele>
        <time>2015-02-02T14:26:40.382Z</time>
      </trkpt>
      <trkpt lat="49.53058" lon="3.51022">
        <ele>230.9</ele>
        <time>2015-02-02T14:26:41.383Z</time>
      </trkpt>
      <trkpt lat="49.53059" lon="3.51023">
        <ele>230.9</ele>
        <time>2015-02-02T14:26:42.398Z</time>
      </trkpt>
      <trkpt lat="49.53062" lon="3.51026">
        <ele>230.8</ele>
        <time>2015-02-02T14:26:46.428Z</time>
      </trkpt>
      <trkpt lat="49.53063" lon="3.51027">
        <ele>230.8</ele>
        <time>2015-02-02T14:26:47.437Z</time>
      </trkpt>
      <trkpt lat="49.53063" lon="3.51026">
        <ele>230.7</ele>
        <time>2015-02-02T14:26:48.343Z</time>
      </trkpt>
      <trkpt lat="49.5307" lon="3.5103">
        <ele>229.9</ele>
        <time>2015-02-02T14:26:52.404Z</time>
      </trkpt>
      <trkpt lat="49.53071" lon="3.51032">
        <ele>229.9</ele>
        <time>2015-02-02T14:26:53.405Z</time>
      </trkpt>
      <trkpt lat="49.53078" lon="3.51038">
        <ele>229.6</ele>
        <time>2015-02-02T14:27:00.361Z</time>
      </trkpt>
      <trkpt lat="49.53079" lon="3.51039">
        <ele>229.4</ele>
        <time>2015-02-02T14:27:01.369Z</time>
      </trkpt>
      <trkpt lat="49.53085" lon="3.51049">
        <ele>229.1</ele>
        <time>2015-02-02T14:27:10.360Z</time>
      </trkpt>
      <trkpt lat="49.53085" lon="3.5105">
        <ele>229</ele>
        <time>2015-02-02T14:27:11.358Z</time>
      </trkpt>
      <trkpt lat="49.53083" lon="3.51063">
        <ele>228.3</ele>
        <time>2015-02-02T14:27:19.486Z</time>
      </trkpt>
      <trkpt lat="49.53084" lon="3.51065">
        <ele>228.1</ele>
        <time>2015-02-02T14:27:20.406Z</time>
      </trkpt>
      <trkpt lat="49.53089" lon="3.51075">
        <ele>227.5</ele>
        <time>2015-02-02T14:27:24.518Z</time>
      </trkpt>
      <trkpt lat="49.53091" lon="3.51076">
        <ele>227.5</ele>
        <time>2015-02-02T14:27:25.359Z</time>
      </trkpt>
      <trkpt lat="49.53097" lon="3.51084">
        <ele>226.7</ele>
        <time>2015-02-02T14:27:29.572Z</time>
      </trkpt>
      <trkpt lat="49.53098" lon="3.51085">
        <ele>226.8</ele>
        <time>2015-02-02T14:27:30.408Z</time>
      </trkpt>
      <trkpt lat="49.53103" lon="3.51096">
        <ele>226.5</ele>
        <time>2015-02-02T14:27:36.347Z</time>
      </trkpt>
      <trkpt lat="49.53105" lon="3.51098">
        <ele>226.6</ele>
        <time>2015-02-02T14:27:37.353Z</time>
      </trkpt>
      <trkpt lat="49.53112" lon="3.51105">
        <ele>226.7</ele>
        <time>2015-02-02T14:27:43.967Z</time>
      </trkpt>
      <trkpt lat="49.53113" lon="3.51106">
        <ele>226.6</ele>
        <time>2015-02-02T14:27:44.409Z</time>
      </trkpt>
      <trkpt lat="49.53119" lon="3.51115">
        <ele>225.4</ele>
        <time>2015-02-02T14:27:51.375Z</time>
      </trkpt>
      <trkpt lat="49.5312" lon="3.51116">
        <ele>225.4</ele>
        <time>2015-02-02T14:27:52.376Z</time>
      </trkpt>
      <trkpt lat="49.53126" lon="3.51124">
        <ele>225.3</ele>
        <time>2015-02-02T14:27:59.086Z</time>
      </trkpt>
      <trkpt lat="49.53127" lon="3.51126">
        <ele>225.2</ele>
        <time>2015-02-02T14:27:59.343Z</time>
      </trkpt>
      <trkpt lat="49.53133" lon="3.51135">
        <ele>225</ele>
        <time>2015-02-02T14:28:06.404Z</time>
      </trkpt>
      <trkpt lat="49.53133" lon="3.51136">
        <ele>225</ele>
        <time>2015-02-02T14:28:07.410Z</time>
      </trkpt>
      <trkpt lat="49.53138" lon="3.51146">
        <ele>225.3</ele>
        <time>2015-02-02T14:28:13.348Z</time>
      </trkpt>
      <trkpt lat="49.53139" lon="3.51147">
        <ele>225.4</ele>
        <time>2015-02-02T14:28:14.408Z</time>
      </trkpt>
      <trkpt lat="49.53143" lon="3.51158">
        <ele>225.8</ele>
        <time>2015-02-02T14:28:22.337Z</time>
      </trkpt>
      <trkpt lat="49.53144" lon="3.51159">
        <ele>225.8</ele>
        <time>2015-02-02T14:28:23.339Z</time>
      </trkpt>
      <trkpt lat="49.53149" lon="3.51169">
        <ele>225.5</ele>
        <time>2015-02-02T14:28:30.418Z</time>
      </trkpt>
      <trkpt lat="49.53149" lon="3.51171">
        <ele>225.5</ele>
        <time>2015-02-02T14:28:31.425Z</time>
      </trkpt>
      <trkpt lat="49.53153" lon="3.51182">
        <ele>225.9</ele>
        <time>2015-02-02T14:28:37.381Z</time>
      </trkpt>
      <trkpt lat="49.53154" lon="3.51184">
        <ele>225.7</ele>
        <time>2015-02-02T14:28:38.406Z</time>
      </trkpt>
      <trkpt lat="49.53157" lon="3.51194">
        <ele>225</ele>
        <time>2015-02-02T14:28:43.940Z</time>
      </trkpt>
      <trkpt lat="49.53158" lon="3.51196">
        <ele>224.9</ele>
        <time>2015-02-02T14:28:44.451Z</time>
      </trkpt>
      <trkpt lat="49.53162" lon="3.51206">
        <ele>224.9</ele>
        <time>2015-02-02T14:28:50.413Z</time>
      </trkpt>
      <trkpt lat="49.53162" lon="3.51208">
        <ele>224.9</ele>
        <time>2015-02-02T14:28:51.412Z</time>
      </trkpt>
      <trkpt lat="49.53168" lon="3.51218">
        <ele>224.6</ele>
        <time>2015-02-02T14:28:59.041Z</time>
      </trkpt>
      <trkpt lat="49.53168" lon="3.5122">
        <ele>224.5</ele>
        <time>2015-02-02T14:28:59.434Z</time>
      </trkpt>
      <trkpt lat="49.53173" lon="3.5123">
        <ele>223.8</ele>
        <time>2015-02-02T14:29:06.374Z</time>
      </trkpt>
      <trkpt lat="49.53174" lon="3.51233">
        <ele>223.9</ele>
        <time>2015-02-02T14:29:07.381Z</time>
      </trkpt>
      <trkpt lat="49.53177" lon="3.51245">
        <ele>223.6</ele>
        <time>2015-02-02T14:29:14.435Z</time>
      </trkpt>
      <trkpt lat="49.53178" lon="3.51246">
        <ele>223.7</ele>
        <time>2015-02-02T14:29:15.444Z</time>
      </trkpt>
      <trkpt lat="49.53183" lon="3.51258">
        <ele>223.2</ele>
        <time>2015-02-02T14:29:22.416Z</time>
      </trkpt>
      <trkpt lat="49.53184" lon="3.5126">
        <ele>223.2</ele>
        <time>2015-02-02T14:29:23.416Z</time>
      </trkpt>
      <trkpt lat="49.53188" lon="3.51271">
        <ele>223</ele>
        <time>2015-02-02T14:29:30.374Z</time>
      </trkpt>
      <trkpt lat="49.53189" lon="3.51272">
        <ele>223</ele>
        <time>2015-02-02T14:29:31.378Z</time>
      </trkpt>
      <trkpt lat="49.53193" lon="3.51284">
        <ele>222.9</ele>
        <time>2015-02-02T14:29:38.937Z</time>
      </trkpt>
      <trkpt lat="49.53194" lon="3.51286">
        <ele>222.9</ele>
        <time>2015-02-02T14:29:39.399Z</time>
      </trkpt>
      <trkpt lat="49.53199" lon="3.51296">
        <ele>221.8</ele>
        <time>2015-02-02T14:29:45.389Z</time>
      </trkpt>
      <trkpt lat="49.53199" lon="3.51297">
        <ele>221.8</ele>
        <time>2015-02-02T14:29:46.391Z</time>
      </trkpt>
      <trkpt lat="49.53205" lon="3.51307">
        <ele>220.2</ele>
        <time>2015-02-02T14:29:54.341Z</time>
      </trkpt>
      <trkpt lat="49.53206" lon="3.51308">
        <ele>220</ele>
        <time>2015-02-02T14:29:55.348Z</time>
      </trkpt>
      <trkpt lat="49.53211" lon="3.5132">
        <ele>220.1</ele>
        <time>2015-02-02T14:30:02.438Z</time>
      </trkpt>
      <trkpt lat="49.53211" lon="3.51321">
        <ele>220</ele>
        <time>2015-02-02T14:30:03.332Z</time>
      </trkpt>
      <trkpt lat="49.53214" lon="3.51334">
        <ele>220.1</ele>
        <time>2015-02-02T14:30:09.429Z</time>
      </trkpt>
      <trkpt lat="49.53214" lon="3.51335">
        <ele>220.1</ele>
        <time>2015-02-02T14:30:10.389Z</time>
      </trkpt>
      <trkpt lat="49.53219" lon="3.51346">
        <ele>220</ele>
        <time>2015-02-02T14:30:19.410Z</time>
      </trkpt>
      <trkpt lat="49.53219" lon="3.51347">
        <ele>220</ele>
        <time>2015-02-02T14:30:20.396Z</time>
      </trkpt>
      <trkpt lat="49.53218" lon="3.51359">
        <ele>222.9</ele>
        <time>2015-02-02T14:30:28.352Z</time>
      </trkpt>
      <trkpt lat="49.53217" lon="3.51361">
        <ele>223</ele>
        <time>2015-02-02T14:30:29.349Z</time>
      </trkpt>
      <trkpt lat="49.53211" lon="3.51369">
        <ele>223.1</ele>
        <time>2015-02-02T14:30:37.457Z</time>
      </trkpt>
      <trkpt lat="49.5321" lon="3.51371">
        <ele>223.4</ele>
        <time>2015-02-02T14:30:38.462Z</time>
      </trkpt>
      <trkpt lat="49.53203" lon="3.51378">
        <ele>224.4</ele>
        <time>2015-02-02T14:30:44.410Z</time>
      </trkpt>
      <trkpt lat="49.53202" lon="3.5138">
        <ele>224.5</ele>
        <time>2015-02-02T14:30:45.414Z</time>
      </trkpt>
      <trkpt lat="49.53195" lon="3.51388">
        <ele>224.9</ele>
        <time>2015-02-02T14:30:52.359Z</time>
      </trkpt>
      <trkpt lat="49.53194" lon="3.51389">
        <ele>225</ele>
        <time>2015-02-02T14:30:53.357Z</time>
      </trkpt>
      <trkpt lat="49.53187" lon="3.51397">
        <ele>225.1</ele>
        <time>2015-02-02T14:31:02.443Z</time>
      </trkpt>
      <trkpt lat="49.53187" lon="3.51398">
        <ele>225.2</ele>
        <time>2015-02-02T14:31:03.348Z</time>
      </trkpt>
      <trkpt lat="49.5318" lon="3.51406">
        <ele>225.4</ele>
        <time>2015-02-02T14:31:11.408Z</time>
      </trkpt>
      <trkpt lat="49.53179" lon="3.51407">
        <ele>225.4</ele>
        <time>2015-02-02T14:31:12.415Z</time>
      </trkpt>
      <trkpt lat="49.53173" lon="3.51415">
        <ele>226.1</ele>
        <time>2015-02-02T14:31:20.404Z</time>
      </trkpt>
      <trkpt lat="49.53172" lon="3.51417">
        <ele>226.1</ele>
        <time>2015-02-02T14:31:21.402Z</time>
      </trkpt>
      <trkpt lat="49.53166" lon="3.51425">
        <ele>226.2</ele>
        <time>2015-02-02T14:31:29.293Z</time>
      </trkpt>
      <trkpt lat="49.53165" lon="3.51426">
        <ele>226.1</ele>
        <time>2015-02-02T14:31:29.369Z</time>
      </trkpt>
      <trkpt lat="49.53159" lon="3.51432">
        <ele>226.2</ele>
        <time>2015-02-02T14:31:35.359Z</time>
      </trkpt>
      <trkpt lat="49.53157" lon="3.51433">
        <ele>226.4</ele>
        <time>2015-02-02T14:31:36.369Z</time>
      </trkpt>
      <trkpt lat="49.53151" lon="3.51441">
        <ele>227.1</ele>
        <time>2015-02-02T14:31:41.406Z</time>
      </trkpt>
      <trkpt lat="49.5315" lon="3.51443">
        <ele>227.3</ele>
        <time>2015-02-02T14:31:42.406Z</time>
      </trkpt>
      <trkpt lat="49.53144" lon="3.51452">
        <ele>227.5</ele>
        <time>2015-02-02T14:31:49.058Z</time>
      </trkpt>
      <trkpt lat="49.53143" lon="3.51453">
        <ele>227.6</ele>
        <time>2015-02-02T14:31:49.349Z</time>
      </trkpt>
      <trkpt lat="49.53138" lon="3.51463">
        <ele>228.1</ele>
        <time>2015-02-02T14:31:57.387Z</time>
      </trkpt>
      <trkpt lat="49.53137" lon="3.51464">
        <ele>228.1</ele>
        <time>2015-02-02T14:31:58.399Z</time>
      </trkpt>
      <trkpt lat="49.53132" lon="3.51474">
        <ele>227.7</ele>
        <time>2015-02-02T14:32:06.352Z</time>
      </trkpt>
      <trkpt lat="49.53131" lon="3.51475">
        <ele>227.7</ele>
        <time>2015-02-02T14:32:07.357Z</time>
      </trkpt>
      <trkpt lat="49.53125" lon="3.51484">
        <ele>227</ele>
        <time>2015-02-02T14:32:15.351Z</time>
      </trkpt>
      <trkpt lat="49.53124" lon="3.51485">
        <ele>226.9</ele>
        <time>2015-02-02T14:32:16.349Z</time>
      </trkpt>
      <trkpt lat="49.53119" lon="3.51493">
        <ele>226.7</ele>
        <time>2015-02-02T14:32:24.458Z</time>
      </trkpt>
      <trkpt lat="49.53118" lon="3.51494">
        <ele>226.6</ele>
        <time>2015-02-02T14:32:25.419Z</time>
      </trkpt>
      <trkpt lat="49.5311" lon="3.51501">
        <ele>226.3</ele>
        <time>2015-02-02T14:32:32.411Z</time>
      </trkpt>
      <trkpt lat="49.5311" lon="3.51502">
        <ele>226.2</ele>
        <time>2015-02-02T14:32:33.404Z</time>
      </trkpt>
      <trkpt lat="49.53102" lon="3.51508">
        <ele>225.3</ele>
        <time>2015-02-02T14:32:41.351Z</time>
      </trkpt>
      <trkpt lat="49.53101" lon="3.51508">
        <ele>225.3</ele>
        <time>2015-02-02T14:32:42.359Z</time>
      </trkpt>
      <trkpt lat="49.53093" lon="3.51515">
        <ele>224.7</ele>
        <time>2015-02-02T14:32:49.424Z</time>
      </trkpt>
      <trkpt lat="49.53092" lon="3.51516">
        <ele>224.6</ele>
        <time>2015-02-02T14:32:50.430Z</time>
      </trkpt>
      <trkpt lat="49.53086" lon="3.51523">
        <ele>224.2</ele>
        <time>2015-02-02T14:32:57.386Z</time>
      </trkpt>
      <trkpt lat="49.53084" lon="3.51523">
        <ele>224.3</ele>
        <time>2015-02-02T14:32:58.390Z</time>
      </trkpt>
      <trkpt lat="49.53081" lon="3.51535">
        <ele>222.5</ele>
        <time>2015-02-02T14:33:09.384Z</time>
      </trkpt>
      <trkpt lat="49.53081" lon="3.51537">
        <ele>222.4</ele>
        <time>2015-02-02T14:33:10.393Z</time>
      </trkpt>
      <trkpt lat="49.53079" lon="3.51549">
        <ele>220.9</ele>
        <time>2015-02-02T14:33:20.376Z</time>
      </trkpt>
      <trkpt lat="49.53078" lon="3.5155">
        <ele>220.6</ele>
        <time>2015-02-02T14:33:21.380Z</time>
      </trkpt>
      <trkpt lat="49.53078" lon="3.51562">
        <ele>218.8</ele>
        <time>2015-02-02T14:33:29.724Z</time>
      </trkpt>
      <trkpt lat="49.53078" lon="3.51564">
        <ele>218.7</ele>
        <time>2015-02-02T14:33:30.339Z</time>
      </trkpt>
      <trkpt lat="49.53079" lon="3.51577">
        <ele>217.2</ele>
        <time>2015-02-02T14:33:36.411Z</time>
      </trkpt>
      <trkpt lat="49.53079" lon="3.51579">
        <ele>217.1</ele>
        <time>2015-02-02T14:33:37.428Z</time>
      </trkpt>
      <trkpt lat="49.53078" lon="3.51593">
        <ele>216.5</ele>
        <time>2015-02-02T14:33:45.392Z</time>
      </trkpt>
      <trkpt lat="49.53077" lon="3.51596">
        <ele>216.3</ele>
        <time>2015-02-02T14:33:46.393Z</time>
      </trkpt>
      <trkpt lat="49.53079" lon="3.51608">
        <ele>215.2</ele>
        <time>2015-02-02T14:33:56.389Z</time>
      </trkpt>
      <trkpt lat="49.53079" lon="3.51609">
        <ele>215.2</ele>
        <time>2015-02-02T14:33:57.389Z</time>
      </trkpt>
      <trkpt lat="49.53078" lon="3.5161">
        <ele>215.2</ele>
        <time>2015-02-02T14:33:59.060Z</time>
      </trkpt>
      <trkpt lat="49.53078" lon="3.5161">
        <ele>215.1</ele>
        <time>2015-02-02T14:33:59.397Z</time>
      </trkpt>
      <trkpt lat="49.53078" lon="3.5161">
        <ele>215.1</ele>
        <time>2015-02-02T14:34:00.407Z</time>
      </trkpt>
      <trkpt lat="49.53079" lon="3.51612">
        <ele>214.5</ele>
        <time>2015-02-02T14:34:14.505Z</time>
      </trkpt>
      <trkpt lat="49.53079" lon="3.51612">
        <ele>214.3</ele>
        <time>2015-02-02T14:34:15.348Z</time>
      </trkpt>
      <trkpt lat="49.53078" lon="3.51611">
        <ele>213.9</ele>
        <time>2015-02-02T14:34:25.426Z</time>
      </trkpt>
      <trkpt lat="49.53074" lon="3.51609">
        <ele>214</ele>
        <time>2015-02-02T14:34:26.436Z</time>
      </trkpt>
      <trkpt lat="49.53074" lon="3.5161">
        <ele>214</ele>
        <time>2015-02-02T14:34:27.347Z</time>
      </trkpt>
      <trkpt lat="49.53073" lon="3.5161">
        <ele>214.1</ele>
        <time>2015-02-02T14:34:28.348Z</time>
      </trkpt>
      <trkpt lat="49.53073" lon="3.5161">
        <ele>214.1</ele>
        <time>2015-02-02T14:34:29.354Z</time>
      </trkpt>
      <trkpt lat="49.53075" lon="3.51612">
        <ele>213.6</ele>
        <time>2015-02-02T14:34:35.409Z</time>
      </trkpt>
      <trkpt lat="49.53075" lon="3.51612">
        <ele>213.4</ele>
        <time>2015-02-02T14:34:36.424Z</time>
      </trkpt>
      <trkpt lat="49.53075" lon="3.51612">
        <ele>213.4</ele>
        <time>2015-02-02T14:34:44.393Z</time>
      </trkpt>
      <trkpt lat="49.53075" lon="3.51613">
        <ele>213.6</ele>
        <time>2015-02-02T14:34:45.395Z</time>
      </trkpt>
      <trkpt lat="49.53075" lon="3.51613">
        <ele>213.5</ele>
        <time>2015-02-02T14:34:46.404Z</time>
      </trkpt>
      <trkpt lat="49.53075" lon="3.51614">
        <ele>213.1</ele>
        <time>2015-02-02T14:34:47.427Z</time>
      </trkpt>
      <trkpt lat="49.53075" lon="3.51614">
        <ele>213.1</ele>
        <time>2015-02-02T14:34:48.438Z</time>
      </trkpt>
      <trkpt lat="49.53075" lon="3.51615">
        <ele>213</ele>
        <time>2015-02-02T14:34:51.346Z</time>
      </trkpt>
      <trkpt lat="49.53075" lon="3.51615">
        <ele>212.9</ele>
        <time>2015-02-02T14:34:52.342Z</time>
      </trkpt>
      <trkpt lat="49.53075" lon="3.51615">
        <ele>212.7</ele>
        <time>2015-02-02T14:34:53.359Z</time>
      </trkpt>
      <trkpt lat="49.53075" lon="3.51615">
        <ele>212.6</ele>
        <time>2015-02-02T14:34:54.371Z</time>
      </trkpt>
      <trkpt lat="49.53071" lon="3.51625">
        <ele>212.3</ele>
        <time>2015-02-02T14:35:01.349Z</time>
      </trkpt>
      <trkpt lat="49.5307" lon="3.51627">
        <ele>212.3</ele>
        <time>2015-02-02T14:35:02.426Z</time>
      </trkpt>
      <trkpt lat="49.53069" lon="3.51638">
        <ele>212.7</ele>
        <time>2015-02-02T14:35:08.394Z</time>
      </trkpt>
      <trkpt lat="49.53069" lon="3.51641">
        <ele>212.8</ele>
        <time>2015-02-02T14:35:09.398Z</time>
      </trkpt>
      <trkpt lat="49.53065" lon="3.51653">
        <ele>212.9</ele>
        <time>2015-02-02T14:35:16.355Z</time>
      </trkpt>
      <trkpt lat="49.53065" lon="3.51655">
        <ele>212.9</ele>
        <time>2015-02-02T14:35:17.357Z</time>
      </trkpt>
      <trkpt lat="49.5306" lon="3.51664">
        <ele>213.4</ele>
        <time>2015-02-02T14:35:24.660Z</time>
      </trkpt>
      <trkpt lat="49.53059" lon="3.51666">
        <ele>213.3</ele>
        <time>2015-02-02T14:35:25.427Z</time>
      </trkpt>
      <trkpt lat="49.53055" lon="3.51675">
        <ele>213.8</ele>
        <time>2015-02-02T14:35:30.361Z</time>
      </trkpt>
      <trkpt lat="49.53054" lon="3.51677">
        <ele>213.9</ele>
        <time>2015-02-02T14:35:31.367Z</time>
      </trkpt>
      <trkpt lat="49.53048" lon="3.51687">
        <ele>214.6</ele>
        <time>2015-02-02T14:35:38.944Z</time>
      </trkpt>
      <trkpt lat="49.53047" lon="3.51688">
        <ele>214.8</ele>
        <time>2015-02-02T14:35:39.447Z</time>
      </trkpt>
      <trkpt lat="49.5304" lon="3.51697">
        <ele>215.3</ele>
        <time>2015-02-02T14:35:47.426Z</time>
      </trkpt>
      <trkpt lat="49.53039" lon="3.51698">
        <ele>215.2</ele>
        <time>2015-02-02T14:35:48.438Z</time>
      </trkpt>
      <trkpt lat="49.53032" lon="3.51704">
        <ele>216.2</ele>
        <time>2015-02-02T14:35:56.403Z</time>
      </trkpt>
      <trkpt lat="49.53031" lon="3.51705">
        <ele>216.3</ele>
        <time>2015-02-02T14:35:57.402Z</time>
      </trkpt>
      <trkpt lat="49.53024" lon="3.51712">
        <ele>216.5</ele>
        <time>2015-02-02T14:36:03.355Z</time>
      </trkpt>
      <trkpt lat="49.53023" lon="3.51714">
        <ele>216.7</ele>
        <time>2015-02-02T14:36:04.352Z</time>
      </trkpt>
      <trkpt lat="49.53015" lon="3.51721">
        <ele>217.2</ele>
        <time>2015-02-02T14:36:10.405Z</time>
      </trkpt>
      <trkpt lat="49.53014" lon="3.51722">
        <ele>217.3</ele>
        <time>2015-02-02T14:36:11.408Z</time>
      </trkpt>
      <trkpt lat="49.53007" lon="3.51728">
        <ele>218</ele>
        <time>2015-02-02T14:36:17.354Z</time>
      </trkpt>
      <trkpt lat="49.53006" lon="3.51729">
        <ele>218.1</ele>
        <time>2015-02-02T14:36:18.353Z</time>
      </trkpt>
      <trkpt lat="49.52999" lon="3.51734">
        <ele>218.3</ele>
        <time>2015-02-02T14:36:23.408Z</time>
      </trkpt>
      <trkpt lat="49.52997" lon="3.51735">
        <ele>218.4</ele>
        <time>2015-02-02T14:36:24.421Z</time>
      </trkpt>
      <trkpt lat="49.52991" lon="3.5174">
        <ele>218.8</ele>
        <time>2015-02-02T14:36:30.014Z</time>
      </trkpt>
      <trkpt lat="49.52989" lon="3.51741">
        <ele>219</ele>
        <time>2015-02-02T14:36:30.404Z</time>
      </trkpt>
      <trkpt lat="49.52982" lon="3.51748">
        <ele>219.4</ele>
        <time>2015-02-02T14:36:36.366Z</time>
      </trkpt>
      <trkpt lat="49.5298" lon="3.51749">
        <ele>219.5</ele>
        <time>2015-02-02T14:36:37.364Z</time>
      </trkpt>
      <trkpt lat="49.52973" lon="3.51757">
        <ele>219.7</ele>
        <time>2015-02-02T14:36:43.446Z</time>
      </trkpt>
      <trkpt lat="49.52971" lon="3.51758">
        <ele>219.9</ele>
        <time>2015-02-02T14:36:44.453Z</time>
      </trkpt>
      <trkpt lat="49.52965" lon="3.51764">
        <ele>220.4</ele>
        <time>2015-02-02T14:36:49.382Z</time>
      </trkpt>
      <trkpt lat="49.52964" lon="3.51765">
        <ele>220.5</ele>
        <time>2015-02-02T14:36:50.406Z</time>
      </trkpt>
      <trkpt lat="49.52957" lon="3.51771">
        <ele>220.7</ele>
        <time>2015-02-02T14:36:55.355Z</time>
      </trkpt>
      <trkpt lat="49.52955" lon="3.51772">
        <ele>220.8</ele>
        <time>2015-02-02T14:36:56.459Z</time>
      </trkpt>
      <trkpt lat="49.52949" lon="3.51779">
        <ele>221.3</ele>
        <time>2015-02-02T14:37:02.406Z</time>
      </trkpt>
      <trkpt lat="49.52948" lon="3.5178">
        <ele>221.4</ele>
        <time>2015-02-02T14:37:03.420Z</time>
      </trkpt>
      <trkpt lat="49.52941" lon="3.51787">
        <ele>221.8</ele>
        <time>2015-02-02T14:37:09.394Z</time>
      </trkpt>
      <trkpt lat="49.5294" lon="3.51789">
        <ele>221.8</ele>
        <time>2015-02-02T14:37:10.401Z</time>
      </trkpt>
      <trkpt lat="49.52934" lon="3.51797">
        <ele>221.9</ele>
        <time>2015-02-02T14:37:17.451Z</time>
      </trkpt>
      <trkpt lat="49.52933" lon="3.51798">
        <ele>221.9</ele>
        <time>2015-02-02T14:37:18.349Z</time>
      </trkpt>
      <trkpt lat="49.52925" lon="3.51806">
        <ele>222</ele>
        <time>2015-02-02T14:37:24.406Z</time>
      </trkpt>
      <trkpt lat="49.52924" lon="3.51808">
        <ele>222</ele>
        <time>2015-02-02T14:37:25.416Z</time>
      </trkpt>
      <trkpt lat="49.52917" lon="3.51815">
        <ele>222.5</ele>
        <time>2015-02-02T14:37:31.384Z</time>
      </trkpt>
      <trkpt lat="49.52916" lon="3.51816">
        <ele>222.6</ele>
        <time>2015-02-02T14:37:32.447Z</time>
      </trkpt>
      <trkpt lat="49.52909" lon="3.51823">
        <ele>223</ele>
        <time>2015-02-02T14:37:38.383Z</time>
      </trkpt>
      <trkpt lat="49.52908" lon="3.51824">
        <ele>223.2</ele>
        <time>2015-02-02T14:37:39.389Z</time>
      </trkpt>
      <trkpt lat="49.52901" lon="3.51833">
        <ele>224</ele>
        <time>2015-02-02T14:37:46.353Z</time>
      </trkpt>
      <trkpt lat="49.529" lon="3.51834">
        <ele>224.2</ele>
        <time>2015-02-02T14:37:47.355Z</time>
      </trkpt>
      <trkpt lat="49.52894" lon="3.51841">
        <ele>224.6</ele>
        <time>2015-02-02T14:37:54.231Z</time>
      </trkpt>
      <trkpt lat="49.52893" lon="3.51842">
        <ele>224.7</ele>
        <time>2015-02-02T14:37:54.424Z</time>
      </trkpt>
      <trkpt lat="49.52885" lon="3.51847">
        <ele>225</ele>
        <time>2015-02-02T14:38:01.378Z</time>
      </trkpt>
      <trkpt lat="49.52883" lon="3.51849">
        <ele>225</ele>
        <time>2015-02-02T14:38:02.427Z</time>
      </trkpt>
      <trkpt lat="49.52878" lon="3.51859">
        <ele>225.5</ele>
        <time>2015-02-02T14:38:09.358Z</time>
      </trkpt>
      <trkpt lat="49.52877" lon="3.51861">
        <ele>225.6</ele>
        <time>2015-02-02T14:38:09.390Z</time>
      </trkpt>
      <trkpt lat="49.52871" lon="3.51868">
        <ele>225.8</ele>
        <time>2015-02-02T14:38:14.597Z</time>
      </trkpt>
      <trkpt lat="49.52869" lon="3.51869">
        <ele>225.8</ele>
        <time>2015-02-02T14:38:15.361Z</time>
      </trkpt>
      <trkpt lat="49.52864" lon="3.51879">
        <ele>225.8</ele>
        <time>2015-02-02T14:38:20.400Z</time>
      </trkpt>
      <trkpt lat="49.52863" lon="3.5188">
        <ele>225.7</ele>
        <time>2015-02-02T14:38:21.410Z</time>
      </trkpt>
      <trkpt lat="49.52858" lon="3.51888">
        <ele>225.9</ele>
        <time>2015-02-02T14:38:26.453Z</time>
      </trkpt>
      <trkpt lat="49.52857" lon="3.5189">
        <ele>225.9</ele>
        <time>2015-02-02T14:38:27.349Z</time>
      </trkpt>
      <trkpt lat="49.52851" lon="3.51899">
        <ele>225.7</ele>
        <time>2015-02-02T14:38:32.425Z</time>
      </trkpt>
      <trkpt lat="49.5285" lon="3.519">
        <ele>225.8</ele>
        <time>2015-02-02T14:38:33.432Z</time>
      </trkpt>
      <trkpt lat="49.52844" lon="3.5191">
        <ele>225.5</ele>
        <time>2015-02-02T14:38:39.399Z</time>
      </trkpt>
      <trkpt lat="49.52843" lon="3.51911">
        <ele>225.8</ele>
        <time>2015-02-02T14:38:40.408Z</time>
      </trkpt>
      <trkpt lat="49.52838" lon="3.51921">
        <ele>226.5</ele>
        <time>2015-02-02T14:38:46.358Z</time>
      </trkpt>
      <trkpt lat="49.52837" lon="3.51923">
        <ele>226.7</ele>
        <time>2015-02-02T14:38:47.363Z</time>
      </trkpt>
      <trkpt lat="49.52832" lon="3.51934">
        <ele>227</ele>
        <time>2015-02-02T14:38:53.429Z</time>
      </trkpt>
      <trkpt lat="49.52831" lon="3.51936">
        <ele>227.1</ele>
        <time>2015-02-02T14:38:54.439Z</time>
      </trkpt>
      <trkpt lat="49.52825" lon="3.51946">
        <ele>227.5</ele>
        <time>2015-02-02T14:39:00.420Z</time>
      </trkpt>
      <trkpt lat="49.52824" lon="3.51947">
        <ele>227.5</ele>
        <time>2015-02-02T14:39:01.425Z</time>
      </trkpt>
      <trkpt lat="49.52819" lon="3.51957">
        <ele>226.9</ele>
        <time>2015-02-02T14:39:09.413Z</time>
      </trkpt>
      <trkpt lat="49.52817" lon="3.51959">
        <ele>226.9</ele>
        <time>2015-02-02T14:39:10.420Z</time>
      </trkpt>
      <trkpt lat="49.52811" lon="3.51969">
        <ele>226.6</ele>
        <time>2015-02-02T14:39:16.353Z</time>
      </trkpt>
      <trkpt lat="49.5281" lon="3.51971">
        <ele>226.6</ele>
        <time>2015-02-02T14:39:17.364Z</time>
      </trkpt>
      <trkpt lat="49.52805" lon="3.51981">
        <ele>227</ele>
        <time>2015-02-02T14:39:24.433Z</time>
      </trkpt>
      <trkpt lat="49.52804" lon="3.51982">
        <ele>227.1</ele>
        <time>2015-02-02T14:39:25.471Z</time>
      </trkpt>
      <trkpt lat="49.52799" lon="3.5199">
        <ele>227.1</ele>
        <time>2015-02-02T14:39:30.376Z</time>
      </trkpt>
      <trkpt lat="49.52798" lon="3.51992">
        <ele>227.1</ele>
        <time>2015-02-02T14:39:31.388Z</time>
      </trkpt>
      <trkpt lat="49.52792" lon="3.52">
        <ele>226.9</ele>
        <time>2015-02-02T14:39:36.433Z</time>
      </trkpt>
      <trkpt lat="49.52791" lon="3.52002">
        <ele>226.8</ele>
        <time>2015-02-02T14:39:37.351Z</time>
      </trkpt>
      <trkpt lat="49.52784" lon="3.5201">
        <ele>226.6</ele>
        <time>2015-02-02T14:39:42.366Z</time>
      </trkpt>
      <trkpt lat="49.52783" lon="3.52012">
        <ele>226.7</ele>
        <time>2015-02-02T14:39:43.371Z</time>
      </trkpt>
      <trkpt lat="49.52777" lon="3.52022">
        <ele>226.7</ele>
        <time>2015-02-02T14:39:49.442Z</time>
      </trkpt>
      <trkpt lat="49.52776" lon="3.52024">
        <ele>226.7</ele>
        <time>2015-02-02T14:39:50.413Z</time>
      </trkpt>
      <trkpt lat="49.52772" lon="3.52033">
        <ele>227</ele>
        <time>2015-02-02T14:39:56.457Z</time>
      </trkpt>
      <trkpt lat="49.52771" lon="3.52035">
        <ele>227</ele>
        <time>2015-02-02T14:39:57.352Z</time>
      </trkpt>
      <trkpt lat="49.52767" lon="3.52045">
        <ele>227.2</ele>
        <time>2015-02-02T14:40:03.346Z</time>
      </trkpt>
      <trkpt lat="49.52766" lon="3.52047">
        <ele>227.2</ele>
        <time>2015-02-02T14:40:04.345Z</time>
      </trkpt>
      <trkpt lat="49.52762" lon="3.52057">
        <ele>227.5</ele>
        <time>2015-02-02T14:40:11.163Z</time>
      </trkpt>
      <trkpt lat="49.52761" lon="3.52058">
        <ele>227.5</ele>
        <time>2015-02-02T14:40:11.420Z</time>
      </trkpt>
      <trkpt lat="49.52757" lon="3.5207">
        <ele>227.3</ele>
        <time>2015-02-02T14:40:17.354Z</time>
      </trkpt>
      <trkpt lat="49.52756" lon="3.52071">
        <ele>227.3</ele>
        <time>2015-02-02T14:40:18.360Z</time>
      </trkpt>
      <trkpt lat="49.52751" lon="3.52082">
        <ele>227.5</ele>
        <time>2015-02-02T14:40:25.428Z</time>
      </trkpt>
      <trkpt lat="49.52751" lon="3.52083">
        <ele>227.6</ele>
        <time>2015-02-02T14:40:26.433Z</time>
      </trkpt>
      <trkpt lat="49.52746" lon="3.52094">
        <ele>227.6</ele>
        <time>2015-02-02T14:40:32.398Z</time>
      </trkpt>
      <trkpt lat="49.52746" lon="3.52095">
        <ele>227.6</ele>
        <time>2015-02-02T14:40:33.400Z</time>
      </trkpt>
      <trkpt lat="49.52742" lon="3.52106">
        <ele>227.2</ele>
        <time>2015-02-02T14:40:39.848Z</time>
      </trkpt>
      <trkpt lat="49.52741" lon="3.52108">
        <ele>227.1</ele>
        <time>2015-02-02T14:40:40.350Z</time>
      </trkpt>
      <trkpt lat="49.52736" lon="3.52119">
        <ele>226.6</ele>
        <time>2015-02-02T14:40:47.413Z</time>
      </trkpt>
      <trkpt lat="49.52735" lon="3.5212">
        <ele>226.6</ele>
        <time>2015-02-02T14:40:48.421Z</time>
      </trkpt>
      <trkpt lat="49.52731" lon="3.52132">
        <ele>226</ele>
        <time>2015-02-02T14:40:55.377Z</time>
      </trkpt>
      <trkpt lat="49.5273" lon="3.52133">
        <ele>226</ele>
        <time>2015-02-02T14:40:56.395Z</time>
      </trkpt>
      <trkpt lat="49.52726" lon="3.52143">
        <ele>225.7</ele>
        <time>2015-02-02T14:41:04.350Z</time>
      </trkpt>
      <trkpt lat="49.52725" lon="3.52144">
        <ele>225.6</ele>
        <time>2015-02-02T14:41:05.355Z</time>
      </trkpt>
      <trkpt lat="49.52719" lon="3.52154">
        <ele>225.3</ele>
        <time>2015-02-02T14:41:11.984Z</time>
      </trkpt>
      <trkpt lat="49.52718" lon="3.52156">
        <ele>225.2</ele>
        <time>2015-02-02T14:41:12.447Z</time>
      </trkpt>
      <trkpt lat="49.52711" lon="3.52164">
        <ele>224.9</ele>
        <time>2015-02-02T14:41:19.358Z</time>
      </trkpt>
      <trkpt lat="49.5271" lon="3.52165">
        <ele>224.8</ele>
        <time>2015-02-02T14:41:20.410Z</time>
      </trkpt>
      <trkpt lat="49.52705" lon="3.52173">
        <ele>225.1</ele>
        <time>2015-02-02T14:41:26.439Z</time>
      </trkpt>
      <trkpt lat="49.52703" lon="3.52174">
        <ele>225.1</ele>
        <time>2015-02-02T14:41:27.346Z</time>
      </trkpt>
      <trkpt lat="49.52696" lon="3.52181">
        <ele>224.9</ele>
        <time>2015-02-02T14:41:33.436Z</time>
      </trkpt>
      <trkpt lat="49.52695" lon="3.52182">
        <ele>224.9</ele>
        <time>2015-02-02T14:41:34.346Z</time>
      </trkpt>
      <trkpt lat="49.52688" lon="3.5219">
        <ele>225.1</ele>
        <time>2015-02-02T14:41:41.414Z</time>
      </trkpt>
      <trkpt lat="49.52687" lon="3.52191">
        <ele>225.2</ele>
        <time>2015-02-02T14:41:42.423Z</time>
      </trkpt>
      <trkpt lat="49.5268" lon="3.52197">
        <ele>225</ele>
        <time>2015-02-02T14:41:49.384Z</time>
      </trkpt>
      <trkpt lat="49.52679" lon="3.52198">
        <ele>224.9</ele>
        <time>2015-02-02T14:41:50.408Z</time>
      </trkpt>
      <trkpt lat="49.52671" lon="3.52204">
        <ele>224.8</ele>
        <time>2015-02-02T14:41:57.362Z</time>
      </trkpt>
      <trkpt lat="49.5267" lon="3.52205">
        <ele>224.7</ele>
        <time>2015-02-02T14:41:58.366Z</time>
      </trkpt>
      <trkpt lat="49.52663" lon="3.52212">
        <ele>224.9</ele>
        <time>2015-02-02T14:42:05.927Z</time>
      </trkpt>
      <trkpt lat="49.52662" lon="3.52213">
        <ele>224.9</ele>
        <time>2015-02-02T14:42:06.437Z</time>
      </trkpt>
      <trkpt lat="49.52655" lon="3.52218">
        <ele>225</ele>
        <time>2015-02-02T14:42:12.365Z</time>
      </trkpt>
      <trkpt lat="49.52654" lon="3.52218">
        <ele>224.9</ele>
        <time>2015-02-02T14:42:13.375Z</time>
      </trkpt>
      <trkpt lat="49.52647" lon="3.52225">
        <ele>224.7</ele>
        <time>2015-02-02T14:42:21.005Z</time>
      </trkpt>
      <trkpt lat="49.52645" lon="3.52226">
        <ele>224.5</ele>
        <time>2015-02-02T14:42:21.429Z</time>
      </trkpt>
      <trkpt lat="49.52639" lon="3.52232">
        <ele>223.9</ele>
        <time>2015-02-02T14:42:27.409Z</time>
      </trkpt>
      <trkpt lat="49.52637" lon="3.52233">
        <ele>223.9</ele>
        <time>2015-02-02T14:42:28.419Z</time>
      </trkpt>
      <trkpt lat="49.5263" lon="3.52238">
        <ele>223.4</ele>
        <time>2015-02-02T14:42:34.428Z</time>
      </trkpt>
      <trkpt lat="49.52629" lon="3.52239">
        <ele>223.4</ele>
        <time>2015-02-02T14:42:35.428Z</time>
      </trkpt>
      <trkpt lat="49.52621" lon="3.52245">
        <ele>223.1</ele>
        <time>2015-02-02T14:42:42.432Z</time>
      </trkpt>
      <trkpt lat="49.5262" lon="3.52246">
        <ele>223.1</ele>
        <time>2015-02-02T14:42:43.447Z</time>
      </trkpt>
      <trkpt lat="49.52612" lon="3.52254">
        <ele>222.4</ele>
        <time>2015-02-02T14:42:50.841Z</time>
      </trkpt>
      <trkpt lat="49.52612" lon="3.52256">
        <ele>222.2</ele>
        <time>2015-02-02T14:42:51.410Z</time>
      </trkpt>
      <trkpt lat="49.52606" lon="3.52263">
        <ele>221.7</ele>
        <time>2015-02-02T14:42:58.358Z</time>
      </trkpt>
      <trkpt lat="49.52605" lon="3.52264">
        <ele>221.4</ele>
        <time>2015-02-02T14:42:59.370Z</time>
      </trkpt>
      <trkpt lat="49.52598" lon="3.5227">
        <ele>220.4</ele>
        <time>2015-02-02T14:43:06.348Z</time>
      </trkpt>
      <trkpt lat="49.52597" lon="3.52271">
        <ele>220.4</ele>
        <time>2015-02-02T14:43:07.369Z</time>
      </trkpt>
      <trkpt lat="49.5259" lon="3.52278">
        <ele>219.7</ele>
        <time>2015-02-02T14:43:14.428Z</time>
      </trkpt>
      <trkpt lat="49.52589" lon="3.52278">
        <ele>219.5</ele>
        <time>2015-02-02T14:43:15.436Z</time>
      </trkpt>
      <trkpt lat="49.52583" lon="3.52286">
        <ele>218.5</ele>
        <time>2015-02-02T14:43:23.418Z</time>
      </trkpt>
      <trkpt lat="49.52582" lon="3.52288">
        <ele>218.2</ele>
        <time>2015-02-02T14:43:24.422Z</time>
      </trkpt>
      <trkpt lat="49.52574" lon="3.52296">
        <ele>217.7</ele>
        <time>2015-02-02T14:43:31.286Z</time>
      </trkpt>
      <trkpt lat="49.52573" lon="3.52298">
        <ele>217.6</ele>
        <time>2015-02-02T14:43:32.425Z</time>
      </trkpt>
      <trkpt lat="49.52568" lon="3.52307">
        <ele>217.1</ele>
        <time>2015-02-02T14:43:39.395Z</time>
      </trkpt>
      <trkpt lat="49.52567" lon="3.52309">
        <ele>217</ele>
        <time>2015-02-02T14:43:40.400Z</time>
      </trkpt>
      <trkpt lat="49.52562" lon="3.5232">
        <ele>216.4</ele>
        <time>2015-02-02T14:43:49.373Z</time>
      </trkpt>
      <trkpt lat="49.52562" lon="3.52321">
        <ele>216.5</ele>
        <time>2015-02-02T14:43:50.392Z</time>
      </trkpt>
      <trkpt lat="49.52557" lon="3.5233">
        <ele>215.5</ele>
        <time>2015-02-02T14:43:57.339Z</time>
      </trkpt>
      <trkpt lat="49.52556" lon="3.52333">
        <ele>215.4</ele>
        <time>2015-02-02T14:43:58.429Z</time>
      </trkpt>
      <trkpt lat="49.52551" lon="3.52343">
        <ele>214.4</ele>
        <time>2015-02-02T14:44:07.368Z</time>
      </trkpt>
      <trkpt lat="49.52551" lon="3.52345">
        <ele>214.3</ele>
        <time>2015-02-02T14:44:08.379Z</time>
      </trkpt>
      <trkpt lat="49.52545" lon="3.52355">
        <ele>213.4</ele>
        <time>2015-02-02T14:44:18.356Z</time>
      </trkpt>
      <trkpt lat="49.52545" lon="3.52357">
        <ele>213.2</ele>
        <time>2015-02-02T14:44:19.362Z</time>
      </trkpt>
      <trkpt lat="49.5254" lon="3.52367">
        <ele>212.4</ele>
        <time>2015-02-02T14:44:27.350Z</time>
      </trkpt>
      <trkpt lat="49.52539" lon="3.52368">
        <ele>212.3</ele>
        <time>2015-02-02T14:44:28.347Z</time>
      </trkpt>
      <trkpt lat="49.52536" lon="3.52379">
        <ele>212</ele>
        <time>2015-02-02T14:44:34.418Z</time>
      </trkpt>
      <trkpt lat="49.52535" lon="3.52381">
        <ele>212</ele>
        <time>2015-02-02T14:44:35.427Z</time>
      </trkpt>
      <trkpt lat="49.52531" lon="3.52392">
        <ele>211.7</ele>
        <time>2015-02-02T14:44:41.410Z</time>
      </trkpt>
      <trkpt lat="49.5253" lon="3.52394">
        <ele>211.5</ele>
        <time>2015-02-02T14:44:42.412Z</time>
      </trkpt>
      <trkpt lat="49.52526" lon="3.52405">
        <ele>211.1</ele>
        <time>2015-02-02T14:44:48.363Z</time>
      </trkpt>
      <trkpt lat="49.52525" lon="3.52407">
        <ele>210.9</ele>
        <time>2015-02-02T14:44:49.371Z</time>
      </trkpt>
      <trkpt lat="49.52523" lon="3.5242">
        <ele>208.9</ele>
        <time>2015-02-02T14:44:54.419Z</time>
      </trkpt>
      <trkpt lat="49.52523" lon="3.52422">
        <ele>208.8</ele>
        <time>2015-02-02T14:44:55.424Z</time>
      </trkpt>
      <trkpt lat="49.52521" lon="3.52434">
        <ele>207.9</ele>
        <time>2015-02-02T14:45:02.434Z</time>
      </trkpt>
      <trkpt lat="49.52521" lon="3.52436">
        <ele>207.9</ele>
        <time>2015-02-02T14:45:03.348Z</time>
      </trkpt>
      <trkpt lat="49.52519" lon="3.52448">
        <ele>207.3</ele>
        <time>2015-02-02T14:45:09.393Z</time>
      </trkpt>
      <trkpt lat="49.52519" lon="3.5245">
        <ele>207.3</ele>
        <time>2015-02-02T14:45:10.405Z</time>
      </trkpt>
      <trkpt lat="49.52519" lon="3.52461">
        <ele>207.4</ele>
        <time>2015-02-02T14:45:16.349Z</time>
      </trkpt>
      <trkpt lat="49.52519" lon="3.52464">
        <ele>207.5</ele>
        <time>2015-02-02T14:45:17.352Z</time>
      </trkpt>
      <trkpt lat="49.52519" lon="3.52477">
        <ele>205.9</ele>
        <time>2015-02-02T14:45:26.443Z</time>
      </trkpt>
      <trkpt lat="49.52518" lon="3.52479">
        <ele>205.8</ele>
        <time>2015-02-02T14:45:27.450Z</time>
      </trkpt>
      <trkpt lat="49.52516" lon="3.52491">
        <ele>205.2</ele>
        <time>2015-02-02T14:45:33.429Z</time>
      </trkpt>
      <trkpt lat="49.52516" lon="3.52494">
        <ele>205</ele>
        <time>2015-02-02T14:45:34.437Z</time>
      </trkpt>
      <trkpt lat="49.52513" lon="3.52506">
        <ele>203.9</ele>
        <time>2015-02-02T14:45:41.074Z</time>
      </trkpt>
      <trkpt lat="49.52513" lon="3.52508">
        <ele>204.1</ele>
        <time>2015-02-02T14:45:41.376Z</time>
      </trkpt>
      <trkpt lat="49.5251" lon="3.5252">
        <ele>204.7</ele>
        <time>2015-02-02T14:45:47.443Z</time>
      </trkpt>
      <trkpt lat="49.52509" lon="3.52521">
        <ele>204.7</ele>
        <time>2015-02-02T14:45:48.357Z</time>
      </trkpt>
      <trkpt lat="49.52505" lon="3.52533">
        <ele>205.3</ele>
        <time>2015-02-02T14:45:55.887Z</time>
      </trkpt>
      <trkpt lat="49.52504" lon="3.52534">
        <ele>205.4</ele>
        <time>2015-02-02T14:45:56.451Z</time>
      </trkpt>
      <trkpt lat="49.52498" lon="3.52544">
        <ele>205.7</ele>
        <time>2015-02-02T14:46:02.450Z</time>
      </trkpt>
      <trkpt lat="49.52497" lon="3.52546">
        <ele>205.7</ele>
        <time>2015-02-02T14:46:03.431Z</time>
      </trkpt>
      <trkpt lat="49.5249" lon="3.52554">
        <ele>206</ele>
        <time>2015-02-02T14:46:11.088Z</time>
      </trkpt>
      <trkpt lat="49.52489" lon="3.52555">
        <ele>206</ele>
        <time>2015-02-02T14:46:11.437Z</time>
      </trkpt>
      <trkpt lat="49.52482" lon="3.52558">
        <ele>206.5</ele>
        <time>2015-02-02T14:46:17.386Z</time>
      </trkpt>
      <trkpt lat="49.52481" lon="3.52559">
        <ele>206.5</ele>
        <time>2015-02-02T14:46:18.401Z</time>
      </trkpt>
      <trkpt lat="49.52474" lon="3.52567">
        <ele>207.1</ele>
        <time>2015-02-02T14:46:26.319Z</time>
      </trkpt>
      <trkpt lat="49.52473" lon="3.52568">
        <ele>207.1</ele>
        <time>2015-02-02T14:46:26.463Z</time>
      </trkpt>
      <trkpt lat="49.52465" lon="3.52572">
        <ele>207</ele>
        <time>2015-02-02T14:46:33.419Z</time>
      </trkpt>
      <trkpt lat="49.52464" lon="3.52573">
        <ele>206.9</ele>
        <time>2015-02-02T14:46:34.425Z</time>
      </trkpt>
      <trkpt lat="49.52457" lon="3.5258">
        <ele>207</ele>
        <time>2015-02-02T14:46:40.375Z</time>
      </trkpt>
      <trkpt lat="49.52456" lon="3.52581">
        <ele>207.1</ele>
        <time>2015-02-02T14:46:41.378Z</time>
      </trkpt>
      <trkpt lat="49.52447" lon="3.52586">
        <ele>207.2</ele>
        <time>2015-02-02T14:46:48.369Z</time>
      </trkpt>
      <trkpt lat="49.52446" lon="3.52586">
        <ele>207.2</ele>
        <time>2015-02-02T14:46:49.369Z</time>
      </trkpt>
      <trkpt lat="49.52439" lon="3.52595">
        <ele>207.5</ele>
        <time>2015-02-02T14:46:57.378Z</time>
      </trkpt>
      <trkpt lat="49.52438" lon="3.52596">
        <ele>207.6</ele>
        <time>2015-02-02T14:46:58.361Z</time>
      </trkpt>
      <trkpt lat="49.52431" lon="3.52601">
        <ele>208.2</ele>
        <time>2015-02-02T14:47:03.408Z</time>
      </trkpt>
      <trkpt lat="49.52429" lon="3.52601">
        <ele>208.2</ele>
        <time>2015-02-02T14:47:04.415Z</time>
      </trkpt>
      <trkpt lat="49.52421" lon="3.52604">
        <ele>208.2</ele>
        <time>2015-02-02T14:47:09.361Z</time>
      </trkpt>
      <trkpt lat="49.5242" lon="3.52604">
        <ele>208.5</ele>
        <time>2015-02-02T14:47:10.363Z</time>
      </trkpt>
      <trkpt lat="49.52413" lon="3.52608">
        <ele>209.2</ele>
        <time>2015-02-02T14:47:15.989Z</time>
      </trkpt>
      <trkpt lat="49.52411" lon="3.52609">
        <ele>209.5</ele>
        <time>2015-02-02T14:47:16.425Z</time>
      </trkpt>
      <trkpt lat="49.52404" lon="3.52614">
        <ele>209.6</ele>
        <time>2015-02-02T14:47:23.364Z</time>
      </trkpt>
      <trkpt lat="49.52402" lon="3.52615">
        <ele>209.5</ele>
        <time>2015-02-02T14:47:24.368Z</time>
      </trkpt>
      <trkpt lat="49.52394" lon="3.5262">
        <ele>209.9</ele>
        <time>2015-02-02T14:47:32.454Z</time>
      </trkpt>
      <trkpt lat="49.52393" lon="3.5262">
        <ele>209.9</ele>
        <time>2015-02-02T14:47:33.353Z</time>
      </trkpt>
      <trkpt lat="49.52385" lon="3.52625">
        <ele>210.1</ele>
        <time>2015-02-02T14:47:39.397Z</time>
      </trkpt>
      <trkpt lat="49.52383" lon="3.52626">
        <ele>210.3</ele>
        <time>2015-02-02T14:47:40.404Z</time>
      </trkpt>
      <trkpt lat="49.52375" lon="3.52631">
        <ele>210.7</ele>
        <time>2015-02-02T14:47:47.354Z</time>
      </trkpt>
      <trkpt lat="49.52374" lon="3.52632">
        <ele>211</ele>
        <time>2015-02-02T14:47:48.367Z</time>
      </trkpt>
      <trkpt lat="49.52365" lon="3.52637">
        <ele>211.7</ele>
        <time>2015-02-02T14:47:55.940Z</time>
      </trkpt>
      <trkpt lat="49.52364" lon="3.52638">
        <ele>211.9</ele>
        <time>2015-02-02T14:47:56.464Z</time>
      </trkpt>
      <trkpt lat="49.52356" lon="3.5264">
        <ele>213.8</ele>
        <time>2015-02-02T14:48:04.400Z</time>
      </trkpt>
      <trkpt lat="49.52355" lon="3.52641">
        <ele>214</ele>
        <time>2015-02-02T14:48:05.406Z</time>
      </trkpt>
      <trkpt lat="49.52348" lon="3.52646">
        <ele>214.3</ele>
        <time>2015-02-02T14:48:12.362Z</time>
      </trkpt>
      <trkpt lat="49.52346" lon="3.52646">
        <ele>214.3</ele>
        <time>2015-02-02T14:48:13.358Z</time>
      </trkpt>
      <trkpt lat="49.52339" lon="3.52653">
        <ele>214.7</ele>
        <time>2015-02-02T14:48:21.420Z</time>
      </trkpt>
      <trkpt lat="49.52338" lon="3.52654">
        <ele>214.8</ele>
        <time>2015-02-02T14:48:22.428Z</time>
      </trkpt>
      <trkpt lat="49.52331" lon="3.52661">
        <ele>215.5</ele>
        <time>2015-02-02T14:48:31.207Z</time>
      </trkpt>
      <trkpt lat="49.5233" lon="3.52661">
        <ele>215.6</ele>
        <time>2015-02-02T14:48:31.365Z</time>
      </trkpt>
      <trkpt lat="49.52323" lon="3.52667">
        <ele>216.6</ele>
        <time>2015-02-02T14:48:37.430Z</time>
      </trkpt>
      <trkpt lat="49.52322" lon="3.52668">
        <ele>216.6</ele>
        <time>2015-02-02T14:48:38.436Z</time>
      </trkpt>
      <trkpt lat="49.52315" lon="3.52676">
        <ele>216.8</ele>
        <time>2015-02-02T14:48:46.408Z</time>
      </trkpt>
      <trkpt lat="49.52314" lon="3.52677">
        <ele>216.8</ele>
        <time>2015-02-02T14:48:47.419Z</time>
      </trkpt>
      <trkpt lat="49.52307" lon="3.52684">
        <ele>217.9</ele>
        <time>2015-02-02T14:48:54.370Z</time>
      </trkpt>
      <trkpt lat="49.52306" lon="3.52686">
        <ele>218</ele>
        <time>2015-02-02T14:48:55.378Z</time>
      </trkpt>
      <trkpt lat="49.52301" lon="3.52695">
        <ele>218.3</ele>
        <time>2015-02-02T14:49:05.061Z</time>
      </trkpt>
      <trkpt lat="49.523" lon="3.52697">
        <ele>218.4</ele>
        <time>2015-02-02T14:49:05.381Z</time>
      </trkpt>
      <trkpt lat="49.52295" lon="3.52706">
        <ele>217.9</ele>
        <time>2015-02-02T14:49:13.377Z</time>
      </trkpt>
      <trkpt lat="49.52294" lon="3.52707">
        <ele>217.9</ele>
        <time>2015-02-02T14:49:14.484Z</time>
      </trkpt>
      <trkpt lat="49.52293" lon="3.52709">
        <ele>217.8</ele>
        <time>2015-02-02T14:49:18.402Z</time>
      </trkpt>
      <trkpt lat="49.52292" lon="3.5271">
        <ele>217.8</ele>
        <time>2015-02-02T14:49:19.407Z</time>
      </trkpt>
      <trkpt lat="49.52292" lon="3.5271">
        <ele>217.6</ele>
        <time>2015-02-02T14:49:20.421Z</time>
      </trkpt>
      <trkpt lat="49.52288" lon="3.52721">
        <ele>217</ele>
        <time>2015-02-02T14:49:28.440Z</time>
      </trkpt>
      <trkpt lat="49.52288" lon="3.52722">
        <ele>217</ele>
        <time>2015-02-02T14:49:29.451Z</time>
      </trkpt>
      <trkpt lat="49.52286" lon="3.52735">
        <ele>216.8</ele>
        <time>2015-02-02T14:49:36.370Z</time>
      </trkpt>
      <trkpt lat="49.52285" lon="3.52737">
        <ele>216.7</ele>
        <time>2015-02-02T14:49:37.369Z</time>
      </trkpt>
      <trkpt lat="49.52282" lon="3.52748">
        <ele>216.3</ele>
        <time>2015-02-02T14:49:43.460Z</time>
      </trkpt>
      <trkpt lat="49.52281" lon="3.52749">
        <ele>216.3</ele>
        <time>2015-02-02T14:49:44.475Z</time>
      </trkpt>
      <trkpt lat="49.52277" lon="3.5276">
        <ele>216.1</ele>
        <time>2015-02-02T14:49:51.398Z</time>
      </trkpt>
      <trkpt lat="49.52277" lon="3.52761">
        <ele>216</ele>
        <time>2015-02-02T14:49:52.403Z</time>
      </trkpt>
      <trkpt lat="49.52272" lon="3.52772">
        <ele>215.4</ele>
        <time>2015-02-02T14:50:03.329Z</time>
      </trkpt>
      <trkpt lat="49.52272" lon="3.52774">
        <ele>215.3</ele>
        <time>2015-02-02T14:50:04.328Z</time>
      </trkpt>
      <trkpt lat="49.52271" lon="3.52786">
        <ele>214.9</ele>
        <time>2015-02-02T14:50:11.398Z</time>
      </trkpt>
      <trkpt lat="49.52271" lon="3.52788">
        <ele>214.8</ele>
        <time>2015-02-02T14:50:12.404Z</time>
      </trkpt>
      <trkpt lat="49.52268" lon="3.52799">
        <ele>214.6</ele>
        <time>2015-02-02T14:50:19.355Z</time>
      </trkpt>
      <trkpt lat="49.52268" lon="3.52801">
        <ele>214.4</ele>
        <time>2015-02-02T14:50:20.367Z</time>
      </trkpt>
      <trkpt lat="49.52267" lon="3.52803">
        <ele>214.4</ele>
        <time>2015-02-02T14:50:24.396Z</time>
      </trkpt>
      <trkpt lat="49.52267" lon="3.52804">
        <ele>214.5</ele>
        <time>2015-02-02T14:50:25.407Z</time>
      </trkpt>
      <trkpt lat="49.52267" lon="3.52804">
        <ele>214.5</ele>
        <time>2015-02-02T14:50:26.102Z</time>
      </trkpt>
      <trkpt lat="49.52266" lon="3.52804">
        <ele>214.5</ele>
        <time>2015-02-02T14:50:26.416Z</time>
      </trkpt>
      <trkpt lat="49.52267" lon="3.52816">
        <ele>214</ele>
        <time>2015-02-02T14:51:06.070Z</time>
      </trkpt>
      <trkpt lat="49.52267" lon="3.52821">
        <ele>213.7</ele>
        <time>2015-02-02T14:51:06.383Z</time>
      </trkpt>
      <trkpt lat="49.52266" lon="3.52822">
        <ele>213.5</ele>
        <time>2015-02-02T14:51:09.429Z</time>
      </trkpt>
      <trkpt lat="49.52266" lon="3.52823">
        <ele>213.5</ele>
        <time>2015-02-02T14:51:10.336Z</time>
      </trkpt>
      <trkpt lat="49.52266" lon="3.52823">
        <ele>213.5</ele>
        <time>2015-02-02T14:51:11.148Z</time>
      </trkpt>
      <trkpt lat="49.52266" lon="3.52823">
        <ele>213.4</ele>
        <time>2015-02-02T14:51:11.338Z</time>
      </trkpt>
      <trkpt lat="49.52266" lon="3.52824">
        <ele>213.4</ele>
        <time>2015-02-02T14:51:12.340Z</time>
      </trkpt>
      <trkpt lat="49.52266" lon="3.52824">
        <ele>213.4</ele>
        <time>2015-02-02T14:51:13.347Z</time>
      </trkpt>
      <trkpt lat="49.52266" lon="3.52823">
        <ele>213.3</ele>
        <time>2015-02-02T14:51:34.436Z</time>
      </trkpt>
      <trkpt lat="49.52267" lon="3.52817">
        <ele>212.6</ele>
        <time>2015-02-02T14:51:35.442Z</time>
      </trkpt>
      <trkpt lat="49.52267" lon="3.52813">
        <ele>211.8</ele>
        <time>2015-02-02T14:51:51.402Z</time>
      </trkpt>
      <trkpt lat="49.52267" lon="3.52813">
        <ele>211.8</ele>
        <time>2015-02-02T14:51:52.403Z</time>
      </trkpt>
      <trkpt lat="49.52267" lon="3.52812">
        <ele>211.9</ele>
        <time>2015-02-02T14:52:11.008Z</time>
      </trkpt>
      <trkpt lat="49.52266" lon="3.52811">
        <ele>211.9</ele>
        <time>2015-02-02T14:52:11.348Z</time>
      </trkpt>
      <trkpt lat="49.52266" lon="3.52811">
        <ele>211.9</ele>
        <time>2015-02-02T14:52:13.360Z</time>
      </trkpt>
      <trkpt lat="49.52267" lon="3.52811">
        <ele>211.9</ele>
        <time>2015-02-02T14:52:14.396Z</time>
      </trkpt>
      <trkpt lat="49.52267" lon="3.5281">
        <ele>211.8</ele>
        <time>2015-02-02T14:52:15.399Z</time>
      </trkpt>
      <trkpt lat="49.52268" lon="3.52803">
        <ele>212.4</ele>
        <time>2015-02-02T14:52:21.349Z</time>
      </trkpt>
      <trkpt lat="49.52268" lon="3.52803">
        <ele>212.3</ele>
        <time>2015-02-02T14:52:22.357Z</time>
      </trkpt>
      <trkpt lat="49.52268" lon="3.52803">
        <ele>212.2</ele>
        <time>2015-02-02T14:52:23.360Z</time>
      </trkpt>
      <trkpt lat="49.52263" lon="3.52812">
        <ele>212</ele>
        <time>2015-02-02T14:52:56.393Z</time>
      </trkpt>
      <trkpt lat="49.52262" lon="3.52814">
        <ele>212.2</ele>
        <time>2015-02-02T14:52:57.401Z</time>
      </trkpt>
      <trkpt lat="49.52254" lon="3.52818">
        <ele>212.3</ele>
        <time>2015-02-02T14:53:06.369Z</time>
      </trkpt>
      <trkpt lat="49.52253" lon="3.52818">
        <ele>212.3</ele>
        <time>2015-02-02T14:53:07.376Z</time>
      </trkpt>
      <trkpt lat="49.52251" lon="3.52827">
        <ele>212.8</ele>
        <time>2015-02-02T14:53:18.358Z</time>
      </trkpt>
      <trkpt lat="49.52251" lon="3.52826">
        <ele>212.7</ele>
        <time>2015-02-02T14:53:19.362Z</time>
      </trkpt>
      <trkpt lat="49.52251" lon="3.52826">
        <ele>212.7</ele>
        <time>2015-02-02T14:53:21.428Z</time>
      </trkpt>
      <trkpt lat="49.52251" lon="3.52826">
        <ele>212.7</ele>
        <time>2015-02-02T14:53:22.438Z</time>
      </trkpt>
      <trkpt lat="49.52242" lon="3.52826">
        <ele>212.3</ele>
        <time>2015-02-02T14:53:33.361Z</time>
      </trkpt>
      <trkpt lat="49.52241" lon="3.52825">
        <ele>212.4</ele>
        <time>2015-02-02T14:53:34.360Z</time>
      </trkpt>
      <trkpt lat="49.52233" lon="3.52823">
        <ele>211.6</ele>
        <time>2015-02-02T14:53:40.413Z</time>
      </trkpt>
      <trkpt lat="49.52232" lon="3.52823">
        <ele>211.6</ele>
        <time>2015-02-02T14:53:41.430Z</time>
      </trkpt>
      <trkpt lat="49.52223" lon="3.52821">
        <ele>211.9</ele>
        <time>2015-02-02T14:53:51.395Z</time>
      </trkpt>
      <trkpt lat="49.52223" lon="3.52821">
        <ele>211.8</ele>
        <time>2015-02-02T14:53:52.406Z</time>
      </trkpt>
      <trkpt lat="49.52215" lon="3.52818">
        <ele>211.4</ele>
        <time>2015-02-02T14:53:59.370Z</time>
      </trkpt>
      <trkpt lat="49.52213" lon="3.52817">
        <ele>211.3</ele>
        <time>2015-02-02T14:54:00.382Z</time>
      </trkpt>
      <trkpt lat="49.52205" lon="3.52813">
        <ele>211.5</ele>
        <time>2015-02-02T14:54:06.346Z</time>
      </trkpt>
      <trkpt lat="49.52203" lon="3.52813">
        <ele>211.3</ele>
        <time>2015-02-02T14:54:07.360Z</time>
      </trkpt>
      <trkpt lat="49.52196" lon="3.52808">
        <ele>211.3</ele>
        <time>2015-02-02T14:54:12.413Z</time>
      </trkpt>
      <trkpt lat="49.52194" lon="3.52807">
        <ele>211.3</ele>
        <time>2015-02-02T14:54:13.421Z</time>
      </trkpt>
      <trkpt lat="49.52187" lon="3.528">
        <ele>211.4</ele>
        <time>2015-02-02T14:54:17.358Z</time>
      </trkpt>
      <trkpt lat="49.52186" lon="3.52799">
        <ele>211.5</ele>
        <time>2015-02-02T14:54:18.368Z</time>
      </trkpt>
      <trkpt lat="49.52179" lon="3.52794">
        <ele>211.3</ele>
        <time>2015-02-02T14:54:28.348Z</time>
      </trkpt>
      <trkpt lat="49.52177" lon="3.52792">
        <ele>211.3</ele>
        <time>2015-02-02T14:54:29.352Z</time>
      </trkpt>
      <trkpt lat="49.52171" lon="3.52784">
        <ele>211.6</ele>
        <time>2015-02-02T14:54:38.442Z</time>
      </trkpt>
      <trkpt lat="49.52169" lon="3.52783">
        <ele>211.6</ele>
        <time>2015-02-02T14:54:39.349Z</time>
      </trkpt>
      <trkpt lat="49.52162" lon="3.52777">
        <ele>211.7</ele>
        <time>2015-02-02T14:54:46.406Z</time>
      </trkpt>
      <trkpt lat="49.52161" lon="3.52776">
        <ele>211.2</ele>
        <time>2015-02-02T14:54:47.419Z</time>
      </trkpt>
      <trkpt lat="49.52153" lon="3.52774">
        <ele>211.9</ele>
        <time>2015-02-02T14:54:52.355Z</time>
      </trkpt>
      <trkpt lat="49.52151" lon="3.52774">
        <ele>211.6</ele>
        <time>2015-02-02T14:54:53.368Z</time>
      </trkpt>
      <trkpt lat="49.52143" lon="3.5277">
        <ele>211.6</ele>
        <time>2015-02-02T14:54:59.418Z</time>
      </trkpt>
      <trkpt lat="49.52142" lon="3.52769">
        <ele>211.6</ele>
        <time>2015-02-02T14:55:00.421Z</time>
      </trkpt>
      <trkpt lat="49.52133" lon="3.52766">
        <ele>212</ele>
        <time>2015-02-02T14:55:09.407Z</time>
      </trkpt>
      <trkpt lat="49.52132" lon="3.52765">
        <ele>212.1</ele>
        <time>2015-02-02T14:55:10.415Z</time>
      </trkpt>
      <trkpt lat="49.52124" lon="3.52761">
        <ele>212.8</ele>
        <time>2015-02-02T14:55:17.368Z</time>
      </trkpt>
      <trkpt lat="49.52123" lon="3.5276">
        <ele>212.8</ele>
        <time>2015-02-02T14:55:18.375Z</time>
      </trkpt>
      <trkpt lat="49.52115" lon="3.52756">
        <ele>213.1</ele>
        <time>2015-02-02T14:55:24.438Z</time>
      </trkpt>
      <trkpt lat="49.52114" lon="3.52756">
        <ele>213.1</ele>
        <time>2015-02-02T14:55:25.442Z</time>
      </trkpt>
      <trkpt lat="49.52106" lon="3.5275">
        <ele>213.1</ele>
        <time>2015-02-02T14:55:33.423Z</time>
      </trkpt>
      <trkpt lat="49.52105" lon="3.5275">
        <ele>213.1</ele>
        <time>2015-02-02T14:55:34.430Z</time>
      </trkpt>
      <trkpt lat="49.52097" lon="3.52747">
        <ele>213.3</ele>
        <time>2015-02-02T14:55:41.510Z</time>
      </trkpt>
      <trkpt lat="49.52095" lon="3.52747">
        <ele>213.3</ele>
        <time>2015-02-02T14:55:42.427Z</time>
      </trkpt>
      <trkpt lat="49.52087" lon="3.52744">
        <ele>213.7</ele>
        <time>2015-02-02T14:55:48.382Z</time>
      </trkpt>
      <trkpt lat="49.52085" lon="3.52743">
        <ele>213.7</ele>
        <time>2015-02-02T14:55:49.393Z</time>
      </trkpt>
      <trkpt lat="49.52078" lon="3.52739">
        <ele>214</ele>
        <time>2015-02-02T14:55:56.041Z</time>
      </trkpt>
      <trkpt lat="49.52077" lon="3.52738">
        <ele>214.1</ele>
        <time>2015-02-02T14:55:56.474Z</time>
      </trkpt>
      <trkpt lat="49.52068" lon="3.52734">
        <ele>214.2</ele>
        <time>2015-02-02T14:56:02.479Z</time>
      </trkpt>
      <trkpt lat="49.52067" lon="3.52734">
        <ele>214.1</ele>
        <time>2015-02-02T14:56:03.370Z</time>
      </trkpt>
      <trkpt lat="49.52058" lon="3.52728">
        <ele>214.3</ele>
        <time>2015-02-02T14:56:08.421Z</time>
      </trkpt>
      <trkpt lat="49.52057" lon="3.52727">
        <ele>214.3</ele>
        <time>2015-02-02T14:56:09.434Z</time>
      </trkpt>
      <trkpt lat="49.5205" lon="3.5272">
        <ele>215.1</ele>
        <time>2015-02-02T14:56:16.127Z</time>
      </trkpt>
      <trkpt lat="49.52049" lon="3.52719">
        <ele>215.1</ele>
        <time>2015-02-02T14:56:16.446Z</time>
      </trkpt>
      <trkpt lat="49.5204" lon="3.52718">
        <ele>215.5</ele>
        <time>2015-02-02T14:56:29.381Z</time>
      </trkpt>
      <trkpt lat="49.5204" lon="3.52719">
        <ele>215.3</ele>
        <time>2015-02-02T14:56:30.385Z</time>
      </trkpt>
      <trkpt lat="49.52032" lon="3.52714">
        <ele>215.4</ele>
        <time>2015-02-02T14:56:37.402Z</time>
      </trkpt>
      <trkpt lat="49.52029" lon="3.52713">
        <ele>215.3</ele>
        <time>2015-02-02T14:56:38.422Z</time>
      </trkpt>
      <trkpt lat="49.52021" lon="3.52708">
        <ele>215.8</ele>
        <time>2015-02-02T14:56:43.460Z</time>
      </trkpt>
      <trkpt lat="49.5202" lon="3.52707">
        <ele>215.8</ele>
        <time>2015-02-02T14:56:44.469Z</time>
      </trkpt>
      <trkpt lat="49.52013" lon="3.52703">
        <ele>215.8</ele>
        <time>2015-02-02T14:56:52.436Z</time>
      </trkpt>
      <trkpt lat="49.52011" lon="3.52702">
        <ele>215.9</ele>
        <time>2015-02-02T14:56:53.441Z</time>
      </trkpt>
      <trkpt lat="49.52004" lon="3.52698">
        <ele>215.8</ele>
        <time>2015-02-02T14:56:59.441Z</time>
      </trkpt>
      <trkpt lat="49.52003" lon="3.52697">
        <ele>215.8</ele>
        <time>2015-02-02T14:57:00.448Z</time>
      </trkpt>
      <trkpt lat="49.51995" lon="3.52694">
        <ele>215.4</ele>
        <time>2015-02-02T14:57:06.084Z</time>
      </trkpt>
      <trkpt lat="49.51994" lon="3.52693">
        <ele>215.4</ele>
        <time>2015-02-02T14:57:06.374Z</time>
      </trkpt>
      <trkpt lat="49.51986" lon="3.52688">
        <ele>215.1</ele>
        <time>2015-02-02T14:57:11.436Z</time>
      </trkpt>
      <trkpt lat="49.51985" lon="3.52687">
        <ele>215</ele>
        <time>2015-02-02T14:57:12.441Z</time>
      </trkpt>
      <trkpt lat="49.51976" lon="3.52681">
        <ele>215.3</ele>
        <time>2015-02-02T14:57:18.386Z</time>
      </trkpt>
      <trkpt lat="49.51975" lon="3.52681">
        <ele>215.2</ele>
        <time>2015-02-02T14:57:19.397Z</time>
      </trkpt>
      <trkpt lat="49.51968" lon="3.52677">
        <ele>215.2</ele>
        <time>2015-02-02T14:57:24.456Z</time>
      </trkpt>
      <trkpt lat="49.51967" lon="3.52676">
        <ele>215</ele>
        <time>2015-02-02T14:57:25.372Z</time>
      </trkpt>
      <trkpt lat="49.51959" lon="3.52672">
        <ele>214.7</ele>
        <time>2015-02-02T14:57:30.390Z</time>
      </trkpt>
      <trkpt lat="49.51958" lon="3.52671">
        <ele>214.8</ele>
        <time>2015-02-02T14:57:31.397Z</time>
      </trkpt>
      <trkpt lat="49.51949" lon="3.5267">
        <ele>213.7</ele>
        <time>2015-02-02T14:57:38.422Z</time>
      </trkpt>
      <trkpt lat="49.51948" lon="3.52669">
        <ele>213.3</ele>
        <time>2015-02-02T14:57:39.429Z</time>
      </trkpt>
      <trkpt lat="49.51943" lon="3.52667">
        <ele>212.3</ele>
        <time>2015-02-02T14:57:44.484Z</time>
      </trkpt>
      <trkpt lat="49.51943" lon="3.52667">
        <ele>212.2</ele>
        <time>2015-02-02T14:57:45.372Z</time>
      </trkpt>
      <trkpt lat="49.51943" lon="3.52667">
        <ele>212.2</ele>
        <time>2015-02-02T14:57:45.833Z</time>
      </trkpt>
      <trkpt lat="49.51942" lon="3.52667">
        <ele>212</ele>
        <time>2015-02-02T14:57:46.385Z</time>
      </trkpt>
      <trkpt lat="49.51934" lon="3.52664">
        <ele>211.2</ele>
        <time>2015-02-02T14:57:53.446Z</time>
      </trkpt>
      <trkpt lat="49.51932" lon="3.52663">
        <ele>211.1</ele>
        <time>2015-02-02T14:57:54.451Z</time>
      </trkpt>
      <trkpt lat="49.51924" lon="3.5266">
        <ele>210.6</ele>
        <time>2015-02-02T14:58:08.404Z</time>
      </trkpt>
      <trkpt lat="49.51923" lon="3.52659">
        <ele>210.4</ele>
        <time>2015-02-02T14:58:09.412Z</time>
      </trkpt>
      <trkpt lat="49.51916" lon="3.5265">
        <ele>209.5</ele>
        <time>2015-02-02T14:58:16.375Z</time>
      </trkpt>
      <trkpt lat="49.51915" lon="3.52649">
        <ele>209.3</ele>
        <time>2015-02-02T14:58:17.382Z</time>
      </trkpt>
      <trkpt lat="49.51911" lon="3.52637">
        <ele>208.7</ele>
        <time>2015-02-02T14:58:24.354Z</time>
      </trkpt>
      <trkpt lat="49.51911" lon="3.52635">
        <ele>208.6</ele>
        <time>2015-02-02T14:58:25.374Z</time>
      </trkpt>
      <trkpt lat="49.51906" lon="3.52624">
        <ele>208.4</ele>
        <time>2015-02-02T14:58:31.032Z</time>
      </trkpt>
      <trkpt lat="49.51905" lon="3.52622">
        <ele>208.3</ele>
        <time>2015-02-02T14:58:31.373Z</time>
      </trkpt>
      <trkpt lat="49.51901" lon="3.52612">
        <ele>207.3</ele>
        <time>2015-02-02T14:58:36.358Z</time>
      </trkpt>
      <trkpt lat="49.519" lon="3.52609">
        <ele>207.2</ele>
        <time>2015-02-02T14:58:37.379Z</time>
      </trkpt>
      <trkpt lat="49.51897" lon="3.52598">
        <ele>206.9</ele>
        <time>2015-02-02T14:58:42.425Z</time>
      </trkpt>
      <trkpt lat="49.51896" lon="3.52596">
        <ele>206.7</ele>
        <time>2015-02-02T14:58:43.440Z</time>
      </trkpt>
      <trkpt lat="49.51894" lon="3.52584">
        <ele>206.6</ele>
        <time>2015-02-02T14:58:50.853Z</time>
      </trkpt>
      <trkpt lat="49.51894" lon="3.52582">
        <ele>206.6</ele>
        <time>2015-02-02T14:58:51.405Z</time>
      </trkpt>
      <trkpt lat="49.51889" lon="3.52573">
        <ele>206.4</ele>
        <time>2015-02-02T14:58:56.449Z</time>
      </trkpt>
      <trkpt lat="49.51888" lon="3.52571">
        <ele>206.2</ele>
        <time>2015-02-02T14:58:57.364Z</time>
      </trkpt>
      <trkpt lat="49.51885" lon="3.52559">
        <ele>206.2</ele>
        <time>2015-02-02T14:59:04.419Z</time>
      </trkpt>
      <trkpt lat="49.51885" lon="3.52557">
        <ele>206.2</ele>
        <time>2015-02-02T14:59:05.434Z</time>
      </trkpt>
      <trkpt lat="49.5188" lon="3.52546">
        <ele>206.3</ele>
        <time>2015-02-02T14:59:12.431Z</time>
      </trkpt>
      <trkpt lat="49.5188" lon="3.52545">
        <ele>206.4</ele>
        <time>2015-02-02T14:59:13.439Z</time>
      </trkpt>
      <trkpt lat="49.51878" lon="3.5254">
        <ele>206.7</ele>
        <time>2015-02-02T14:59:17.375Z</time>
      </trkpt>
      <trkpt lat="49.51878" lon="3.5254">
        <ele>206.8</ele>
        <time>2015-02-02T14:59:18.377Z</time>
      </trkpt>
      <trkpt lat="49.51879" lon="3.52539">
        <ele>206.9</ele>
        <time>2015-02-02T14:59:19.389Z</time>
      </trkpt>
      <trkpt lat="49.51876" lon="3.52529">
        <ele>206.9</ele>
        <time>2015-02-02T14:59:32.408Z</time>
      </trkpt>
      <trkpt lat="49.51876" lon="3.52528">
        <ele>207</ele>
        <time>2015-02-02T14:59:33.427Z</time>
      </trkpt>
      <trkpt lat="49.51876" lon="3.52528">
        <ele>206.9</ele>
        <time>2015-02-02T14:59:34.437Z</time>
      </trkpt>
      <trkpt lat="49.51876" lon="3.52519">
        <ele>207</ele>
        <time>2015-02-02T14:59:41.418Z</time>
      </trkpt>
      <trkpt lat="49.51876" lon="3.52518">
        <ele>207.1</ele>
        <time>2015-02-02T14:59:42.425Z</time>
      </trkpt>
      <trkpt lat="49.51876" lon="3.52518">
        <ele>207.1</ele>
        <time>2015-02-02T14:59:43.427Z</time>
      </trkpt>
      <trkpt lat="49.51874" lon="3.5251">
        <ele>206.6</ele>
        <time>2015-02-02T14:59:49.377Z</time>
      </trkpt>
      <trkpt lat="49.51873" lon="3.5251">
        <ele>206.5</ele>
        <time>2015-02-02T14:59:50.402Z</time>
      </trkpt>
      <trkpt lat="49.51873" lon="3.5251">
        <ele>206.5</ele>
        <time>2015-02-02T14:59:50.837Z</time>
      </trkpt>
      <trkpt lat="49.51873" lon="3.52508">
        <ele>206.4</ele>
        <time>2015-02-02T14:59:51.416Z</time>
      </trkpt>
      <trkpt lat="49.51866" lon="3.52501">
        <ele>206.8</ele>
        <time>2015-02-02T15:00:00.970Z</time>
      </trkpt>
      <trkpt lat="49.51865" lon="3.525">
        <ele>206.8</ele>
        <time>2015-02-02T15:00:01.365Z</time>
      </trkpt>
      <trkpt lat="49.51864" lon="3.52499">
        <ele>206.9</ele>
        <time>2015-02-02T15:00:02.406Z</time>
      </trkpt>
      <trkpt lat="49.51863" lon="3.52499">
        <ele>206.9</ele>
        <time>2015-02-02T15:00:03.411Z</time>
      </trkpt>
      <trkpt lat="49.51863" lon="3.52497">
        <ele>206.8</ele>
        <time>2015-02-02T15:00:04.411Z</time>
      </trkpt>
      <trkpt lat="49.51856" lon="3.52488">
        <ele>206.6</ele>
        <time>2015-02-02T15:00:11.120Z</time>
      </trkpt>
      <trkpt lat="49.51856" lon="3.52486">
        <ele>206.5</ele>
        <time>2015-02-02T15:00:11.371Z</time>
      </trkpt>
      <trkpt lat="49.51855" lon="3.52484">
        <ele>206.5</ele>
        <time>2015-02-02T15:00:12.385Z</time>
      </trkpt>
      <trkpt lat="49.51855" lon="3.52483">
        <ele>206.3</ele>
        <time>2015-02-02T15:00:13.401Z</time>
      </trkpt>
      <trkpt lat="49.51853" lon="3.52482">
        <ele>206.2</ele>
        <time>2015-02-02T15:00:16.153Z</time>
      </trkpt>
      <trkpt lat="49.51852" lon="3.52482">
        <ele>206.1</ele>
        <time>2015-02-02T15:00:16.423Z</time>
      </trkpt>
      <trkpt lat="49.5185" lon="3.52484">
        <ele>205.9</ele>
        <time>2015-02-02T15:00:19.339Z</time>
      </trkpt>
      <trkpt lat="49.51849" lon="3.52484">
        <ele>205.8</ele>
        <time>2015-02-02T15:00:20.371Z</time>
      </trkpt>
      <trkpt lat="49.51849" lon="3.52484">
        <ele>205.8</ele>
        <time>2015-02-02T15:00:21.175Z</time>
      </trkpt>
      <trkpt lat="49.51848" lon="3.52484">
        <ele>205.7</ele>
        <time>2015-02-02T15:00:21.381Z</time>
      </trkpt>
      <trkpt lat="49.51843" lon="3.52487">
        <ele>205.3</ele>
        <time>2015-02-02T15:00:33.379Z</time>
      </trkpt>
      <trkpt lat="49.51842" lon="3.52486">
        <ele>205.2</ele>
        <time>2015-02-02T15:00:34.384Z</time>
      </trkpt>
      <trkpt lat="49.51842" lon="3.52486">
        <ele>205.1</ele>
        <time>2015-02-02T15:00:35.393Z</time>
      </trkpt>
      <trkpt lat="49.51833" lon="3.52486">
        <ele>204.5</ele>
        <time>2015-02-02T15:00:43.404Z</time>
      </trkpt>
      <trkpt lat="49.51832" lon="3.52486">
        <ele>204.4</ele>
        <time>2015-02-02T15:00:44.409Z</time>
      </trkpt>
      <trkpt lat="49.51829" lon="3.52487">
        <ele>203.6</ele>
        <time>2015-02-02T15:00:48.329Z</time>
      </trkpt>
      <trkpt lat="49.51829" lon="3.52487">
        <ele>203.5</ele>
        <time>2015-02-02T15:00:49.343Z</time>
      </trkpt>
      <trkpt lat="49.51828" lon="3.52487">
        <ele>203.2</ele>
        <time>2015-02-02T15:00:50.864Z</time>
      </trkpt>
      <trkpt lat="49.51827" lon="3.52487">
        <ele>203.1</ele>
        <time>2015-02-02T15:00:51.403Z</time>
      </trkpt>
      <trkpt lat="49.51823" lon="3.52492">
        <ele>201.8</ele>
        <time>2015-02-02T15:00:59.356Z</time>
      </trkpt>
      <trkpt lat="49.51822" lon="3.52492">
        <ele>201.5</ele>
        <time>2015-02-02T15:01:00.369Z</time>
      </trkpt>
      <trkpt lat="49.5182" lon="3.52492">
        <ele>201.1</ele>
        <time>2015-02-02T15:01:01.384Z</time>
      </trkpt>
      <trkpt lat="49.51818" lon="3.52492">
        <ele>200.5</ele>
        <time>2015-02-02T15:01:02.390Z</time>
      </trkpt>
      <trkpt lat="49.51811" lon="3.52497">
        <ele>198.6</ele>
        <time>2015-02-02T15:01:12.398Z</time>
      </trkpt>
      <trkpt lat="49.51809" lon="3.52499">
        <ele>198.2</ele>
        <time>2015-02-02T15:01:13.412Z</time>
      </trkpt>
      <trkpt lat="49.51808" lon="3.52499">
        <ele>197.9</ele>
        <time>2015-02-02T15:01:14.433Z</time>
      </trkpt>
      <trkpt lat="49.51806" lon="3.525">
        <ele>197.4</ele>
        <time>2015-02-02T15:01:15.338Z</time>
      </trkpt>
      <trkpt lat="49.51803" lon="3.52503">
        <ele>196.2</ele>
        <time>2015-02-02T15:01:23.400Z</time>
      </trkpt>
      <trkpt lat="49.51803" lon="3.52504">
        <ele>196.1</ele>
        <time>2015-02-02T15:01:24.406Z</time>
      </trkpt>
      <trkpt lat="49.51803" lon="3.52504">
        <ele>196</ele>
        <time>2015-02-02T15:01:25.415Z</time>
      </trkpt>
      <trkpt lat="49.51799" lon="3.52502">
        <ele>195.7</ele>
        <time>2015-02-02T15:01:29.345Z</time>
      </trkpt>
      <trkpt lat="49.51798" lon="3.52503">
        <ele>195.6</ele>
        <time>2015-02-02T15:01:30.355Z</time>
      </trkpt>
      <trkpt lat="49.51797" lon="3.52503">
        <ele>195.5</ele>
        <time>2015-02-02T15:01:58.411Z</time>
      </trkpt>
      <trkpt lat="49.51794" lon="3.52504">
        <ele>194.7</ele>
        <time>2015-02-02T15:01:59.424Z</time>
      </trkpt>
      <trkpt lat="49.518" lon="3.52515">
        <ele>194.1</ele>
        <time>2015-02-02T15:02:10.366Z</time>
      </trkpt>
      <trkpt lat="49.518" lon="3.52515">
        <ele>194.1</ele>
        <time>2015-02-02T15:02:11.384Z</time>
      </trkpt>
      <trkpt lat="49.518" lon="3.52514">
        <ele>194.1</ele>
        <time>2015-02-02T15:02:13.399Z</time>
      </trkpt>
      <trkpt lat="49.518" lon="3.52514">
        <ele>194.1</ele>
        <time>2015-02-02T15:02:14.407Z</time>
      </trkpt>
      <trkpt lat="49.518" lon="3.52515">
        <ele>194</ele>
        <time>2015-02-02T15:02:15.415Z</time>
      </trkpt>
      <trkpt lat="49.518" lon="3.52514">
        <ele>194</ele>
        <time>2015-02-02T15:02:16.324Z</time>
      </trkpt>
      <trkpt lat="49.518" lon="3.52513">
        <ele>194</ele>
        <time>2015-02-02T15:02:18.340Z</time>
      </trkpt>
      <trkpt lat="49.518" lon="3.52513">
        <ele>194</ele>
        <time>2015-02-02T15:02:19.348Z</time>
      </trkpt>
      <trkpt lat="49.518" lon="3.52513">
        <ele>194</ele>
        <time>2015-02-02T15:02:20.392Z</time>
      </trkpt>
      <trkpt lat="49.51791" lon="3.52516">
        <ele>193.5</ele>
        <time>2015-02-02T15:02:28.379Z</time>
      </trkpt>
      <trkpt lat="49.51791" lon="3.52516">
        <ele>193.4</ele>
        <time>2015-02-02T15:02:29.388Z</time>
      </trkpt>
      <trkpt lat="49.51784" lon="3.52518">
        <ele>192.5</ele>
        <time>2015-02-02T15:02:38.350Z</time>
      </trkpt>
      <trkpt lat="49.51784" lon="3.52519">
        <ele>192.5</ele>
        <time>2015-02-02T15:02:39.360Z</time>
      </trkpt>
      <trkpt lat="49.51783" lon="3.5252">
        <ele>192.6</ele>
        <time>2015-02-02T15:02:40.377Z</time>
      </trkpt>
      <trkpt lat="49.51775" lon="3.52525">
        <ele>192.1</ele>
        <time>2015-02-02T15:02:49.351Z</time>
      </trkpt>
      <trkpt lat="49.51774" lon="3.52526">
        <ele>192</ele>
        <time>2015-02-02T15:02:50.357Z</time>
      </trkpt>
      <trkpt lat="49.51771" lon="3.52538">
        <ele>190.4</ele>
        <time>2015-02-02T15:02:59.331Z</time>
      </trkpt>
      <trkpt lat="49.5177" lon="3.52539">
        <ele>190</ele>
        <time>2015-02-02T15:03:00.338Z</time>
      </trkpt>
      <trkpt lat="49.51767" lon="3.52543">
        <ele>189.1</ele>
        <time>2015-02-02T15:03:04.391Z</time>
      </trkpt>
      <trkpt lat="49.51766" lon="3.52542">
        <ele>188.7</ele>
        <time>2015-02-02T15:03:05.396Z</time>
      </trkpt>
      <trkpt lat="49.51766" lon="3.52542">
        <ele>188.7</ele>
        <time>2015-02-02T15:03:06.158Z</time>
      </trkpt>
      <trkpt lat="49.51766" lon="3.52543">
        <ele>188.3</ele>
        <time>2015-02-02T15:03:06.401Z</time>
      </trkpt>
      <trkpt lat="49.51766" lon="3.52547">
        <ele>186.4</ele>
        <time>2015-02-02T15:03:16.209Z</time>
      </trkpt>
      <trkpt lat="49.51766" lon="3.52547">
        <ele>186.5</ele>
        <time>2015-02-02T15:03:16.386Z</time>
      </trkpt>
      <trkpt lat="49.51765" lon="3.52547">
        <ele>186.6</ele>
        <time>2015-02-02T15:03:19.403Z</time>
      </trkpt>
      <trkpt lat="49.51764" lon="3.52549">
        <ele>186.7</ele>
        <time>2015-02-02T15:03:20.411Z</time>
      </trkpt>
      <trkpt lat="49.51763" lon="3.52555">
        <ele>187</ele>
        <time>2015-02-02T15:03:26.256Z</time>
      </trkpt>
      <trkpt lat="49.51763" lon="3.52555">
        <ele>187</ele>
        <time>2015-02-02T15:03:26.384Z</time>
      </trkpt>
      <trkpt lat="49.51763" lon="3.52556">
        <ele>187.1</ele>
        <time>2015-02-02T15:03:27.374Z</time>
      </trkpt>
      <trkpt lat="49.5176" lon="3.52569">
        <ele>186.4</ele>
        <time>2015-02-02T15:03:38.349Z</time>
      </trkpt>
      <trkpt lat="49.51759" lon="3.5257">
        <ele>186.3</ele>
        <time>2015-02-02T15:03:39.362Z</time>
      </trkpt>
      <trkpt lat="49.51754" lon="3.5258">
        <ele>185.7</ele>
        <time>2015-02-02T15:03:46.069Z</time>
      </trkpt>
      <trkpt lat="49.51752" lon="3.52582">
        <ele>185.7</ele>
        <time>2015-02-02T15:03:46.373Z</time>
      </trkpt>
      <trkpt lat="49.51744" lon="3.52586">
        <ele>182.1</ele>
        <time>2015-02-02T15:03:52.325Z</time>
      </trkpt>
      <trkpt lat="49.51744" lon="3.52586">
        <ele>182</ele>
        <time>2015-02-02T15:03:53.325Z</time>
      </trkpt>
      <trkpt lat="49.51736" lon="3.52589">
        <ele>179</ele>
        <time>2015-02-02T15:04:01.138Z</time>
      </trkpt>
      <trkpt lat="49.51735" lon="3.5259">
        <ele>178.6</ele>
        <time>2015-02-02T15:04:01.399Z</time>
      </trkpt>
      <trkpt lat="49.51732" lon="3.52593">
        <ele>178.4</ele>
        <time>2015-02-02T15:04:06.166Z</time>
      </trkpt>
      <trkpt lat="49.51731" lon="3.52594">
        <ele>178.4</ele>
        <time>2015-02-02T15:04:06.331Z</time>
      </trkpt>
      <trkpt lat="49.51731" lon="3.52594">
        <ele>178.3</ele>
        <time>2015-02-02T15:04:07.335Z</time>
      </trkpt>
      <trkpt lat="49.5173" lon="3.52594">
        <ele>178.4</ele>
        <time>2015-02-02T15:04:08.349Z</time>
      </trkpt>
      <trkpt lat="49.51729" lon="3.52593">
        <ele>178.2</ele>
        <time>2015-02-02T15:04:11.184Z</time>
      </trkpt>
      <trkpt lat="49.51728" lon="3.52593">
        <ele>178</ele>
        <time>2015-02-02T15:04:11.394Z</time>
      </trkpt>
      <trkpt lat="49.51727" lon="3.52594">
        <ele>177.7</ele>
        <time>2015-02-02T15:04:13.411Z</time>
      </trkpt>
      <trkpt lat="49.51726" lon="3.52594">
        <ele>177.5</ele>
        <time>2015-02-02T15:04:14.417Z</time>
      </trkpt>
      <trkpt lat="49.51717" lon="3.52595">
        <ele>174.7</ele>
        <time>2015-02-02T15:04:21.295Z</time>
      </trkpt>
      <trkpt lat="49.51716" lon="3.52595">
        <ele>174.2</ele>
        <time>2015-02-02T15:04:21.376Z</time>
      </trkpt>
      <trkpt lat="49.51708" lon="3.526">
        <ele>170.4</ele>
        <time>2015-02-02T15:04:28.327Z</time>
      </trkpt>
      <trkpt lat="49.51706" lon="3.526">
        <ele>170</ele>
        <time>2015-02-02T15:04:29.340Z</time>
      </trkpt>
      <trkpt lat="49.51703" lon="3.526">
        <ele>170</ele>
        <time>2015-02-02T15:04:33.371Z</time>
      </trkpt>
      <trkpt lat="49.51702" lon="3.526">
        <ele>170.1</ele>
        <time>2015-02-02T15:04:34.374Z</time>
      </trkpt>
      <trkpt lat="49.51702" lon="3.52601">
        <ele>170.1</ele>
        <time>2015-02-02T15:04:35.385Z</time>
      </trkpt>
      <trkpt lat="49.517" lon="3.52602">
        <ele>170</ele>
        <time>2015-02-02T15:04:38.418Z</time>
      </trkpt>
      <trkpt lat="49.517" lon="3.52602">
        <ele>170</ele>
        <time>2015-02-02T15:04:39.323Z</time>
      </trkpt>
      <trkpt lat="49.51699" lon="3.52602">
        <ele>169.8</ele>
        <time>2015-02-02T15:04:42.336Z</time>
      </trkpt>
      <trkpt lat="49.51698" lon="3.52603">
        <ele>169.6</ele>
        <time>2015-02-02T15:04:43.350Z</time>
      </trkpt>
      <trkpt lat="49.5169" lon="3.52608">
        <ele>169.4</ele>
        <time>2015-02-02T15:04:53.371Z</time>
      </trkpt>
      <trkpt lat="49.51689" lon="3.52608">
        <ele>169.4</ele>
        <time>2015-02-02T15:04:54.308Z</time>
      </trkpt>
      <trkpt lat="49.51682" lon="3.52616">
        <ele>168.4</ele>
        <time>2015-02-02T15:05:02.379Z</time>
      </trkpt>
      <trkpt lat="49.51681" lon="3.52618">
        <ele>168.6</ele>
        <time>2015-02-02T15:05:03.404Z</time>
      </trkpt>
      <trkpt lat="49.51673" lon="3.52624">
        <ele>167.5</ele>
        <time>2015-02-02T15:05:08.535Z</time>
      </trkpt>
      <trkpt lat="49.51672" lon="3.52624">
        <ele>167.4</ele>
        <time>2015-02-02T15:05:09.338Z</time>
      </trkpt>
      <trkpt lat="49.51664" lon="3.52628">
        <ele>167.2</ele>
        <time>2015-02-02T15:05:14.385Z</time>
      </trkpt>
      <trkpt lat="49.51663" lon="3.52628">
        <ele>167.2</ele>
        <time>2015-02-02T15:05:15.399Z</time>
      </trkpt>
      <trkpt lat="49.51654" lon="3.52627">
        <ele>166.8</ele>
        <time>2015-02-02T15:05:21.339Z</time>
      </trkpt>
      <trkpt lat="49.51653" lon="3.52626">
        <ele>167.1</ele>
        <time>2015-02-02T15:05:22.346Z</time>
      </trkpt>
      <trkpt lat="49.51645" lon="3.52624">
        <ele>166.7</ele>
        <time>2015-02-02T15:05:30.413Z</time>
      </trkpt>
      <trkpt lat="49.51644" lon="3.52623">
        <ele>166.9</ele>
        <time>2015-02-02T15:05:31.424Z</time>
      </trkpt>
      <trkpt lat="49.51636" lon="3.52622">
        <ele>166</ele>
        <time>2015-02-02T15:05:39.385Z</time>
      </trkpt>
      <trkpt lat="49.51635" lon="3.52622">
        <ele>165.9</ele>
        <time>2015-02-02T15:05:40.402Z</time>
      </trkpt>
      <trkpt lat="49.51626" lon="3.52619">
        <ele>164.7</ele>
        <time>2015-02-02T15:05:49.388Z</time>
      </trkpt>
      <trkpt lat="49.51625" lon="3.52619">
        <ele>164.4</ele>
        <time>2015-02-02T15:05:50.405Z</time>
      </trkpt>
      <trkpt lat="49.51616" lon="3.52615">
        <ele>162.7</ele>
        <time>2015-02-02T15:05:57.437Z</time>
      </trkpt>
      <trkpt lat="49.51616" lon="3.52615">
        <ele>162.8</ele>
        <time>2015-02-02T15:05:58.399Z</time>
      </trkpt>
      <trkpt lat="49.51607" lon="3.52613">
        <ele>162.1</ele>
        <time>2015-02-02T15:06:07.402Z</time>
      </trkpt>
      <trkpt lat="49.51606" lon="3.52615">
        <ele>161.9</ele>
        <time>2015-02-02T15:06:08.415Z</time>
      </trkpt>
      <trkpt lat="49.51597" lon="3.52615">
        <ele>158.3</ele>
        <time>2015-02-02T15:06:23.399Z</time>
      </trkpt>
      <trkpt lat="49.51596" lon="3.52614">
        <ele>158.4</ele>
        <time>2015-02-02T15:06:24.406Z</time>
      </trkpt>
      <trkpt lat="49.51589" lon="3.52609">
        <ele>158.1</ele>
        <time>2015-02-02T15:06:30.354Z</time>
      </trkpt>
      <trkpt lat="49.51588" lon="3.52608">
        <ele>157.9</ele>
        <time>2015-02-02T15:06:31.366Z</time>
      </trkpt>
      <trkpt lat="49.5158" lon="3.52603">
        <ele>156.7</ele>
        <time>2015-02-02T15:06:36.416Z</time>
      </trkpt>
      <trkpt lat="49.51579" lon="3.52602">
        <ele>156.6</ele>
        <time>2015-02-02T15:06:37.425Z</time>
      </trkpt>
      <trkpt lat="49.51572" lon="3.52594">
        <ele>155.3</ele>
        <time>2015-02-02T15:06:44.378Z</time>
      </trkpt>
      <trkpt lat="49.5157" lon="3.52592">
        <ele>155</ele>
        <time>2015-02-02T15:06:45.382Z</time>
      </trkpt>
      <trkpt lat="49.51567" lon="3.52589">
        <ele>154.4</ele>
        <time>2015-02-02T15:06:49.411Z</time>
      </trkpt>
      <trkpt lat="49.51566" lon="3.52588">
        <ele>154.4</ele>
        <time>2015-02-02T15:06:50.418Z</time>
      </trkpt>
      <trkpt lat="49.51566" lon="3.52586">
        <ele>154.6</ele>
        <time>2015-02-02T15:06:51.427Z</time>
      </trkpt>
      <trkpt lat="49.51561" lon="3.52577">
        <ele>153.2</ele>
        <time>2015-02-02T15:06:58.405Z</time>
      </trkpt>
      <trkpt lat="49.5156" lon="3.52576">
        <ele>152.9</ele>
        <time>2015-02-02T15:06:59.413Z</time>
      </trkpt>
      <trkpt lat="49.51558" lon="3.52572">
        <ele>152.1</ele>
        <time>2015-02-02T15:07:01.339Z</time>
      </trkpt>
      <trkpt lat="49.51558" lon="3.52572">
        <ele>152</ele>
        <time>2015-02-02T15:07:02.444Z</time>
      </trkpt>
      <trkpt lat="49.51557" lon="3.52571">
        <ele>152</ele>
        <time>2015-02-02T15:07:03.340Z</time>
      </trkpt>
      <trkpt lat="49.5155" lon="3.52564">
        <ele>152.4</ele>
        <time>2015-02-02T15:07:11.403Z</time>
      </trkpt>
      <trkpt lat="49.51549" lon="3.52564">
        <ele>152.3</ele>
        <time>2015-02-02T15:07:12.410Z</time>
      </trkpt>
      <trkpt lat="49.51541" lon="3.52556">
        <ele>152.6</ele>
        <time>2015-02-02T15:07:21.072Z</time>
      </trkpt>
      <trkpt lat="49.5154" lon="3.52555">
        <ele>152.5</ele>
        <time>2015-02-02T15:07:21.421Z</time>
      </trkpt>
      <trkpt lat="49.51534" lon="3.52549">
        <ele>153</ele>
        <time>2015-02-02T15:07:29.399Z</time>
      </trkpt>
      <trkpt lat="49.51533" lon="3.52548">
        <ele>153</ele>
        <time>2015-02-02T15:07:30.416Z</time>
      </trkpt>
      <trkpt lat="49.5153" lon="3.52546">
        <ele>153</ele>
        <time>2015-02-02T15:07:33.391Z</time>
      </trkpt>
      <trkpt lat="49.5153" lon="3.52545">
        <ele>153</ele>
        <time>2015-02-02T15:07:34.398Z</time>
      </trkpt>
      <trkpt lat="49.5153" lon="3.52545">
        <ele>152.8</ele>
        <time>2015-02-02T15:07:35.406Z</time>
      </trkpt>
      <trkpt lat="49.51522" lon="3.52537">
        <ele>151.6</ele>
        <time>2015-02-02T15:07:42.345Z</time>
      </trkpt>
      <trkpt lat="49.51521" lon="3.52536">
        <ele>151.6</ele>
        <time>2015-02-02T15:07:43.355Z</time>
      </trkpt>
      <trkpt lat="49.51514" lon="3.52528">
        <ele>151.1</ele>
        <time>2015-02-02T15:07:50.916Z</time>
      </trkpt>
      <trkpt lat="49.51513" lon="3.52527">
        <ele>151</ele>
        <time>2015-02-02T15:07:51.337Z</time>
      </trkpt>
      <trkpt lat="49.51506" lon="3.52518">
        <ele>150.6</ele>
        <time>2015-02-02T15:07:57.408Z</time>
      </trkpt>
      <trkpt lat="49.51504" lon="3.52515">
        <ele>150.7</ele>
        <time>2015-02-02T15:07:58.411Z</time>
      </trkpt>
      <trkpt lat="49.51501" lon="3.52504">
        <ele>149.7</ele>
        <time>2015-02-02T15:08:02.375Z</time>
      </trkpt>
      <trkpt lat="49.515" lon="3.52502">
        <ele>149.7</ele>
        <time>2015-02-02T15:08:03.388Z</time>
      </trkpt>
      <trkpt lat="49.51495" lon="3.52491">
        <ele>149.9</ele>
        <time>2015-02-02T15:08:11.044Z</time>
      </trkpt>
      <trkpt lat="49.51494" lon="3.52489">
        <ele>149.9</ele>
        <time>2015-02-02T15:08:11.395Z</time>
      </trkpt>
      <trkpt lat="49.5149" lon="3.52477">
        <ele>149</ele>
        <time>2015-02-02T15:08:17.395Z</time>
      </trkpt>
      <trkpt lat="49.5149" lon="3.52475">
        <ele>149.1</ele>
        <time>2015-02-02T15:08:18.402Z</time>
      </trkpt>
      <trkpt lat="49.51487" lon="3.52464">
        <ele>149.8</ele>
        <time>2015-02-02T15:08:26.057Z</time>
      </trkpt>
      <trkpt lat="49.51486" lon="3.52462">
        <ele>149.7</ele>
        <time>2015-02-02T15:08:26.378Z</time>
      </trkpt>
      <trkpt lat="49.5148" lon="3.52451">
        <ele>148.8</ele>
        <time>2015-02-02T15:08:33.326Z</time>
      </trkpt>
      <trkpt lat="49.51479" lon="3.5245">
        <ele>148.9</ele>
        <time>2015-02-02T15:08:34.329Z</time>
      </trkpt>
      <trkpt lat="49.51473" lon="3.5244">
        <ele>148.5</ele>
        <time>2015-02-02T15:08:41.397Z</time>
      </trkpt>
      <trkpt lat="49.51473" lon="3.52439">
        <ele>148.3</ele>
        <time>2015-02-02T15:08:42.405Z</time>
      </trkpt>
      <trkpt lat="49.51468" lon="3.52428">
        <ele>148.9</ele>
        <time>2015-02-02T15:08:49.376Z</time>
      </trkpt>
      <trkpt lat="49.51467" lon="3.52427">
        <ele>149.1</ele>
        <time>2015-02-02T15:08:50.380Z</time>
      </trkpt>
      <trkpt lat="49.51463" lon="3.52415">
        <ele>149.5</ele>
        <time>2015-02-02T15:08:59.357Z</time>
      </trkpt>
      <trkpt lat="49.51462" lon="3.52414">
        <ele>149.7</ele>
        <time>2015-02-02T15:09:00.368Z</time>
      </trkpt>
      <trkpt lat="49.51463" lon="3.524">
        <ele>147.5</ele>
        <time>2015-02-02T15:09:10.964Z</time>
      </trkpt>
      <trkpt lat="49.51463" lon="3.52399">
        <ele>147.4</ele>
        <time>2015-02-02T15:09:11.395Z</time>
      </trkpt>
      <trkpt lat="49.51463" lon="3.52398">
        <ele>147.3</ele>
        <time>2015-02-02T15:09:14.991Z</time>
      </trkpt>
    </trkseg>
  </trk>
</gpx>